[[{"header":{"parameterUnit":"m.s-1","parameterCategory":1,"la1":30.6,"la2":29.2853,"lo1":-89.7004,"lo2":-87.6739,"dy":0.0162,"dx":0.0183,"nx":112,"ny":82,"refTime":"2024-06-19T12:00:00:Z","depth":0,"parameterNumber":2,"parameterNumberName":"U-component_of_WINDS"},"data":[0.0,0.0,0.0,0.0,0.0,0.0,0.0,0.0,0.0,0.0,0.0,0.0,0.0,0.0,0.0,0.0,0.0,0.0,0.0,0.0,0.0,0.0,0.0,0.0,0.0,0.0,0.0,0.0,0.0,0.0,0.0,0.0,0.0,0.0,0.0,0.0,0.0,0.0,0.0,0.0,0.0,0.0,0.0,0.0,0.0,0.0,0.0,0.0,0.0,0.0,0.0,0.0,0.0,0.0,0.0,0.0,0.0,0.0,0.0,0.0,0.0,0.0,0.0,0.0,0.0,0.0,0.0,0.0,0.0,0.0,0.0,0.0,0.0,0.0,0.0,0.0,0.0,0.0,0.0,0.0,0.0,0.0,0.0,0.0,0.0,0.0,0.0,0.0,0.0,0.0,0.0,1.668,1.8918,2.0284,2.0331,1.9432,1.8346,1.7162,0.0,0.0,0.0,0.0,0.0,0.0,0.0,0.0,0.0,0.0,0.0,0.0,0.0,0.0,0.0,0.0,0.0,0.0,0.0,0.0,0.0,0.0,0.0,0.0,0.0,0.0,0.0,0.0,0.0,0.0,0.0,0.0,0.0,0.0,0.0,0.0,0.0,0.0,0.0,0.0,0.0,0.0,0.0,0.0,0.0,0.0,0.0,0.0,0.0,0.0,0.0,0.0,0.0,0.0,0.0,0.0,0.0,0.0,0.0,0.0,0.0,0.0,0.0,0.0,0.0,0.0,0.0,0.0,0.0,0.0,0.0,0.0,0.0,0.0,0.0,0.0,0.0,0.0,0.0,0.0,0.0,0.0,0.0,0.0,0.0,0.0,0.0,0.0,0.0,0.0,0.0,0.0,0.0,0.0,0.0,0.0,0.0,0.0,0.0,0.0,0.0,0.0,0.0,0.0,1.4165,1.8115,1.9459,2.015,2.0445,1.9044,1.769,1.6583,0.0,0.0,0.0,0.0,0.0,0.0,0.0,0.0,0.0,0.0,0.0,0.0,0.0,0.0,0.0,0.0,0.0,0.0,0.0,0.0,0.0,0.0,0.0,0.0,0.0,0.0,0.0,0.0,0.0,0.0,0.0,0.0,0.0,0.0,0.0,0.0,0.0,0.0,0.0,0.0,0.0,0.0,0.0,0.0,0.0,0.0,0.0,0.0,0.0,0.0,0.0,0.0,0.0,0.0,0.0,0.0,0.0,0.0,0.0,0.0,0.0,0.0,0.0,0.0,0.0,0.0,0.0,0.0,0.0,0.0,0.0,0.0,0.0,0.0,0.0,0.0,0.0,0.0,0.0,0.0,0.0,0.0,0.0,0.0,0.0,0.0,0.0,0.0,0.0,0.0,0.0,0.0,0.0,0.0,0.0,0.0,0.0,0.0,0.0,0.0,0.0,0.0,0.0,1.3921,1.5386,1.8662,1.917,1.9503,1.9972,1.8617,1.7319,1.6365,1.4267,0.0,0.0,0.0,0.0,0.0,0.0,0.0,0.0,0.0,0.0,0.0,0.0,0.0,0.0,0.0,0.0,0.0,0.0,0.0,0.0,0.0,0.0,0.0,0.0,0.0,0.0,0.0,0.0,0.0,0.0,0.0,0.0,0.0,0.0,0.0,0.0,0.0,0.0,0.0,0.0,0.0,0.0,0.0,0.0,0.0,0.0,0.0,0.0,0.0,0.0,0.0,0.0,0.0,0.0,0.0,0.0,0.0,0.0,0.0,0.0,0.0,0.0,0.0,0.0,0.0,0.0,0.0,0.0,0.0,0.0,0.0,0.0,0.0,0.0,0.0,0.0,0.0,0.0,0.0,0.0,0.0,0.0,0.0,0.0,0.0,0.0,0.0,0.0,0.0,0.0,0.0,0.0,0.0,0.0,0.0,0.0,0.0,0.0,0.0,0.0,0.0,0.0,1.5126,1.6481,1.8506,1.8694,1.8835,1.9306,1.7852,1.6624,1.5863,1.3461,0.0,0.0,0.0,0.0,0.0,0.0,0.0,0.0,0.0,0.0,0.0,0.0,0.0,0.0,0.0,0.0,0.0,0.0,0.0,0.0,0.0,0.0,0.0,0.0,0.0,0.0,0.0,0.0,0.0,0.0,0.0,0.0,0.0,0.0,0.0,0.0,0.0,0.0,0.0,0.0,0.0,0.0,0.0,0.0,0.0,0.0,0.0,0.0,0.0,0.0,0.0,0.0,0.0,0.0,0.0,0.0,0.0,0.0,0.0,0.0,0.0,0.0,0.0,0.0,0.0,0.0,0.0,0.0,0.0,0.0,0.0,0.0,0.0,0.0,0.0,0.0,0.0,0.0,0.0,0.0,0.0,0.0,0.0,0.0,0.0,0.0,0.0,0.0,0.0,0.0,0.0,0.0,0.0,0.0,0.0,0.0,0.0,0.0,0.0,0.0,0.0,0.0,1.4774,1.6665,1.7511,1.8147,1.8538,1.8556,1.6546,1.5112,1.473,1.2093,0.0,0.0,0.0,0.0,0.0,0.0,0.0,0.0,0.0,0.0,0.0,0.0,0.0,0.0,0.0,0.0,0.0,0.0,0.0,0.0,0.0,0.0,0.0,0.0,0.0,0.0,0.0,0.0,0.0,0.0,0.0,0.0,0.0,0.0,0.0,0.0,0.0,0.0,0.0,0.0,0.0,0.0,0.0,0.0,0.0,0.0,0.0,0.0,0.0,0.0,0.0,0.0,0.0,0.0,0.0,0.0,0.0,0.0,0.0,0.0,0.0,0.0,0.0,0.0,0.0,0.0,0.0,0.0,0.0,0.0,0.0,0.0,0.0,0.0,0.0,0.0,0.0,0.0,0.0,0.0,0.0,0.0,0.0,0.0,0.0,0.0,0.0,0.0,0.0,0.0,0.0,0.0,0.0,0.0,0.0,0.0,0.0,0.0,0.0,0.0,0.0,0.0,1.3613,1.4929,0.0,1.711,1.7493,1.7784,1.6694,1.5456,1.4299,0.0,0.0,0.0,0.0,0.0,0.0,0.0,0.0,0.0,0.0,0.0,0.0,0.0,0.0,0.0,0.0,0.0,0.0,0.0,0.0,0.0,0.0,0.0,0.0,0.0,0.0,0.0,0.0,0.0,0.0,0.0,0.0,0.0,0.0,0.0,0.0,0.0,0.0,0.0,0.0,0.0,0.0,0.0,0.0,0.0,0.0,0.0,0.0,0.0,0.0,0.0,0.0,0.0,0.0,0.0,0.0,0.0,0.0,0.0,0.0,0.0,0.0,0.0,0.0,0.0,0.0,0.0,0.0,0.0,0.0,0.0,0.0,0.0,0.0,0.0,0.0,0.0,0.0,0.0,0.0,0.0,0.0,0.0,0.0,0.0,0.0,0.0,0.0,0.0,0.0,0.0,0.0,0.0,0.0,0.0,0.0,0.0,0.0,0.0,0.0,0.0,0.0,1.2054,1.2973,1.4082,0.0,1.6328,1.6671,1.6994,1.6022,1.484,1.3513,0.0,0.0,0.0,0.0,0.0,0.0,0.0,0.0,0.0,0.0,0.0,0.0,0.0,0.0,0.0,0.0,0.0,0.0,0.0,0.0,0.0,0.0,0.0,0.0,0.0,0.0,0.0,0.0,0.0,0.0,0.0,0.0,0.0,0.0,0.0,0.0,0.0,0.0,0.0,0.0,0.0,0.0,0.0,0.0,0.0,0.0,0.0,0.0,0.0,0.0,0.0,0.0,0.0,0.0,0.0,0.0,0.0,0.0,0.0,0.0,0.0,0.0,0.0,0.0,0.0,0.0,0.0,0.0,0.0,0.0,0.0,0.0,0.0,0.0,0.0,0.0,0.0,0.0,0.0,0.0,0.0,0.0,0.0,0.0,0.0,0.0,0.0,0.0,0.0,0.0,0.0,0.0,0.0,0.0,0.0,0.0,0.0,0.0,0.0,0.0,0.0,0.0,1.1389,1.3025,1.4468,1.5495,1.5946,1.62,1.62,1.4257,1.2788,0.0,0.0,0.0,0.0,0.0,0.0,0.0,0.0,0.0,0.0,0.0,0.0,0.0,0.0,0.0,0.0,0.0,0.0,0.0,0.0,0.0,0.0,0.0,0.0,0.0,0.0,0.0,0.0,0.0,0.0,0.0,0.0,0.0,0.0,0.0,0.0,0.0,0.0,0.0,0.0,0.0,0.0,0.0,0.0,0.0,0.0,0.0,0.0,0.0,0.0,0.0,0.0,0.0,0.0,0.0,0.0,0.0,0.0,0.0,0.0,0.0,0.0,0.0,0.0,0.0,0.0,0.0,0.0,0.0,0.0,0.0,0.0,0.0,0.0,0.0,0.0,0.0,0.0,0.0,0.0,0.0,0.0,0.0,0.0,0.0,0.0,0.0,0.0,0.0,0.0,0.0,0.0,0.0,0.0,0.0,0.0,0.0,0.0,0.0,0.0,0.0,0.0,0.0,1.2076,1.2672,1.3641,1.5414,1.5203,1.5295,1.6191,1.5052,1.3595,1.2032,0.0,0.0,0.0,0.0,0.0,0.0,0.0,0.0,0.0,0.0,0.0,0.0,0.0,0.0,0.0,0.0,0.0,0.0,0.0,0.0,0.0,0.0,0.0,0.0,0.0,0.0,0.0,0.0,0.0,0.0,0.0,0.0,0.0,0.0,0.0,0.0,0.0,0.0,0.0,0.0,0.0,0.0,0.0,0.0,0.0,0.0,0.0,0.0,0.0,0.0,0.0,0.0,0.0,0.0,0.0,0.0,0.0,0.0,0.0,0.0,0.0,0.0,0.0,0.0,0.0,0.0,0.0,0.0,0.0,0.0,0.0,0.0,0.0,0.0,0.0,0.0,0.0,0.0,0.0,0.0,0.0,0.0,0.0,0.0,0.0,0.0,0.0,0.0,0.0,0.0,0.0,0.0,0.0,0.0,0.0,0.0,0.0,0.0,0.0,0.0,0.0,0.0,1.1568,1.204,1.2873,1.4505,1.4248,1.4267,1.5036,1.4336,1.3132,1.1382,0.0,0.0,0.0,0.0,0.0,0.0,0.0,0.0,0.0,0.0,0.0,0.0,0.0,0.0,0.0,0.0,0.0,0.0,0.0,0.0,0.0,0.0,0.0,0.0,0.0,0.0,0.0,0.0,0.0,0.0,0.0,0.0,0.0,0.0,0.0,0.0,0.0,0.0,0.0,0.0,0.0,0.0,0.0,0.0,0.0,0.0,0.0,0.0,0.0,0.0,0.0,0.0,0.0,0.0,0.0,0.0,0.0,0.0,0.0,0.0,0.0,0.0,0.0,0.0,0.0,0.0,0.0,0.0,0.0,0.0,0.0,0.0,0.0,0.0,0.0,0.0,0.0,0.0,0.0,0.0,0.0,0.0,0.0,0.0,0.0,0.0,0.0,0.0,0.0,0.0,0.0,0.0,0.0,0.0,0.0,0.0,0.0,0.0,0.0,0.0,0.0,0.0,1.0363,1.1284,1.2256,1.3169,1.3211,1.32,1.3318,1.2853,1.197,1.0619,0.0,0.0,0.0,0.0,0.0,0.0,0.0,0.0,0.0,0.0,0.0,0.0,0.0,0.0,0.0,0.0,0.0,0.0,0.0,0.0,0.0,0.0,0.0,0.0,0.0,0.0,0.0,0.0,0.0,0.0,0.0,0.0,0.0,0.0,0.0,0.0,0.0,0.0,0.0,0.0,0.0,0.0,0.0,0.0,0.0,0.0,0.0,0.0,0.0,0.0,0.0,0.0,0.0,0.0,0.0,0.0,0.0,0.0,0.0,0.0,0.6071,0.0,0.0,0.0,0.0,0.0,0.0,0.0,0.0,0.0,0.0,0.0,0.0,0.0,0.0,0.0,0.0,0.0,0.0,0.0,0.0,0.0,0.0,0.0,0.0,0.0,0.0,0.0,0.0,0.0,0.0,0.0,0.0,0.0,0.0,0.0,0.0,0.0,0.0,0.0,0.0,0.0,1.006,1.1103,1.2144,1.2978,1.2442,1.2446,1.344,1.3184,1.2341,1.0828,1.0208,0.0,0.0,0.0,0.0,0.0,0.0,0.0,0.0,0.0,0.0,0.0,0.0,0.0,0.0,0.0,0.0,0.0,0.0,0.0,0.0,0.0,0.0,0.0,0.0,0.0,0.0,0.0,0.0,0.0,0.0,0.0,0.0,0.0,0.0,0.0,0.0,0.0,0.0,0.0,0.0,0.0,0.0,0.0,0.0,0.0,0.0,0.0,0.0,0.0,0.0,0.0,0.0,0.0,0.0,0.0,0.0,0.0,0.0,0.0,0.0,0.6022,0.0,0.0,0.0,0.0,0.0,0.0,0.0,0.0,0.0,0.0,0.0,0.0,0.0,0.0,0.0,0.0,0.0,0.0,0.0,0.0,0.0,0.0,0.0,0.0,0.0,0.0,0.0,0.0,0.0,0.0,0.0,0.0,0.0,0.0,0.0,0.0,0.0,0.0,0.0,0.0,1.0302,1.1053,1.1705,1.2183,1.1772,1.1736,1.2403,1.2413,1.1791,1.0455,1.0058,0.0,0.0,0.0,0.0,0.0,0.0,0.0,0.0,0.0,0.0,0.0,0.0,0.0,0.0,0.0,0.0,0.0,0.0,0.0,0.0,0.0,0.0,0.0,0.0,0.0,0.0,0.0,0.0,0.0,0.0,0.0,0.0,0.0,0.0,0.0,0.0,0.0,0.0,0.0,0.0,0.0,0.0,0.0,0.0,0.0,0.0,0.0,0.0,0.0,0.0,0.0,0.0,0.0,0.3907,0.3784,0.3638,0.3682,0.3565,0.3428,0.4603,0.5306,0.5611,0.555,0.0,0.0,0.0,0.0,0.0,0.0,0.0,0.0,0.0,0.0,0.0,0.0,0.0,0.0,0.0,0.0,0.0,0.0,0.0,0.0,0.0,0.0,0.0,0.0,1.0767,0.9708,0.0,0.0,0.0,0.0,0.0,0.0,0.0,0.0,0.0,0.0,0.0,0.0,1.0506,1.0992,1.1261,1.1308,1.1204,1.1157,1.1232,1.1422,1.1142,1.0228,0.996,0.9153,0.0,0.0,0.0,0.0,0.0,0.0,0.0,0.0,0.0,0.0,0.0,0.0,0.0,0.0,0.0,0.0,0.0,0.0,0.0,0.0,0.0,0.0,0.0,0.0,0.0,0.0,0.0,0.0,0.0,0.0,0.0,0.0,0.2678,0.2815,0.0,0.0,0.0,0.0,0.0,0.0,0.0,0.0,0.0,0.0,0.0,0.0,0.0,0.3503,0.3419,0.3612,0.3724,0.3747,0.3965,0.4108,0.4192,0.4078,0.4022,0.3984,0.3998,0.0,0.4543,0.5042,0.0,0.0,0.0,0.0,0.0,0.0,0.0,0.0,0.0,0.0,0.0,0.0,0.0,0.0,0.0,0.0,0.0,0.0,0.0,0.0,0.0,0.0,1.0219,0.9581,0.949,0.9393,0.0,0.8885,0.8944,0.8323,0.8023,0.0,0.0,0.0,0.0,0.0,0.0,0.0,0.9868,1.0733,1.1289,1.1084,1.093,1.0999,1.1328,1.1354,1.1297,1.1206,1.0958,1.0358,0.9313,0.8754,0.0,0.0,0.0,0.0,0.0,0.0,0.0,0.0,0.0,0.0,0.0,0.0,0.0,0.0,0.0,0.0,0.0,0.0,0.0,0.0,0.0,0.0,0.0,0.0,0.0,0.0,0.0,0.0,0.0,0.2534,0.281,0.2803,0.3312,0.3474,0.0,0.0,0.0,0.0,0.0,0.0,0.0,0.0,0.0,0.3012,0.3148,0.3147,0.2975,0.3094,0.3103,0.302,0.3142,0.3189,0.3176,0.3113,0.3126,0.3206,0.3309,0.3411,0.3573,0.4447,0.5173,0.5735,0.0,0.0,0.0,0.0,0.6674,0.6494,0.7068,0.7011,0.0,0.6522,0.0,0.0,0.0,0.0,0.0,0.0,0.0,0.0,0.0,0.0,0.9986,0.9735,0.9866,0.9995,0.9715,0.9371,0.885,0.0,0.8158,0.8289,0.7653,0.0,0.0,0.0,0.0,0.0,1.007,1.055,1.092,1.1151,1.0871,1.0824,1.1147,1.1086,1.1092,1.1225,1.1156,1.0934,1.0572,0.9606,0.8793,0.0,0.0,0.0,0.0,0.0,0.0,0.0,0.0,0.0,0.0,0.0,0.0,0.0,0.0,0.0,0.0,0.0,0.0,0.0,0.0,0.0,0.0,0.0,0.0,0.0,0.0,0.0,0.0,0.2493,0.2795,0.2848,0.3325,0.3542,0.0,0.0,0.0,0.0,0.0,0.0,0.2458,0.2855,0.2912,0.2503,0.2705,0.273,0.2544,0.2458,0.2412,0.2417,0.234,0.2313,0.2345,0.2293,0.2358,0.2517,0.2715,0.2834,0.297,0.3873,0.4569,0.5075,0.5212,0.543,0.5745,0.6545,0.6483,0.6113,0.6913,0.6766,0.618,0.599,0.5947,0.5954,0.5974,0.0,0.0,0.0,0.0,0.7728,0.8213,0.8601,0.8933,0.9212,0.94,0.9484,0.9405,0.9,0.8463,0.0,0.8225,0.8323,0.7512,0.0,0.0,0.0,0.0,0.9038,0.9967,1.0043,1.0248,1.0897,1.062,1.0503,1.0797,1.0683,1.069,1.0928,1.099,1.1003,1.0995,1.0021,0.9315,0.8959,0.0,0.0,0.0,0.0,0.0,0.0,0.0,0.0,0.0,0.0,0.0,0.0,0.0,0.0,0.0,0.0,0.0,0.0,0.0,0.0,0.0,0.0,0.0,0.0,0.0,0.0,0.0,0.0,0.0,0.2943,0.3132,0.0,0.0,0.0,0.0,0.2071,0.2054,0.1969,0.1767,0.2071,0.2158,0.1949,0.2019,0.1992,0.185,0.154,0.1662,0.2216,0.1895,0.2,0.248,0.2299,0.2313,0.2494,0.2317,0.2494,0.2938,0.3374,0.3568,0.3691,0.4576,0.5056,0.526,0.5504,0.5642,0.57,0.5569,0.5493,0.5573,0.6324,0.6728,0.6871,0.6554,0.6922,0.0,0.0,0.6636,0.704,0.6641,0.6548,0.6605,0.6746,0.6794,0.6737,0.648,0.6921,0.7668,0.0,0.8094,0.7717,0.8479,0.0,0.8564,0.9247,0.931,0.9182,0.9004,0.8979,0.9261,0.9995,0.9931,0.9982,1.0319,1.0148,1.0178,1.0511,1.0532,1.0416,1.0175,0.9861,0.9226,0.8261,0.7702,0.0,0.0,0.0,0.0,0.0,0.0,0.0,0.0,0.0,0.0,0.0,0.0,0.0,0.0,0.0,0.0,0.0,0.0,0.0,0.0,0.0,0.0,0.0,0.0,0.0,0.0,0.0,0.0,0.2648,0.2756,0.0,0.2509,0.2542,0.2484,0.2275,0.2294,0.2209,0.1969,0.215,0.2077,0.1651,0.1921,0.1961,0.1733,0.1795,0.2006,0.2391,0.2353,0.2437,0.2617,0.2285,0.2084,0.1963,0.1676,0.1676,0.1892,0.2257,0.2866,0.3593,0.3926,0.4108,0.4186,0.4251,0.4423,0.4625,0.4771,0.4824,0.4852,0.5008,0.5323,0.5553,0.5039,0.5597,0.6251,0.5529,0.5846,0.6395,0.6405,0.6464,0.6595,0.6861,0.6929,0.6902,0.6808,0.6609,0.675,0.7693,0.7719,0.7437,0.6978,0.7086,0.7181,0.6981,0.7229,0.7524,0.7772,0.8076,0.8579,0.9403,0.9256,0.92,0.9493,0.9377,0.9658,1.0509,1.0193,1.0267,1.0906,1.005,0.9342,0.886,0.8002,0.7355,0.0,0.0,0.0,0.0,0.0,0.0,0.0,0.0,0.0,0.0,0.0,0.0,0.0,0.0,0.0,0.0,0.0,0.0,0.0,0.0,0.0,0.0,0.0,0.0,0.0,0.0,0.2335,0.2422,0.2398,0.2302,0.2146,0.205,0.2043,0.2153,0.2083,0.203,0.2026,0.2118,0.2037,0.1744,0.1992,0.1992,0.1699,0.1676,0.1666,0.1648,0.1543,0.1509,0.155,0.1283,0.1094,0.0986,0.0971,0.0989,0.1046,0.1271,0.1834,0.2606,0.3151,0.3336,0.3308,0.3391,0.3544,0.3716,0.389,0.4201,0.4477,0.4339,0.4629,0.4959,0.456,0.4932,0.5418,0.5007,0.5254,0.565,0.58,0.5887,0.6023,0.624,0.6294,0.6308,0.6348,0.5982,0.5846,0.6588,0.6983,0.7048,0.6582,0.6719,0.6783,0.6423,0.6559,0.685,0.7254,0.7493,0.7919,0.8685,0.8551,0.855,0.8833,0.9009,0.9328,0.9865,0.9867,1.0022,1.0432,0.9768,0.9245,0.8897,0.8065,0.7543,0.7337,0.0,0.0,0.0,0.0,0.0,0.0,0.0,0.0,0.0,0.0,0.0,0.0,0.0,0.0,0.0,0.0,0.0,0.0,0.0,0.0,0.0,0.0,0.0,0.133,0.1991,0.2389,0.2243,0.2011,0.1878,0.193,0.1372,0.1178,0.1619,0.1302,0.1301,0.182,0.1847,0.1928,0.2116,0.2129,0.1965,0.1638,0.1058,0.0504,-0.0013,-0.0605,-0.081,-0.0685,-0.0698,-0.0614,-0.0405,0.0188,0.0439,0.0439,0.0468,0.0484,0.0659,0.2222,0.2756,0.2677,0.2965,0.3077,0.3077,0.2975,0.3613,0.4477,0.4477,0.4822,0.5242,0.527,0.5097,0.4883,0.4911,0.4911,0.4869,0.4739,0.4705,0.4705,0.4705,0.4705,0.4739,0.4869,0.4897,0.5034,0.5508,0.5932,0.6521,0.7477,0.7555,0.7555,0.7808,0.7513,0.0,0.7448,0.726,0.7314,0.7824,0.7877,0.8006,0.8326,0.9032,0.919,0.8564,0.9475,0.9617,0.8669,0.8976,0.8893,0.8312,0.7941,0.7666,0.7462,0.0,0.0,0.0,0.0,0.0,0.0,0.0,0.0,0.0,0.0,0.0,0.0,0.0,0.0,0.0,0.0,0.0,0.0,0.0,0.0,0.0,0.0,0.1066,0.0913,0.0981,0.0946,0.0666,0.0829,0.0848,0.0574,0.0819,0.0897,0.0628,0.0599,0.0614,0.0662,0.0664,0.0599,0.0469,0.0457,0.037,0.0176,0.0014,-0.0138,-0.0289,-0.0362,-0.0419,-0.0488,-0.0789,-0.0996,-0.1117,-0.1006,-0.0928,-0.0834,-0.035,0.0158,0.0702,0.1244,0.1369,0.1341,0.2041,0.2585,0.303,0.3516,0.3827,0.3987,0.3987,0.4021,0.4152,0.4587,0.467,0.4691,0.5075,0.5117,0.5042,0.5001,0.4918,0.4849,0.4849,0.4849,0.4856,0.4897,0.4897,0.5062,0.5637,0.6068,0.6372,0.6457,0.6794,0.6912,0.6453,0.6615,0.0,0.67,0.7017,0.7271,0.7327,0.7327,0.7359,0.7441,0.8088,0.863,0.8987,0.8926,0.9031,0.9378,0.8863,0.8532,0.8517,0.8789,0.8887,0.0,0.0,0.0,0.0,0.0,0.0,0.0,0.0,0.0,0.0,0.0,0.0,0.0,0.0,0.0,0.0,0.0,0.0,0.0,0.0,0.0,0.0,0.001,0.0076,-0.0143,0.0387,0.0682,0.0366,0.0242,0.0092,-0.0146,0.0035,0.0118,0.0,0.0035,0.0084,0.0112,0.0199,0.0153,-0.0027,-0.0027,-0.0191,-0.0516,-0.0643,-0.0852,-0.116,-0.1215,-0.1285,-0.1369,-0.1602,-0.1793,-0.1928,-0.1694,-0.1566,-0.1499,-0.1105,-0.0692,0.0,0.0,0.0,0.0,0.0,0.1939,0.2245,0.2681,0.2986,0.3169,0.3169,0.3362,0.3667,0.4016,0.4203,0.4353,0.4663,0.4691,0.4629,0.4574,0.4684,0.4822,0.4822,0.5014,0.5193,0.5193,0.5193,0.533,0.5787,0.6068,0.0,0.624,0.6845,0.7195,0.6858,0.6953,0.7061,0.7034,0.7179,0.7271,0.719,0.7139,0.7098,0.71,0.7721,0.0,0.0,0.0,0.9131,0.9558,0.8773,0.0,0.0,0.0,0.0,0.0,0.0,0.0,0.0,1.0565,1.1121,0.0,0.0,0.0,0.0,0.0,0.0,0.0,0.0,0.0,0.0,0.0,0.0,0.0,0.0,0.0,0.0,-0.1079,-0.1312,-0.1373,-0.0048,0.0811,0.0544,-0.0092,-0.0509,-0.0541,-0.0845,-0.0879,-0.0503,-0.0506,-0.0459,-0.0278,0.0,0.0,0.0,0.0,-0.0433,-0.0964,-0.1202,-0.1648,-0.231,-0.2615,-0.2763,-0.2763,-0.2786,-0.279,-0.2752,-0.2161,-0.1886,-0.188,-0.188,-0.1836,-0.1587,0.0073,0.115,0.1732,0.1522,0.1357,0.1266,0.1282,0.0,0.0,0.2259,0.2775,0.3416,0.3489,0.3668,0.3882,0.3952,0.3952,0.391,0.3784,0.4163,0.4574,0.4574,0.5002,0.544,0.5508,0.5508,0.5577,0.5864,0.5959,0.6109,0.6453,0.7246,0.7901,0.8075,0.7876,0.7756,0.7861,0.7567,0.7338,0.7298,0.0,0.0,0.7098,0.7682,0.8063,0.81,0.9096,0.959,0.9441,0.8852,0.8657,0.8895,0.8934,0.9159,0.9563,1.0744,1.1134,1.0775,1.0767,1.1489,0.0,0.0,0.0,0.0,0.0,0.0,0.0,0.0,0.0,0.0,0.0,0.0,0.0,0.0,0.0,-0.142,-0.135,-0.1283,-0.1248,-0.1001,-0.0936,-0.1255,-0.119,-0.1216,-0.1427,-0.1327,-0.1312,-0.15,-0.142,-0.1535,-0.1909,-0.1899,-0.2064,-0.2456,-0.2456,-0.2512,-0.2641,-0.2683,-0.278,-0.2924,0.0,0.0,-0.3193,-0.3292,-0.3344,-0.3329,-0.3212,-0.3086,-0.2997,-0.2997,-0.2642,-0.1977,-0.0777,0.0206,0.0996,0.1464,0.1632,0.1619,0.1727,0.1862,0.197,0.197,0.2084,0.2319,0.2806,0.2987,0.0,0.3615,0.3645,0.3515,0.3485,0.3642,0.382,0.382,0.4066,0.4449,0.4924,0.4946,0.4994,0.5366,0.5741,0.5987,0.5964,0.6764,0.7423,0.7463,0.7689,0.7823,0.7756,0.7676,0.7542,0.7325,0.7271,0.7217,0.7112,0.7464,0.7807,0.8074,0.8996,0.9556,0.9563,0.9498,0.9448,0.9443,1.0114,1.0485,1.0533,1.152,1.2172,1.2522,1.2851,1.286,0.0,0.0,0.0,0.0,0.0,0.0,0.0,0.0,0.0,0.0,0.0,-0.0908,-0.1573,0.0,-0.2037,-0.2481,-0.2464,-0.238,-0.2307,-0.2273,-0.2117,-0.1743,-0.1877,-0.2077,-0.2283,-0.2208,-0.2188,-0.2288,-0.2265,-0.2372,-0.264,-0.2594,-0.2655,-0.2896,-0.2896,-0.2938,-0.3003,-0.3003,-0.303,-0.3105,-0.3171,-0.3194,-0.3199,-0.3266,-0.3304,-0.3309,-0.3376,-0.3357,-0.3304,-0.3304,-0.3039,-0.2566,-0.1733,-0.0947,-0.0256,0.0076,0.0388,0.0661,0.0724,0.0907,0.1129,0.129,0.1372,0.1495,0.1998,0.2243,0.2415,0.2718,0.2734,0.2646,0.2646,0.2915,0.3197,0.3197,0.3795,0.442,0.4645,0.4748,0.4883,0.5144,0.5228,0.5275,0.5336,0.5964,0.6561,0.6899,0.7273,0.7501,0.7503,0.761,0.7649,0.7515,0.7378,0.7271,0.7203,0.7442,0.7669,0.7842,0.8704,0.9239,0.9337,0.9578,0.9724,0.9753,1.0108,1.0274,1.0244,1.1125,1.1701,1.1965,1.2541,1.2929,0.0,0.0,0.0,0.0,0.0,0.0,0.0,-0.0514,-0.0634,-0.0914,-0.1186,-0.1587,-0.2304,-0.2467,-0.2706,-0.3369,-0.3474,-0.3431,-0.335,-0.3335,-0.3024,-0.2181,-0.252,-0.2837,-0.2915,-0.2978,-0.2957,-0.2826,-0.2852,-0.2877,-0.2933,-0.284,-0.2802,-0.2872,-0.2872,-0.2924,-0.303,-0.303,-0.3091,-0.3202,-0.3221,-0.3231,-0.3231,-0.3251,-0.3251,-0.3265,-0.3372,-0.3411,-0.3392,-0.3392,-0.3314,-0.3156,-0.266,-0.2171,-0.1711,-0.1409,-0.0925,-0.0402,-0.0402,-0.0147,0.0217,0.0589,0.0762,0.0877,0.1136,0.139,0.1583,0.1536,0.163,0.1724,0.1646,0.2026,0.2451,0.2528,0.3375,0.4163,0.4163,0.4371,0.4627,0.4861,0.4656,0.4511,0.4725,0.5042,0.5508,0.6236,0.6656,0.6953,0.7141,0.7329,0.7503,0.7649,0.7405,0.7217,0.7217,0.7397,0.7527,0.7617,0.8251,0.8764,0.9061,0.9373,0.962,0.9847,0.9742,0.9683,0.9695,1.034,1.0703,1.0812,1.1405,1.2431,-0.1067,-0.126,-0.1471,-0.154,-0.1594,-0.1664,0.0,0.0,-0.1888,-0.2223,-0.2311,-0.2534,-0.3151,-0.3229,-0.3245,-0.3381,-0.3361,-0.3281,-0.3156,-0.3529,-0.3821,-0.3822,-0.3479,-0.3168,-0.3009,-0.3047,-0.3026,-0.2906,-0.278,-0.2826,-0.3058,-0.3063,-0.3188,-0.3485,-0.3499,-0.3499,-0.3527,-0.3527,-0.3527,-0.3541,-0.3672,-0.372,-0.372,-0.3784,-0.3802,-0.3807,-0.3833,-0.3795,-0.3737,-0.3737,-0.3672,-0.3541,-0.3473,-0.34,-0.318,-0.1809,-0.0925,-0.0402,-0.0402,-0.0371,-0.0244,0.02,0.0437,0.0503,0.0251,0.0317,0.0434,0.0267,0.0682,0.1099,0.0749,0.0882,0.1201,0.1553,0.193,0.2354,0.2875,0.3158,0.349,0.4089,0.4227,0.4241,0.4268,0.4118,0.4332,0.5308,0.5832,0.6253,0.6629,0.6605,0.6794,0.7448,0.7176,0.6947,0.6947,0.7077,0.7309,0.7669,0.7662,0.8058,0.8982,0.8943,0.9124,0.9627,0.9627,0.9614,0.9614,0.9695,0.9992,1.046,1.0531,1.1646,-0.1623,-0.2015,-0.2253,-0.209,-0.2013,-0.2006,-0.2136,-0.2087,-0.2142,-0.263,-0.2672,-0.2724,-0.3103,-0.324,-0.3409,0.0,-0.3919,-0.4035,-0.4135,-0.4274,-0.4409,-0.455,-0.4436,-0.422,-0.3908,-0.3974,-0.3946,-0.3729,-0.392,-0.4136,-0.437,-0.4385,-0.4473,-0.4692,-0.4706,-0.4663,-0.4596,-0.4582,-0.4582,-0.4596,-0.4641,-0.4712,-0.4794,-0.4817,-0.4875,-0.4924,-0.4531,-0.4348,-0.4303,-0.3945,-0.3715,-0.3597,-0.3597,-0.3382,-0.3041,-0.2745,-0.2032,-0.1268,-0.1612,-0.1358,-0.0871,-0.0865,-0.0623,-0.0312,-0.0301,-0.0017,0.0286,0.0202,0.0319,0.042,0.0252,0.03,0.0446,0.0727,0.1178,0.1651,0.2022,0.2283,0.2721,0.3635,0.3544,0.3482,0.399,0.3924,0.389,0.4153,0.4793,0.5328,0.5582,0.6077,0.6592,0.7098,0.7001,0.6866,0.6788,0.6734,0.6761,0.6936,0.7144,0.7465,0.788,0.8475,0.8909,0.9132,0.9445,0.9601,0.9601,0.9601,0.9718,0.9935,1.0015,1.0834,-0.2191,-0.2644,-0.2907,-0.2689,-0.2571,-0.2528,-0.259,-0.2495,-0.249,-0.2857,-0.2884,-0.2875,-0.298,-0.3179,-0.3502,-0.401,-0.4341,-0.4629,-0.4918,-0.4921,-0.4943,-0.5069,-0.5124,-0.5051,-0.4769,-0.4838,-0.4808,-0.46,-0.4925,-0.5177,-0.529,-0.5336,-0.5396,-0.5495,-0.5495,-0.5449,-0.5351,-0.5351,-0.5351,-0.5351,-0.5351,-0.5411,-0.5495,-0.5495,-0.5548,-0.5615,-0.5169,-0.4952,-0.4889,-0.4387,-0.406,-0.3871,-0.3758,-0.3403,-0.3003,-0.3447,-0.2944,-0.2107,-0.2543,-0.2115,-0.1386,-0.1523,-0.1293,-0.0933,-0.0835,-0.0487,-0.0168,-0.0269,-0.0269,-0.0202,-0.0151,-0.0134,-0.0084,0.0168,0.0639,0.1057,0.1208,0.1502,0.1998,0.283,0.2658,0.2647,0.3492,0.3452,0.3292,0.3268,0.3793,0.4332,0.4663,0.5669,0.6399,0.6517,0.6757,0.6825,0.6639,0.653,0.6463,0.6408,0.6656,0.6848,0.6956,0.7692,0.8275,0.8684,0.9071,0.9392,0.9638,0.9638,0.9594,0.9548,0.9642,1.0059,-0.2765,-0.3023,-0.3392,-0.3451,-0.3505,-0.3515,-0.3391,-0.3357,-0.3286,-0.3044,-0.3095,-0.315,-0.3019,-0.3215,-0.3553,-0.4023,-0.4382,-0.4712,-0.5042,-0.5258,-0.5433,-0.5561,-0.5407,-0.532,0.0,-0.5374,-0.5349,-0.5276,-0.5404,-0.5434,-0.5313,-0.5427,-0.5495,-0.5495,-0.5495,-0.5495,-0.5495,-0.5495,-0.5495,-0.5495,-0.5495,-0.5495,-0.5495,-0.5495,-0.5495,-0.551,-0.5623,-0.56,-0.5464,-0.5248,-0.493,-0.4536,-0.4144,-0.3815,-0.3574,-0.3602,-0.3199,-0.2675,-0.27,-0.2295,-0.1721,-0.134,-0.1164,-0.1158,-0.1479,-0.1412,-0.1328,-0.1716,-0.1329,-0.0725,-0.0538,-0.0487,-0.0403,-0.0067,0.0168,0.0337,0.0337,0.0756,0.1198,0.1422,0.1509,0.1796,0.2606,0.236,0.2253,0.2829,0.2942,0.3263,0.4111,0.5382,0.6059,0.5673,0.6405,0.6771,0.6436,0.6585,0.6612,0.6408,0.6164,0.6205,0.6602,0.6399,0.6963,0.8374,0.8428,0.8846,0.9703,0.9703,0.9584,0.9412,0.9412,0.9356,-0.3865,-0.3681,-0.34,-0.3425,-0.3385,-0.3302,-0.3158,-0.31,-0.3084,-0.3129,-0.3169,-0.3244,-0.3379,-0.3793,-0.4186,-0.4336,-0.4728,-0.5068,-0.5275,-0.5364,-0.5446,-0.559,-0.5816,0.0,0.0,0.0,0.0,-0.5569,-0.5973,-0.6264,-0.6357,-0.6533,-0.6692,-0.6819,-0.6835,-0.6772,-0.6628,-0.6628,-0.6633,-0.6638,-0.6764,-0.6831,-0.6827,-0.6827,-0.6827,-0.6811,-0.6408,-0.6197,-0.6133,-0.5614,-0.5315,-0.5164,-0.4809,-0.4614,-0.4497,-0.4276,-0.4121,-0.3954,-0.3462,-0.2905,-0.245,-0.2805,-0.2578,-0.2123,-0.1918,-0.1566,-0.1181,-0.0921,-0.0725,-0.059,-0.0522,-0.0606,-0.064,-0.0387,-0.0388,-0.0371,-0.0152,0.0051,0.0367,0.1068,0.1143,0.1343,0.211,0.2291,0.2456,0.2843,0.2984,0.3285,0.3979,0.4539,0.5062,0.5549,0.5864,0.6105,0.6255,0.6245,0.6205,0.6136,0.5968,0.5927,0.6064,0.6317,0.67,0.7192,0.7588,0.7946,0.8236,0.8236,0.8406,0.8737,0.8831,0.8845,-0.4467,-0.4124,-0.3676,-0.3765,-0.3664,-0.3466,-0.3228,-0.3205,-0.3254,-0.3355,-0.3363,-0.3463,-0.3855,-0.4155,-0.4441,-0.4701,-0.5058,-0.5396,-0.5678,-0.5697,-0.5861,-0.6336,-0.6554,-0.6812,0.0,0.0,0.0,-0.6157,-0.6621,-0.6955,-0.6999,-0.7204,-0.7358,-0.7489,-0.7499,-0.7446,-0.7313,-0.7226,-0.7205,-0.7207,-0.7407,-0.7496,-0.7493,-0.7493,-0.7493,-0.7476,-0.7044,-0.6857,-0.6823,-0.6256,-0.5963,-0.583,-0.5487,-0.5289,-0.5141,-0.4806,-0.477,-0.482,-0.4203,-0.3652,-0.3274,-0.3756,-0.35,-0.2962,-0.2666,-0.2234,-0.1729,-0.1136,-0.0885,-0.0758,-0.064,-0.0708,-0.0775,-0.064,-0.0657,-0.064,-0.0421,-0.027,-0.0033,0.0493,0.0589,0.0789,0.1487,0.2041,0.2441,0.2563,0.284,0.3188,0.3619,0.3987,0.4429,0.5034,0.5399,0.57,0.5968,0.6037,0.6078,0.6078,0.5941,0.5873,0.5873,0.615,0.6465,0.6777,0.7162,0.7519,0.7831,0.7831,0.7925,0.8157,0.836,0.8323,-0.4614,-0.434,-0.4191,-0.4432,-0.4296,-0.4006,-0.3619,-0.3681,-0.381,-0.3743,-0.3699,-0.3828,-0.4396,-0.4307,-0.4386,-0.5093,-0.5396,-0.5735,-0.6309,-0.6334,-0.6678,0.0,0.0,0.0,0.0,0.0,0.0,-0.7076,0.0,-0.7501,-0.7281,-0.7477,-0.7576,-0.7559,-0.7558,-0.7566,-0.7566,-0.7346,-0.7237,-0.7237,-0.7405,-0.7495,-0.7522,-0.7504,-0.7522,-0.7539,-0.7522,-0.7522,-0.7504,-0.7173,-0.6836,-0.6527,-0.6181,-0.5855,-0.5531,-0.52,-0.5194,-0.5301,-0.4906,-0.4506,-0.4141,-0.4141,-0.394,-0.3669,-0.3626,-0.3359,-0.2943,-0.2397,-0.1825,-0.1294,-0.0927,-0.0826,-0.0809,-0.0775,-0.064,-0.0506,-0.0489,-0.0236,-0.0067,-0.0253,-0.0118,0.02,0.0792,0.1592,0.2096,0.2001,0.2481,0.2914,0.3077,0.371,0.4167,0.4194,0.4993,0.5549,0.5591,0.5955,0.6173,0.62,0.6078,0.6014,0.6014,0.5886,0.6202,0.7041,0.7041,0.744,0.8293,0.8267,0.8054,0.7675,0.7984,0.7759,-0.5149,-0.4862,-0.451,-0.4392,-0.4301,-0.4184,-0.3927,-0.4024,-0.4182,-0.4213,-0.4365,-0.4475,-0.4433,-0.4661,-0.4956,-0.5291,-0.577,0.0,-0.7365,-0.7561,0.0,-0.8403,0.0,-0.8497,-0.8682,-0.8839,0.0,0.0,-0.8466,-0.853,-0.8327,-0.85,-0.8551,-0.8396,-0.8386,-0.8399,-0.8399,-0.8042,-0.7869,-0.7869,-0.7472,-0.7426,-0.7714,-0.7568,-0.7733,-0.8161,-0.786,-0.7806,-0.7915,-0.7536,-0.7319,-0.7209,-0.6882,-0.6687,-0.6572,-0.6176,-0.6009,-0.5957,-0.5853,-0.5361,-0.4774,-0.4774,-0.4713,-0.4562,-0.4109,-0.3897,-0.3689,-0.3107,-0.2662,-0.2195,-0.1561,-0.1277,-0.1043,-0.0539,-0.0472,-0.0472,-0.0371,-0.0286,-0.0202,-0.0101,0.005,0.0309,0.0806,0.1089,0.1335,0.1658,0.209,0.2519,0.29,0.3327,0.3716,0.4021,0.436,0.4842,0.5536,0.5686,0.5886,0.6173,0.6159,0.6146,0.6146,0.6119,0.6201,0.6427,0.6234,0.6345,0.6765,0.657,0.6683,0.7106,0.7187,0.7046,-0.5562,-0.5384,-0.5126,-0.4925,-0.4846,-0.4735,-0.4424,-0.451,-0.4613,-0.447,-0.4685,-0.4817,-0.4582,-0.5062,-0.5507,0.0,0.0,0.0,-0.7824,-0.8005,-0.8381,0.0,-0.9246,0.0,-0.9597,-0.964,-0.9609,0.0,-0.9188,-0.8904,-0.8707,-0.8813,-0.8813,-0.8707,-0.8692,-0.8648,-0.8564,-0.8421,-0.8318,-0.8225,-0.7973,-0.7983,-0.8188,-0.8085,-0.8216,-0.8515,0.0,-0.8253,-0.8337,-0.8125,-0.7918,-0.7747,-0.7559,-0.7428,-0.7299,-0.6929,-0.6839,-0.6876,-0.6725,-0.645,-0.6059,-0.5562,-0.5295,-0.5113,-0.4769,-0.4636,-0.444,-0.3786,-0.3494,-0.3247,-0.2609,-0.2345,-0.2094,-0.1395,-0.1277,-0.1228,-0.0825,-0.069,-0.0623,-0.0505,-0.0415,-0.0295,-0.0016,0.0188,0.0397,0.0571,0.1065,0.1572,0.2017,0.2725,0.3272,0.3494,0.3696,0.4022,0.4553,0.4787,0.5075,0.5522,0.5549,0.5618,0.5796,0.5809,0.5809,0.5809,0.5659,0.5659,0.5809,0.575,0.585,0.6114,0.6317,0.6209,-0.585,-0.5832,-0.5818,-0.5668,-0.5575,-0.5409,-0.4973,-0.4981,-0.4997,-0.464,-0.478,-0.4901,-0.4691,-0.5321,-0.5838,-0.5795,0.0,-0.7388,-0.8141,-0.8259,-0.8783,-1.0173,-0.9987,-1.0029,-1.0739,-1.0631,-1.05,-1.0462,-0.9648,-0.9083,-0.8905,-0.8905,-0.8888,-0.887,-0.8855,-0.8785,-0.8608,-0.8723,-0.8684,-0.8513,-0.8608,-0.8684,-0.8742,-0.8723,-0.8742,-0.8818,-0.8761,-0.8761,-0.878,-0.8723,-0.8494,-0.8178,-0.8178,-0.8044,-0.7797,-0.7553,-0.7562,-0.7703,-0.743,-0.7415,-0.7363,-0.6343,-0.5812,-0.5565,-0.5527,-0.5424,-0.521,-0.458,-0.4447,-0.4367,-0.373,-0.3526,-0.3326,-0.2616,-0.2365,-0.2147,-0.1596,-0.1311,-0.116,-0.116,-0.1143,-0.1134,-0.1121,-0.0775,-0.0527,-0.0638,-0.0045,0.0545,0.097,0.2025,0.2752,0.2808,0.3054,0.3234,0.3275,0.3663,0.4105,0.4574,0.467,0.4862,0.5226,0.5281,0.5322,0.5363,0.5295,0.5281,0.5336,0.5454,0.5371,0.5138,0.553,0.5426,-0.5937,-0.605,-0.6064,-0.5818,-0.5717,-0.5589,-0.5283,-0.5157,-0.5063,-0.4948,-0.4819,-0.4689,-0.4488,-0.4801,-0.5348,-0.6146,0.0,0.0,0.0,0.0,-1.0038,0.0,0.0,0.0,0.0,0.0,0.0,0.0,0.0,-0.9984,-0.9947,-0.9947,-0.9873,-0.9705,-0.9691,-0.9667,-0.9633,-0.934,-0.9189,-0.9132,-0.8675,-0.8627,-0.8941,-0.878,-0.897,-0.9425,-0.9103,0.0,-0.917,-0.8837,-0.8665,-0.8589,-0.8589,-0.8369,-0.8063,-0.8172,-0.7868,-0.7407,-0.7511,-0.7354,-0.7044,-0.6683,-0.6526,-0.6419,-0.6145,-0.604,-0.6024,-0.6007,-0.5816,-0.5352,-0.4212,-0.3718,-0.3351,-0.278,-0.2181,-0.1865,-0.2345,-0.1963,-0.1512,-0.1512,-0.1378,-0.1259,-0.1269,-0.1112,-0.0836,-0.0433,0.0062,0.059,0.1094,0.1557,0.1958,0.2279,0.2617,0.2891,0.3118,0.3312,0.3622,0.4091,0.4491,0.478,0.4966,0.5185,0.5432,0.5709,0.522,0.5166,0.5549,0.5193,0.5111,0.527,0.5242,0.5166,-0.5946,-0.6218,-0.6391,-0.6078,-0.6143,-0.6179,-0.5802,-0.5582,-0.538,-0.5063,-0.4979,-0.4769,-0.4146,-0.4879,-0.5652,-0.5887,-0.6589,0.0,0.0,0.0,0.0,0.0,0.0,0.0,0.0,0.0,0.0,0.0,0.0,-1.0255,-1.0048,-1.0048,-0.9992,-0.9898,-0.9898,-0.9898,-0.9898,-0.9709,-0.9606,-0.9606,-0.9311,-0.9273,-0.9463,-0.9368,-0.9482,-0.9747,-0.9558,-0.952,-0.9606,-0.9406,-0.9198,-0.9018,-0.9018,-0.8818,-0.857,-0.8684,-0.8562,-0.8346,-0.8449,-0.8347,-0.807,-0.7275,-0.687,-0.6626,-0.6166,-0.6169,-0.6317,-0.6383,-0.6284,-0.602,-0.5418,-0.4915,-0.4433,-0.3835,-0.2917,-0.2267,-0.2616,-0.2415,-0.2167,-0.2167,-0.21,-0.1999,-0.1884,-0.1813,-0.1681,-0.1436,-0.111,-0.0611,0.017,0.0465,0.0944,0.1801,0.1936,0.2017,0.2153,0.232,0.2599,0.304,0.3378,0.3683,0.3946,0.4319,0.4594,0.4753,0.4712,0.4808,0.5028,0.4877,0.4863,0.4994,0.4987,0.4935,-0.6126,-0.6408,-0.6571,-0.6309,-0.6504,-0.6637,-0.6158,-0.5874,-0.5584,-0.5117,-0.4989,-0.4732,-0.3974,-0.4903,-0.5753,-0.5631,-0.636,-0.7349,0.0,0.0,0.0,0.0,0.0,0.0,0.0,0.0,0.0,0.0,0.0,0.0,-1.0048,-1.003,-0.9992,-0.9898,-0.9898,-0.9898,-0.9898,-0.9898,-0.9898,-0.9898,-0.9898,-0.9898,-0.9898,-0.9898,-0.9898,-0.9898,-0.9898,-0.9898,-0.9898,-0.9898,-0.9709,-0.9435,-0.9435,-0.9273,-0.9065,-0.9112,-0.9179,-0.9246,-0.9284,-0.9303,-0.91,-0.7943,-0.7249,-0.6761,-0.6098,-0.6119,-0.6367,-0.6383,-0.64,-0.6367,-0.6251,-0.5914,-0.5402,-0.4661,-0.3823,-0.3138,-0.287,-0.2803,-0.2803,-0.2803,-0.2787,-0.272,-0.2555,-0.2458,-0.2357,-0.2239,-0.2062,-0.1606,-0.0709,-0.0363,0.0198,0.1197,0.1311,0.1315,0.1305,0.1445,0.167,0.1989,0.2282,0.2575,0.2891,0.335,0.3627,0.3655,0.389,0.4029,0.407,0.407,0.4098,0.4125,0.4178,0.4155,-0.6734,-0.6625,-0.6422,-0.6381,-0.6494,-0.6487,-0.6021,-0.5668,-0.5376,-0.5132,-0.4621,-0.4213,-0.4239,-0.4365,-0.4794,-0.5791,-0.639,-0.7177,-0.8439,0.0,0.0,0.0,0.0,0.0,0.0,0.0,0.0,0.0,0.0,0.0,-1.0481,-1.0443,-1.0274,-0.9916,-0.9898,-0.9898,-0.9898,-0.9898,-0.9898,-0.9898,-0.9898,-0.9898,-0.9898,-0.9898,-0.9898,-0.9898,-0.9898,0.0,0.0,-0.9898,-0.9879,-0.9841,-0.9841,-0.9606,-0.9303,-0.9473,-0.933,-0.9065,-0.9246,-0.9303,-0.9205,-0.8586,-0.7996,-0.7311,-0.6237,-0.6053,-0.6243,-0.6367,-0.64,-0.6284,-0.5798,-0.5633,-0.5335,-0.4311,-0.4472,-0.4556,-0.341,-0.3159,-0.3159,-0.3159,-0.3058,-0.2974,-0.2941,-0.2639,-0.2239,-0.1749,-0.151,-0.1195,-0.0662,-0.016,0.0206,0.0323,0.0971,0.1363,0.1309,0.1319,0.1347,0.1375,0.1919,0.224,0.2282,0.2738,0.304,0.316,0.2674,0.2494,0.2679,0.2272,0.2133,0.2244,0.2069,0.2088,-0.6973,-0.7161,-0.7161,-0.7092,-0.7348,-0.7406,-0.6567,-0.618,-0.5889,-0.5478,-0.4926,-0.4472,-0.433,-0.4492,-0.4869,-0.548,-0.576,-0.6394,-0.7745,0.0,0.0,0.0,0.0,0.0,0.0,0.0,0.0,0.0,0.0,0.0,-1.1236,-1.0987,-1.08,-1.0631,-1.0631,-1.0631,-1.0631,-1.0631,-1.0631,-1.0631,-1.0631,-1.05,-1.0255,-1.0255,-1.0124,-0.9898,-0.9898,0.0,0.0,-0.9898,-0.9898,-0.9898,-0.9898,-0.9803,-0.9682,-0.9747,-0.9671,-0.9558,-0.9633,-0.9663,-0.9545,-0.8893,-0.8572,-0.8302,-0.7529,-0.7222,-0.7159,-0.7126,-0.6913,-0.6597,-0.6185,-0.5848,-0.5418,-0.4655,-0.4406,-0.4173,-0.3673,-0.3309,-0.3075,-0.3075,-0.3108,-0.3092,-0.3008,-0.2874,-0.2656,-0.2318,-0.2085,-0.1774,-0.1274,-0.0909,-0.0556,-0.0206,0.0632,0.1138,0.1057,0.1171,0.1161,0.0955,0.1233,0.1331,0.1121,0.1567,0.1843,0.1896,0.1938,0.2043,0.2198,0.1897,0.1827,0.1997,0.1796,0.1675,-0.7007,-0.7277,-0.7332,-0.728,-0.7595,-0.7702,-0.6837,-0.6452,-0.6133,-0.5616,-0.5073,-0.4584,-0.4269,-0.454,-0.489,-0.5146,-0.5486,-0.6113,-0.7199,-0.7818,0.0,0.0,0.0,0.0,0.0,0.0,0.0,0.0,0.0,0.0,-1.1898,-1.1607,-1.136,-1.1117,-1.1087,-1.1087,-1.1087,-1.1087,-1.1087,-1.1087,-1.1087,-1.0949,-1.0687,-1.0687,-1.0519,-1.0255,-1.0255,-1.0199,0.0,-1.0086,-1.0011,-0.9898,-0.9898,-0.9898,-0.9898,-0.9898,-0.9898,-0.9898,-0.9898,-0.9898,-0.982,-0.9307,-0.919,-0.9214,-0.8887,-0.838,-0.7906,-0.7811,-0.7484,-0.7104,-0.6811,-0.6441,-0.5972,-0.5213,-0.4848,-0.4506,-0.3923,-0.3572,-0.3322,-0.3108,-0.3058,-0.3058,-0.3058,-0.3025,-0.2991,-0.2941,-0.2757,-0.2505,-0.2119,-0.1814,-0.1467,-0.1044,-0.0256,0.0327,0.0585,0.0821,0.0814,0.0492,0.0708,0.0664,0.0274,0.0663,0.085,0.0749,0.0992,0.1162,0.1264,0.1026,0.0977,0.1107,0.1008,0.0918,-0.6904,-0.6755,-0.655,-0.6676,-0.6868,-0.6929,-0.6575,-0.6236,-0.587,-0.5406,-0.4822,-0.4318,-0.405,-0.4335,-0.4673,-0.4874,-0.5788,-0.6614,-0.6954,-0.8157,0.0,0.0,0.0,0.0,0.0,0.0,0.0,0.0,0.0,0.0,-1.2318,-1.2286,-1.1917,-1.1124,-1.1087,-1.1087,-1.1087,-1.1087,-1.1087,-1.1087,-1.1087,-1.1087,-1.1087,-1.1087,-1.1087,-1.1087,0.0,-1.0874,0.0,-1.05,-1.0255,-0.9898,-0.9898,-0.9898,-0.9898,-0.9898,-0.9898,-0.9898,-0.9898,-0.9898,-0.9898,-0.9898,-0.9898,-0.9935,-1.0113,-0.9254,-0.8186,-0.8186,-0.8007,-0.7747,-0.7546,-0.7489,-0.7162,-0.5897,-0.6145,-0.6145,-0.4223,-0.4056,-0.4073,-0.3343,-0.2937,-0.2803,-0.3142,-0.3092,-0.3108,-0.3448,-0.333,-0.3192,-0.3175,-0.272,-0.2382,-0.2382,-0.1893,-0.1163,-0.0171,0.0216,0.0262,-0.0077,0.0401,0.0463,-0.0077,0.0231,0.0247,-0.0077,-0.0339,-0.0478,-0.0478,-0.0802,-0.0973,-0.0957,-0.0827,-0.0672,-0.676,-0.6727,-0.6543,-0.6716,-0.685,-0.6797,-0.6271,-0.6081,-0.5807,-0.5162,-0.4734,-0.4418,-0.4237,-0.4388,-0.4628,-0.4921,-0.5793,-0.6602,-0.7067,0.0,0.0,0.0,0.0,0.0,0.0,0.0,0.0,0.0,0.0,0.0,-1.2115,-1.2102,-1.2046,-1.1917,-1.1917,-1.1917,-1.1917,-1.1917,-1.1917,-1.1917,-1.1917,-1.1774,-1.1496,-1.1496,-1.1347,0.0,0.0,-1.1031,-1.09,-1.09,-1.0837,-1.0687,-1.0425,-1.0312,-1.0274,-0.9992,-0.9898,-0.9898,-0.9898,-0.9898,-0.9898,-0.9898,-0.9898,-0.9916,-0.9973,-0.9609,-0.9109,-0.8819,-0.8285,-0.7819,-0.7894,-0.7702,-0.7391,-0.6999,-0.6301,-0.5576,-0.4964,-0.4256,-0.3677,-0.3448,-0.3426,-0.3489,-0.3594,-0.3572,-0.3589,-0.3694,-0.3527,-0.3414,-0.3414,-0.3142,-0.2941,-0.2941,-0.2586,-0.2032,-0.1257,-0.0635,-0.0425,-0.0756,-0.0154,0.0062,-0.0293,-0.0201,-0.0201,-0.0309,-0.0386,-0.039,-0.0302,-0.0541,-0.0804,-0.1065,-0.1025,-0.0901,-0.6257,-0.6327,-0.6267,-0.6395,-0.6452,-0.6407,-0.6109,-0.5847,-0.5504,-0.4979,-0.4635,-0.4448,-0.4513,-0.4715,-0.5024,-0.5453,-0.634,-0.7109,-0.7484,0.0,0.0,0.0,0.0,0.0,0.0,0.0,0.0,0.0,0.0,0.0,-1.2211,-1.1987,-1.1954,-1.2065,-1.2231,-1.2305,-1.2305,-1.2305,-1.2305,-1.2305,-1.2305,-1.2176,-1.1922,-1.1922,-1.1787,0.0,-1.1552,-1.1471,0.0,-1.1329,-1.1236,-1.108,-1.0807,-1.0743,-1.0706,-1.0443,-1.0255,-1.0124,-1.0124,-1.003,-0.9898,-0.9898,-0.9898,-0.9898,-0.9898,-0.982,-0.964,-0.9314,-0.8932,-0.8568,-0.8429,-0.8276,-0.8039,-0.7606,-0.699,-0.6285,-0.547,-0.4832,-0.4239,-0.3711,-0.3594,-0.3627,-0.3773,-0.3806,-0.3844,-0.3978,-0.3883,-0.3799,-0.3799,-0.3699,-0.361,-0.361,-0.3426,-0.3131,-0.2716,-0.1748,-0.1201,-0.1275,-0.0733,-0.0415,-0.0431,-0.0383,-0.0383,-0.0431,-0.0431,-0.0467,-0.0541,-0.0787,-0.1008,-0.1176,-0.1176,-0.1076,0.0,-0.5652,-0.5747,-0.5758,-0.5758,-0.5811,-0.6001,-0.5563,0.0,-0.4823,-0.4529,-0.4452,-0.4874,-0.5281,-0.5752,-0.6381,-0.7302,-0.8009,-0.815,-0.9109,0.0,0.0,0.0,0.0,0.0,0.0,0.0,0.0,0.0,0.0,-1.2576,-1.2054,-1.1757,-1.1757,-1.2078,-1.2268,-1.2286,-1.2286,-1.2305,-1.2305,-1.2305,-1.2286,-1.2286,-1.2286,-1.2286,0.0,-1.2286,-1.2102,-1.175,-1.175,-1.1515,-1.118,-1.1143,-1.1155,-1.1155,-1.1117,-1.0874,-1.0537,-1.0537,-1.0293,-0.9992,-0.9992,-0.9954,-0.9935,-0.9935,-0.9916,-0.9855,-0.9695,-0.9776,-0.9763,-0.9137,-0.9107,-0.898,-0.7897,-0.8066,-0.7926,-0.5938,-0.5692,-0.5477,-0.4156,-0.356,-0.3393,-0.3778,-0.3839,-0.3944,-0.425,-0.43,-0.43,-0.43,-0.43,-0.43,-0.43,-0.43,-0.43,-0.43,-0.3004,-0.2047,-0.1731,-0.1328,-0.0926,-0.0556,-0.0388,-0.0371,-0.0506,-0.0522,-0.0724,-0.1109,-0.1445,-0.1529,-0.1344,-0.1344,-0.1277,-0.5043,0.0,-0.5222,-0.5371,-0.5371,-0.5353,0.0,-0.5333,-0.5103,-0.4601,-0.4513,-0.4711,-0.5329,-0.5724,-0.6227,-0.7043,-0.7917,-0.8593,-0.883,0.0,0.0,0.0,0.0,0.0,0.0,0.0,0.0,0.0,0.0,-1.3541,-1.3067,-1.2569,-1.2297,-1.2304,-1.2014,-1.1917,-1.2065,-1.2231,-1.2305,-1.2305,-1.2305,-1.2231,-1.2083,-1.2231,-1.2231,-1.2083,-1.2231,-1.2249,-1.2157,-1.2157,-1.2102,-1.1991,-1.1694,-1.1564,-1.1515,-1.1198,-1.1031,-1.0968,-1.0968,-1.0912,-1.0807,-1.0807,-1.0612,-1.0368,-1.0368,-1.0143,-0.9925,-1.002,-0.9989,-0.9859,-0.9701,-0.9658,-0.9564,-0.9135,-0.8599,-0.8052,-0.7556,-0.6389,-0.5345,-0.5014,-0.4456,-0.4066,-0.4167,-0.4183,-0.4217,-0.4284,-0.43,-0.43,-0.43,-0.43,-0.43,-0.43,-0.43,-0.43,-0.43,-0.3472,-0.2917,-0.2833,-0.1745,-0.1059,-0.0958,-0.0639,-0.0471,-0.0504,-0.0807,-0.1008,-0.1109,-0.1598,-0.18,-0.1766,-0.1766,-0.1834,-0.4952,-0.519,-0.5479,-0.5593,-0.5519,-0.5436,-0.5463,-0.5171,-0.4868,-0.4786,-0.4824,-0.5177,-0.6204,-0.652,-0.6935,-0.7777,-0.8592,-0.9397,0.0,0.0,0.0,0.0,0.0,0.0,0.0,0.0,0.0,0.0,0.0,-1.3865,-1.3567,-1.2895,-1.2497,-1.2491,-1.1978,-1.1737,-1.1861,-1.2065,-1.2157,-1.2157,-1.2268,-1.2194,-1.2009,-1.212,-1.2065,-1.1867,-1.1991,-1.2028,-1.2028,-1.2028,-1.2028,-1.2009,-1.1898,-1.183,-1.1824,-1.17,-1.1527,-1.1385,-1.1477,-1.1385,-1.1236,-1.1236,-1.1087,-1.0912,-1.08,-1.0687,-1.0519,-1.0161,-1.0054,-1.0007,-0.9805,-0.981,-0.9765,-0.9442,-0.904,-0.8531,-0.7718,-0.7207,-0.6678,-0.5874,-0.5654,-0.547,-0.5133,-0.4898,-0.4661,-0.435,-0.43,-0.4334,-0.4428,-0.435,-0.4334,-0.4434,-0.4428,-0.4461,-0.4534,-0.4239,-0.3901,-0.3497,-0.2813,-0.2312,-0.2078,-0.1941,-0.1709,-0.1376,-0.1344,-0.1378,-0.1462,-0.1918,-0.2136,-0.2136,-0.222,-0.2318,-0.5141,-0.5659,-0.6148,-0.5975,-0.5831,-0.5749,-0.5815,-0.5182,-0.4736,-0.5196,-0.5369,-0.5821,-0.7114,-0.7461,0.0,-0.859,-0.9365,0.0,0.0,0.0,0.0,0.0,0.0,0.0,0.0,0.0,0.0,0.0,0.0,-1.4206,-1.4165,-1.3272,-1.2763,-1.2725,-1.2207,-1.1952,-1.1952,-1.1974,-1.2028,-1.2065,-1.2231,-1.2194,-1.2009,-1.2028,-1.1954,-1.1737,0.0,0.0,-1.1787,-1.1768,-1.1768,-1.1811,-1.1954,-1.2009,-1.2028,-1.2194,-1.2028,-1.1731,-1.1972,-1.183,-1.1601,-1.162,-1.1601,-1.1496,-1.1329,-1.1347,-1.1267,-1.0387,-1.0237,-1.0248,-0.9808,-0.9882,-0.9972,-0.951,-0.9504,-0.92,-0.7717,-0.8018,-0.8123,-0.6633,-0.6586,-0.6563,-0.5886,-0.5444,-0.4973,-0.4384,-0.43,-0.44,-0.4645,-0.4528,-0.4511,-0.4728,-0.4778,-0.4827,-0.4911,-0.511,-0.4931,-0.4245,-0.4112,-0.3863,-0.3388,-0.3542,-0.3343,-0.2733,-0.2298,-0.215,-0.2301,-0.2639,-0.2807,-0.2824,-0.2987,-0.3084,-0.5781,-0.646,-0.679,-0.5812,-0.5767,-0.594,-0.5901,-0.5686,-0.5538,-0.5673,-0.611,-0.6683,-0.7426,-0.8201,-0.8946,0.0,0.0,0.0,0.0,0.0,0.0,0.0,0.0,0.0,0.0,0.0,0.0,0.0,0.0,-1.5101,-1.4956,-1.4355,-1.3958,-1.3776,-1.3299,-1.3053,-1.3053,-1.2351,-1.2102,-1.2249,-1.2286,-1.2194,-1.2009,-1.2176,-1.2139,-1.1972,0.0,-1.2212,-1.2194,-1.2028,-1.2065,-1.2194,-1.2065,-1.2009,-1.2009,-1.2028,-1.1885,-1.1737,-1.2139,-1.2323,-1.2434,-1.2599,-1.2434,-1.2157,-1.2139,-1.1885,-1.1601,-1.1267,-1.1068,-1.0825,-1.0267,-1.0517,-1.0804,-1.0404,-1.019,-1.0024,-0.9742,-0.8507,-0.7362,-0.7105,-0.6119,-0.5199,-0.4798,-0.4677,-0.4546,-0.4333,-0.43,-0.4484,-0.4954,-0.4987,-0.5103,-0.5418,-0.5607,-0.564,-0.5484,-0.5657,-0.5839,-0.598,-0.5008,-0.4345,-0.414,-0.4157,-0.4174,-0.4179,-0.4262,-0.4245,-0.4096,-0.4494,-0.4693,-0.4693,-0.4726,-0.4793,-0.5606,-0.6291,-0.6767,-0.6315,-0.6615,-0.7015,-0.6982,-0.6658,-0.6446,-0.6807,-0.7099,-0.7536,-0.8325,0.0,0.0,0.0,0.0,0.0,0.0,0.0,0.0,0.0,0.0,0.0,0.0,0.0,0.0,0.0,0.0,0.0,-1.5277,-1.4748,-1.4421,-1.4319,-1.3766,-1.3502,-1.3634,-1.3113,-1.2782,-1.2564,-1.2677,-1.247,-1.2009,-1.2102,-1.2028,-1.183,0.0,-1.1991,-1.1972,-1.188,-1.1898,-1.1991,-1.1991,-1.2009,-1.2009,-1.212,-1.2176,-1.2212,-1.2397,-1.2526,-1.2618,-1.2709,-1.2599,-1.2434,-1.2342,-1.2249,-1.2102,-1.1694,-1.1422,-1.1173,-1.08,-1.0956,-1.118,-1.0893,-1.0836,-1.0697,-1.0151,-0.9812,-0.9507,-0.9059,-0.8434,-0.7789,-0.7246,-0.6606,-0.5992,-0.5416,-0.5328,-0.5396,-0.5607,-0.5583,-0.5617,-0.5848,-0.608,-0.6136,-0.5888,-0.6147,-0.6396,-0.6556,-0.6079,-0.5824,-0.5866,-0.5421,-0.5223,-0.5355,-0.4998,-0.4809,-0.4826,-0.5008,-0.5163,-0.5258,-0.5376,-0.5508,-0.556,-0.6183,-0.6805,-0.7057,-0.7439,-0.7806,-0.8024,-0.7602,-0.733,-0.7911,-0.8128,-0.8379,0.0,0.0,0.0,0.0,0.0,0.0,0.0,0.0,0.0,0.0,0.0,0.0,0.0,0.0,0.0,0.0,0.0,0.0,-1.5306,-1.4915,-1.4732,-1.4825,-1.4243,-1.4055,-1.4284,-1.4055,-1.3566,-1.286,-1.3032,-1.2736,-1.2065,-1.2065,-1.1991,-1.183,-1.183,-1.183,-1.183,-1.1787,-1.1806,-1.1861,-1.1972,-1.2009,-1.2009,-1.212,-1.2286,-1.247,-1.2507,-1.2562,-1.2599,-1.2654,-1.2673,-1.2636,-1.2489,-1.2544,-1.2562,-1.2065,-1.1806,-1.1589,-1.1267,-1.1322,-1.1422,-1.1217,-1.1304,-1.118,-1.0421,-1.0832,-1.118,-1.054,-1.0273,-0.9944,-0.9296,-0.8258,-0.7291,-0.6584,-0.6318,-0.6237,-0.6361,-0.6286,-0.6303,-0.6479,-0.6728,-0.6787,-0.6596,-0.6848,-0.7018,-0.7032,-0.7038,-0.711,-0.7269,-0.6638,-0.6301,-0.6359,-0.5741,-0.5508,-0.5659,-0.5709,-0.5839,-0.6033,-0.6196,-0.6351,-0.6247,-0.6781,-0.7315,-0.7932,-0.7725,-0.755,-0.836,-0.8227,-0.8078,-0.8611,-0.9069,-0.9261,0.0,0.0,0.0,0.0,0.0,0.0,0.0,0.0,0.0,0.0,0.0,0.0,0.0,0.0,0.0,0.0,0.0,0.0,-1.5028,-1.4994,-1.515,-1.5508,-1.513,-1.51,-1.5458,-1.508,-1.4301,-1.307,-1.3089,-1.2806,-1.2286,-1.2286,-1.2268,-1.2268,-1.2268,-1.2268,-1.2249,-1.2065,-1.2102,-1.2249,-1.2065,-1.2009,-1.1991,-1.1811,-1.1867,-1.2065,-1.2268,-1.2434,-1.2636,-1.282,-1.2874,-1.2874,-1.2856,-1.2856,-1.282,-1.2599,-1.2526,-1.2342,-1.157,-1.1527,-1.1626,-1.1422,-1.1385,-1.1378,-1.131,-1.0757,-1.029,-1.0233,-0.9629,-0.8984,-0.863,-0.7878,-0.7315,-0.7309,-0.6689,-0.6439,-0.7124,-0.7204,-0.7319,-0.7654,-0.7858,-0.7981,-0.7962,-0.7981,-0.7999,-0.7997,-0.7656,-0.7472,-0.7482,-0.7423,-0.7293,-0.7122,-0.7244,-0.7303,-0.7333,-0.7521,-0.7698,-0.791,-0.791,-0.7937,-0.595,-0.6592,-0.7242,-0.7659,-0.7962,-0.8358,-0.9066,-0.9436,-0.9735,-1.0162,-1.0537,-1.0683,-1.0292,0.0,0.0,0.0,0.0,0.0,0.0,0.0,0.0,0.0,0.0,0.0,0.0,0.0,0.0,0.0,0.0,0.0,-1.5006,-1.5006,-1.5067,-1.5208,-1.5087,-1.5067,-1.5243,-1.5087,-1.4613,-1.3847,-1.3847,-1.3561,-1.3039,-1.2783,-1.2673,-1.2654,-1.2415,-1.2305,-1.2286,-1.2231,-1.2231,-1.2286,-1.2231,-1.2194,-1.2176,-1.2102,-1.212,-1.2212,-1.2268,-1.236,-1.2434,-1.2507,-1.2526,-1.2526,-1.2526,-1.2526,-1.2507,-1.2434,-1.2415,-1.2342,-1.2046,-1.212,-1.2212,-1.2009,-1.1972,-1.1972,-1.1972,-1.1329,-1.0807,-1.0919,-0.9989,-0.9299,-0.9673,-0.8665,-0.7936,-0.8333,-0.7707,-0.7247,-0.7415,-0.7433,-0.7468,-0.7593,-0.7539,-0.7548,-0.7717,-0.7879,-0.7988,-0.7988,-0.7902,-0.7877,-0.7861,-0.7878,-0.7826,-0.7758,-0.7826,-0.7864,-0.7879,-0.7949,-0.8088,-0.8278,-0.8278,-0.8344,-0.5933,-0.6643,-0.7375,-0.755,-0.8152,-0.8894,-0.9602,-1.0203,-1.0697,-1.1034,-1.1253,-1.1461,-1.1722,0.0,0.0,0.0,0.0,0.0,0.0,0.0,0.0,0.0,0.0,0.0,0.0,0.0,0.0,0.0,0.0,0.0,0.0,-1.4876,-1.4923,-1.5065,-1.4938,-1.4923,-1.5065,-1.4938,-1.4697,-1.4374,-1.4374,-1.4084,-1.3492,-1.3218,-1.309,-1.3072,-1.2801,-1.2673,-1.2673,-1.2673,-1.2599,-1.2489,-1.2489,-1.2415,-1.2305,-1.2305,-1.2305,-1.2305,-1.2305,-1.2305,-1.2305,-1.2305,-1.2305,-1.2305,-1.2305,-1.2305,-1.2305,-1.2305,-1.2305,-1.2305,-1.2305,-1.2397,-1.247,-1.2342,-1.2305,-1.2305,-1.2305,-1.1867,-1.1515,-1.1663,-1.0694,-1.0045,-1.0589,-0.9358,-0.8448,-0.8932,-0.8328,-0.7781,-0.7706,-0.7688,-0.7706,-0.7743,-0.7555,-0.7482,-0.7681,-0.7857,-0.8023,-0.8153,-0.8171,-0.814,-0.8097,-0.8097,-0.8097,-0.8097,-0.8097,-0.8135,-0.8202,-0.8202,-0.827,-0.8403,-0.8403,-0.844,-0.6394,-0.7095,-0.7803,-0.7817,-0.8266,-0.8963,-0.9897,-1.0365,-1.0711,-1.1048,-1.1017,-1.1389,-1.2917,-1.2755,0.0,0.0,0.0,0.0,0.0,0.0,0.0,0.0,0.0,0.0,0.0,0.0,0.0,0.0,0.0,0.0,0.0,-1.4597,-1.4771,-1.5192,-1.4805,-1.479,-1.5192,-1.4805,-1.4597,-1.4597,-1.4597,-1.4235,-1.351,-1.351,-1.351,-1.351,-1.3492,-1.3492,-1.3492,-1.3492,-1.3273,-1.2911,-1.2911,-1.2654,-1.2305,-1.2305,-1.2305,-1.2305,-1.2305,-1.2305,-1.2305,-1.2305,-1.2305,-1.2305,-1.2305,-1.2305,-1.2305,-1.2305,-1.2305,-1.2305,-1.2305,-1.2305,-1.2305,-1.2305,-1.2305,-1.2305,-1.2305,-1.2286,-1.2286,-1.2286,-1.1626,-1.1087,-1.1087,-0.9755,-0.878,-0.896,-0.8312,-0.7861,-0.8063,-0.8102,-0.814,-0.8284,-0.8178,-0.8102,-0.8102,-0.8102,-0.8274,-0.8665,-0.8437,-0.8235,-0.8099,-0.8097,-0.8097,-0.8097,-0.8097,-0.8211,-0.8401,-0.8401,-0.8403,-0.8399,-0.8399,-0.8312,-0.6445,-0.7186,-0.8117,-0.8538,-0.9524,-1.051,-1.0916,-1.0971,-1.1294,-1.2536,-1.2608,-1.2661,-1.3355,-1.3164,0.0,0.0,0.0,0.0,0.0,0.0,0.0,0.0,0.0,0.0,0.0,0.0,0.0,0.0,0.0,0.0,0.0,-1.4597,-1.466,-1.4756,-1.466,-1.466,-1.479,-1.466,-1.4597,-1.4597,-1.4597,-1.4489,-1.4271,-1.4036,-1.3912,-1.3909,-1.3619,-1.3492,-1.3492,-1.3492,-1.3437,-1.3328,-1.3328,-1.3255,-1.3145,-1.3145,-1.2948,-1.2709,-1.2709,-1.2544,-1.2305,-1.2305,-1.2305,-1.2305,-1.2305,-1.2305,-1.2305,-1.2305,-1.2305,-1.2305,-1.2305,-1.2305,-1.2305,-1.2305,-1.2305,-1.2305,-1.2305,-1.1861,-1.1459,-1.1459,-1.0807,-1.0252,-1.0252,-0.9396,-0.8723,-0.878,-0.8093,-0.7622,-0.768,-0.768,-0.7691,-0.7729,-0.7691,-0.768,-0.768,-0.768,-0.7729,-0.7844,-0.8044,-0.8182,-0.8244,-0.8281,-0.8319,-0.8319,-0.844,-0.8552,-0.8609,-0.875,-0.8827,-0.8827,-0.8961,-0.8999,-0.7065,-0.792,-0.8848,-0.9362,-1.0321,-1.127,-1.1764,-1.1889,-1.2266,-1.3648,-1.3592,-1.3489,-1.411,-1.3838,0.0,0.0,0.0,0.0,0.0,0.0,0.0,0.0,0.0,0.0,0.0,0.0,0.0,0.0,0.0,0.0,0.0,-1.4597,-1.4597,-1.4597,-1.4597,-1.4597,-1.4597,-1.4597,-1.4597,-1.4597,-1.4597,-1.4597,-1.4579,-1.4382,-1.4292,-1.4292,-1.4054,-1.3946,-1.3946,-1.3946,-1.3873,-1.3746,-1.3746,-1.3637,-1.3492,-1.3492,-1.3346,-1.3145,-1.3145,-1.2966,-1.2746,-1.2599,-1.2544,-1.2507,-1.236,-1.2305,-1.2305,-1.2305,-1.2305,-1.2305,-1.2305,-1.2305,-1.2305,-1.2305,-1.2305,-1.2305,-1.2305,-1.1663,-1.1087,-1.1087,-1.0439,-0.9895,-0.9895,-0.9244,-0.8742,-0.8837,-0.8093,-0.7499,-0.7499,-0.7499,-0.7499,-0.7499,-0.7499,-0.7499,-0.7499,-0.7499,-0.7499,-0.7499,-0.7738,-0.791,-0.7978,-0.8169,-0.8399,-0.8665,-0.8799,-0.8894,-0.8932,-0.9056,-0.9075,-0.8999,-0.9122,-0.9141,-0.7968,-0.8979,-0.9823,-1.0195,-1.0855,-1.1673,-1.2576,-1.3019,-1.3494,-1.4364,0.0,-1.4003,-1.4961,-1.4642,0.0,0.0,0.0,0.0,0.0,0.0,0.0,0.0,0.0,0.0,0.0,0.0,0.0,0.0,0.0,0.0,-1.4597,-1.4597,-1.4597,-1.4597,-1.4597,-1.4597,-1.4597,-1.4597,-1.4597,-1.4597,-1.4597,-1.4597,-1.4597,-1.4597,-1.4597,-1.4597,-1.4597,-1.4597,-1.4597,-1.4597,-1.4418,-1.4147,-1.4147,-1.3912,-1.3601,-1.3601,-1.3583,-1.3546,-1.3546,-1.3528,-1.3437,-1.3072,-1.2948,-1.2893,-1.2526,-1.2415,-1.2397,-1.236,-1.236,-1.236,-1.2305,-1.2305,-1.2305,-1.2305,-1.2305,-1.2305,-1.2305,-1.1731,-1.1143,-1.0956,-1.0327,-0.982,-0.9801,-0.9207,-0.878,-0.8932,-0.8131,-0.7499,-0.7499,-0.7499,-0.7499,-0.7499,-0.7499,-0.7499,-0.7499,-0.7499,-0.7499,-0.7499,-0.7499,-0.7557,-0.771,-0.7929,-0.8331,-0.8951,-0.9084,-0.9198,-0.9322,-0.9322,-0.9236,-0.9055,-0.9074,-0.8979,-0.7813,-0.8904,-1.0166,-1.0764,-1.1996,-1.3276,-1.3991,-1.4232,-1.4263,-1.4225,-1.4299,-1.4464,-1.4705,0.0,0.0,0.0,0.0,0.0,0.0,0.0,0.0,0.0,0.0,0.0,0.0,0.0,0.0,0.0,0.0,0.0,-1.4597,-1.4597,-1.4597,-1.4597,-1.4597,-1.4597,-1.4597,-1.4597,-1.4597,-1.4597,-1.4597,-1.4597,-1.4597,-1.4597,-1.4597,-1.4597,-1.4597,-1.4597,-1.4597,-1.4597,-1.4559,-1.4489,-1.4489,-1.4436,-1.4361,-1.4361,-1.4201,-1.3967,-1.3967,-1.3764,-1.3492,-1.3401,-1.3364,-1.3346,-1.3273,-1.3236,-1.3181,-1.2856,-1.2764,-1.2691,-1.2378,-1.2305,-1.2305,-1.2305,-1.2305,-1.2305,-1.2305,-1.2157,-1.1533,-0.9849,-0.9387,-0.9207,-0.8998,-0.8989,-0.8742,-0.7959,-0.7653,-0.7499,-0.7499,-0.7499,-0.7499,-0.7499,-0.7499,-0.7499,-0.7499,-0.7499,-0.7499,-0.7499,-0.7499,-0.8074,-0.933,-0.8246,-0.7691,-0.7844,-0.8875,-0.9425,-0.9463,-0.9511,-0.9511,-0.9463,-0.9633,-0.969,-0.8037,-0.9242,-1.0575,-1.1962,-1.2948,-1.3792,-1.4439,-1.4597,-1.4543,-1.4382,-1.4471,-1.4597,0.0,0.0,0.0,0.0,0.0,0.0,0.0,0.0,0.0,0.0,0.0,0.0,0.0,0.0,0.0,0.0,0.0,-1.4597,-1.4597,-1.4597,-1.4597,-1.4597,-1.4597,-1.4597,-1.4597,-1.4597,-1.4597,-1.4597,-1.4597,-1.4597,-1.4597,-1.4597,-1.4597,-1.4597,-1.4597,-1.4597,-1.4597,-1.4597,-1.4597,-1.4597,-1.4597,-1.4597,-1.4597,-1.4597,-1.4489,-1.4346,-1.4346,-1.4201,-1.4,-1.3837,-1.3801,-1.3764,-1.3564,-1.3492,-1.3455,-1.3255,-1.3076,-1.2948,-1.2746,-1.2489,-1.2305,-1.2305,-1.2305,-1.2305,-1.2305,-1.2305,-1.1959,-1.0844,-0.9396,-0.8284,-0.815,-0.9528,-0.9914,-0.7825,-0.7499,-0.7499,-0.7499,-0.7499,-0.7499,-0.7499,-0.7499,-0.7499,-0.7499,-0.7499,-0.7825,-0.8608,-0.8646,-0.9027,-0.986,-0.9103,-0.8646,-0.8646,-0.933,-0.969,-0.969,-0.9728,-0.9747,-0.9747,-0.9841,-0.9898,-0.8164,-0.9521,-1.0922,-1.2933,-1.3506,-1.3759,-1.4359,-1.4565,-1.4597,-1.4597,-1.4597,0.0,0.0,0.0,0.0,0.0,0.0,0.0,0.0,0.0,0.0,0.0,0.0,0.0,0.0,0.0,0.0,0.0,0.0,-1.4597,-1.4597,-1.4597,-1.4597,-1.4597,-1.4597,-1.4597,-1.4597,-1.4597,-1.4597,-1.4597,-1.4597,-1.4597,-1.4597,-1.4597,-1.4597,-1.4597,-1.4597,-1.4597,-1.4597,-1.4597,-1.4597,-1.4597,-1.4597,-1.4597,-1.4597,-1.4597,-1.4597,-1.4597,-1.4597,-1.4597,-1.4543,-1.4274,-1.4183,-1.4111,-1.3801,-1.3692,-1.3674,-1.3583,-1.3419,-1.3204,-1.3021,-1.2636,-1.2378,-1.2636,-1.2489,-1.2305,-1.2305,-1.2305,-1.2305,-1.2305,-0.9707,-0.7499,-0.7499,-0.9707,-1.0571,-0.7902,-0.7499,-0.7499,-0.7499,-0.7499,-0.7499,-0.7499,-0.7499,-0.7614,-0.7882,-0.7921,-0.8494,-0.9822,-0.9898,-0.9898,-0.9898,-0.9898,-0.9898,-0.9898,-0.9898,-0.9898,-0.9898,-0.9898,-0.9898,-0.9898,-0.9898,-0.9898,-0.7433,-0.9058,-1.0921,-1.2359,-1.3172,-1.3712,0.0,0.0,-1.4597,0.0,0.0,0.0,0.0,0.0,0.0,0.0,0.0,0.0,0.0,0.0,0.0,0.0,0.0,0.0,0.0,0.0,0.0,0.0,-1.4597,-1.4597,-1.4597,-1.4597,-1.4597,-1.4597,-1.4597,-1.4597,-1.4597,-1.4597,-1.4597,-1.4597,-1.4597,-1.4597,-1.4597,-1.4597,-1.4597,-1.4597,-1.4597,-1.4597,-1.4597,-1.4597,-1.4597,-1.4597,-1.4597,-1.4597,-1.4597,-1.4597,-1.4597,-1.4597,-1.4597,-1.4597,-1.4579,-1.4543,-1.4525,-1.4507,-1.4469,-1.4451,-1.4364,-1.3964,-1.3822,-1.3586,-1.2654,-1.236,-1.2636,-1.3985,-1.3277,-1.2305,-1.2305,-1.2305,-1.2305,-1.2305,-0.9707,-0.7499,-0.7499,-0.7863,-0.7997,-0.7557,-0.7499,-0.7499,-0.7499,-0.7499,-0.7499,-0.7499,-0.7499,-0.8055,-0.9463,-0.9576,-0.9671,-0.9879,-0.9898,-0.9898,-0.9898,-0.9898,-0.9898,-0.9898,-0.9898,-0.9898,-0.9898,-0.9898,-0.9898,-0.9898,-0.9898,-0.9898,-0.8117,-0.9481,-1.0756,-1.2318,-1.2931,-1.3268,-1.3729,-1.4162,-1.4452,0.0,0.0,0.0,0.0,0.0,0.0,0.0,0.0,0.0,0.0,0.0,0.0,0.0,0.0,0.0,0.0,0.0,0.0,0.0,-1.4597,-1.4597,-1.4597,-1.4597,-1.4597,-1.4597,-1.4597,-1.4597,-1.4597,-1.4597,-1.4597,-1.4597,-1.4597,-1.4597,-1.4597,-1.4597,-1.4597,-1.4597,-1.4597,-1.4597,-1.4597,-1.4597,-1.4597,-1.4597,-1.4597,-1.4597,-1.4597,-1.4597,-1.4597,-1.4629,-1.4853,-1.4951,-1.4982,-1.5157,-1.5094,-1.4932,-1.4977,-1.4819,-1.4559,-1.4346,-1.4292,-1.4183,-1.3713,-1.3586,-1.3768,-1.4436,-1.4402,-1.4089,-1.3678,-1.2911,-1.2562,-1.3422,-1.0286,-0.7499,-0.7499,-0.7499,-0.7499,-0.7499,-0.7499,-0.7499,-0.7499,-0.8284,-0.8856,-0.8856,-0.8856,-0.9141,-0.9841,-0.9898,-0.9898,-0.9898,-0.9898,-0.9898,-0.9898,-0.9898,-0.9898,-0.9898,-0.9898,-0.9898,-0.9898,-0.9898,-0.9898,-0.9898,-0.9898,-0.9898,-0.8305,-0.9403,-1.0217,-1.1784,-1.2403,-1.2762,0.0,0.0,-1.4208,0.0,0.0,0.0,0.0,0.0,0.0,0.0,0.0,0.0,0.0,0.0,0.0,0.0,0.0,0.0,0.0,0.0,0.0,0.0,-1.4597,-1.4597,-1.4597,-1.4597,-1.4597,-1.4597,-1.4597,-1.4597,-1.4597,-1.4597,-1.4597,-1.4597,-1.4597,-1.4597,-1.4597,-1.4597,-1.4597,-1.4597,-1.4597,-1.4597,-1.4597,-1.4597,-1.4597,-1.4597,-1.4597,-1.4597,-1.4597,-1.4597,-1.466,-1.479,-1.4982,-1.5125,-1.5284,-1.5605,-1.5526,-1.5284,-1.5168,-1.4882,-1.4597,-1.4597,-1.4597,-1.4597,-1.4597,-1.4867,-1.5136,-1.5136,-1.5551,-1.5486,-1.3767,-1.3135,-1.3222,-1.4382,-1.1736,-0.9054,-0.8246,-0.8112,-0.8112,-0.8112,-0.8112,-0.8202,-0.8444,-0.9517,-1.0263,-1.0263,-1.0048,-0.9898,-0.9898,-0.9898,-0.9898,-0.9898,-0.9898,-0.9898,-0.9898,-1.0105,-1.0105,-0.9898,-0.9898,-0.9898,-0.9898,-0.9898,-0.9898,-0.9898,-0.9898,-0.9898,-0.7024,-0.8076,-0.9127,-1.0178,-1.1285,-1.2302,0.0,0.0,0.0,0.0,0.0,0.0,0.0,0.0,0.0,0.0,0.0,0.0,0.0,0.0,0.0,0.0,0.0,0.0,0.0,0.0,0.0,0.0,-1.4597,-1.4597,-1.4597,-1.4597,-1.4597,-1.4597,-1.4597,-1.4597,-1.4597,-1.4597,-1.4597,-1.4597,-1.4597,-1.4597,-1.4597,-1.4597,-1.4597,-1.4597,-1.4597,-1.4597,-1.4597,-1.4597,-1.4597,-1.4597,-1.4597,-1.4597,-1.4597,-1.4597,-1.4837,-1.5128,-1.4758,-1.493,-1.5342,-1.5602,-1.5685,-1.5542,-1.4853,-1.4629,-1.4597,-1.4597,-1.4597,-1.4597,-1.4597,-1.5596,-1.6578,-1.6578,-1.661,-1.5443,-1.1094,-1.2425,-1.4489,-1.4579,-1.44,-1.3284,-1.0282,-0.9765,-0.9765,-0.9765,-0.9765,-1.0094,-1.0985,-1.1187,-1.123,-1.123,-1.0426,-0.9898,-0.9898,-0.9898,-0.9898,-0.9898,-0.9898,-0.9898,-0.9898,-1.0631,-1.0687,-0.9916,-0.9898,-0.9898,-0.9898,-0.9898,-0.9898,-0.9898,-0.9898,-0.9898,-0.6819,-0.7819,-0.8832,-0.9809,-1.0596,-1.1275,-1.185,0.0,0.0,0.0,0.0,0.0,0.0,0.0,0.0,0.0,0.0,0.0,0.0,0.0,0.0,0.0,0.0,0.0,0.0,0.0,0.0,0.0,0.0,-1.4991,-1.4991,-1.4991,-1.4991,-1.4991,-1.4991,-1.4991,-1.4991,-1.4864,-1.4792,-1.4792,-1.4667,-1.4597,-1.4597,-1.4597,-1.4667,-1.4792,-1.4792,-1.4721,-1.4597,-1.4597,-1.4597,-1.4597,-1.4597,-1.4597,-1.4629,-1.4885,-1.5078,-1.5255,-1.5539,-1.5694,-1.5802,-1.6202,-1.6329,-1.6297,-1.6043,-1.531,-1.4787,-1.5691,-1.5944,-1.5944,-1.5944,-1.4615,-1.3718,-1.5622,-1.6376,-1.6261,-1.4614,-1.3333,-1.2465,-1.2465,-1.2465,-1.2131,-1.0996,-1.0801,-1.0801,-1.0801,-1.0801,-1.0919,-1.1262,-1.1305,-1.1305,-1.1305,-1.1005,-1.0801,-1.0801,-1.1346,-1.1448,-1.0842,-1.0801,-1.0763,-1.0673,-1.0949,-1.0968,-1.0687,-1.0669,-1.0425,-0.9898,-1.0425,-1.0669,-1.0669,-1.0669,-1.0669,-0.641,0.0,0.0,0.0,0.0,-1.0393,-1.1316,0.0,0.0,0.0,0.0,0.0,0.0,0.0,0.0,0.0,0.0,0.0,0.0,0.0,0.0,0.0,0.0,0.0,0.0,0.0,0.0,0.0,-1.5204,0.0,-1.5204,-1.5204,-1.5204,-1.5204,-1.5204,-1.5204,-1.5204,-1.5078,-1.5007,-1.5007,-1.4866,-1.4794,-1.4794,-1.4794,-1.4866,-1.5007,-1.5007,-1.4935,-1.4794,-1.4739,-1.4703,-1.4703,-1.4631,-1.4649,-1.4735,-1.5157,-1.5402,-1.5616,-1.6007,-1.617,-1.6297,-1.6594,-1.6689,-1.6689,-1.6689,-1.6039,-1.55,-1.6436,-1.6914,-1.7139,-1.7139,-1.4231,-1.1935,-1.4517,-1.5938,-1.6689,-1.6689,-1.3852,-1.1305,-1.1305,-1.1305,-1.1305,-1.1305,-1.1305,-1.1305,-1.1305,-1.1305,-1.1305,-1.1305,-1.1305,-1.1305,-1.1305,-1.1305,-1.1435,-1.1725,-1.2347,-1.2433,-1.1811,-1.1768,-1.1729,-1.1633,-1.1648,-1.1479,-1.1117,-1.1087,-1.0837,-1.0293,-1.0837,-1.1087,-1.1087,-1.1087,-1.1087,0.0,0.0,0.0,0.0,0.0,0.0,0.0,0.0,0.0,0.0,0.0,0.0,0.0,0.0,0.0,0.0,0.0,0.0,0.0,0.0,0.0,0.0,0.0,0.0,0.0,0.0,0.0,-1.5222,-1.5222,-1.5222,-1.5222,-1.5222,-1.5222,-1.5222,-1.5222,-1.5222,-1.5222,-1.5204,-1.5204,-1.5204,-1.5204,-1.5204,-1.5204,-1.5204,-1.5204,-1.5204,-1.5204,-1.5204,-1.5204,-1.4989,-1.49,-1.4882,-1.4703,-1.4739,-1.4982,-1.5377,-1.5863,-1.6283,-1.6104,-1.6349,-1.671,-1.671,-1.673,-1.673,-1.673,-1.673,-1.673,-1.673,-1.7343,-1.7991,-1.7991,-1.4761,-1.1919,-1.3556,-1.5311,-1.6587,-1.6587,-1.381,-1.1327,-1.1327,-1.1327,-1.1305,-1.1327,-1.1327,-1.1327,-1.1327,-1.1327,-1.1327,-1.1327,-1.1327,-1.1327,-1.1327,-1.1327,-1.1704,-1.2625,-1.2699,-1.2699,-1.2699,-1.2699,-1.2699,-1.2699,-1.2699,-1.2216,-1.1159,-1.1154,-1.1123,-1.1087,-1.1087,-1.1087,-1.1087,-1.1087,-1.1087,-0.552,0.0,0.0,0.0,0.0,0.0,0.0,0.0,0.0,0.0,0.0,0.0,0.0,0.0,0.0,0.0,0.0,0.0,0.0,0.0,0.0,0.0,0.0,0.0,0.0,0.0,0.0,0.0,-1.5629,-1.5629,-1.5629,-1.5629,-1.5629,-1.5629,-1.5629,-1.5629,-1.5629,-1.5487,-1.5434,-1.5434,-1.5275,-1.5204,-1.5204,-1.5204,-1.5275,-1.5434,-1.5434,-1.5505,-1.5611,-1.5258,-1.5115,-1.5098,-1.5062,-1.5243,-1.5593,-1.5955,-1.6355,-1.6759,-1.695,-1.7041,-1.7074,-1.7074,-1.7322,-1.7627,-1.7627,-1.7627,-1.7627,-1.7627,-1.7809,-1.7991,-1.7991,-1.7082,-1.5613,-1.3556,-1.3442,-1.3823,-1.3823,-1.3018,-1.2305,-1.2305,-1.1747,-1.1521,-1.2198,-1.2305,-1.2305,-1.2305,-1.2305,-1.2305,-1.2305,-1.2305,-1.2305,-1.2305,-1.2305,-1.2433,-1.2689,-1.2699,-1.2699,-1.2699,-1.2699,-1.2699,-1.2699,-1.2699,-1.2566,-1.2264,-1.2264,-1.1878,-1.1087,-1.1087,-1.1087,-1.1087,-1.1087,-1.1087,0.0,0.0,0.0,0.0,0.0,0.0,0.0,-0.9998,0.0,0.0,0.0,0.0,0.0,0.0,0.0,0.0,0.0,0.0,0.0,0.0,0.0,0.0,0.0,0.0,0.0,-1.5544,-1.5718,-1.5982,-1.5894,-1.5805,-1.5805,-1.5805,-1.5805,-1.5805,-1.5805,-1.5805,-1.5805,-1.5682,-1.5629,-1.5611,-1.5505,-1.5452,-1.5452,-1.5452,-1.5505,-1.5629,-1.5629,-1.5682,-1.5788,-1.5558,-1.54,-1.5311,-1.524,-1.539,-1.5746,-1.6225,-1.6635,-1.6963,-1.7383,-1.7465,-1.7404,-1.738,-1.7542,-1.7769,-1.7951,-1.7991,-1.7688,-1.6206,-1.6862,-1.7991,-1.7991,-1.7991,-1.7102,-1.3535,-1.2699,-1.2699,-1.2699,-1.2699,-1.2699,-1.2699,-1.2262,-1.2069,-1.2613,-1.2699,-1.2699,-1.2699,-1.2699,-1.2699,-1.2699,-1.2699,-1.2699,-1.2699,-1.2699,-1.2699,-1.2699,-1.2699,-1.2699,-1.2699,-1.2699,-1.2699,-1.2699,-1.2699,-1.2699,-1.2699,-1.2699,-1.2397,-1.1769,-1.1335,-1.1087,-1.1099,-1.1564,-1.1769,-0.6669,-0.7356,0.0,0.0,0.0,0.0,-1.0314,-1.028,-1.0337,0.0,0.0,0.0,0.0,0.0,0.0,0.0,0.0,0.0,0.0,0.0,0.0,0.0,0.0,0.0,-1.5138,-1.5463,-1.5791,-1.6105,-1.5878,-1.5737,-1.5737,-1.5771,-1.5805,-1.5805,-1.5805,-1.5805,-1.5805,-1.5805,-1.5805,-1.5805,-1.5805,-1.5805,-1.5805,-1.5805,-1.5805,-1.5805,-1.5805,-1.5805,-1.5805,-1.5805,-1.5682,-1.5523,-1.5329,-1.5398,-1.5658,-1.6383,-1.6765,-1.7034,-1.7556,-1.7671,-1.757,-1.7526,-1.7465,-1.7526,-1.789,-1.785,-1.7021,-1.3641,-1.497,-1.7408,-1.7408,-1.7408,-1.6617,-1.3451,-1.2699,-1.2699,-1.2699,-1.2699,-1.2699,-1.2699,-1.2699,-1.2699,-1.2699,-1.2699,-1.2699,-1.2699,-1.2699,-1.2699,-1.2699,-1.2699,-1.2699,-1.2699,-1.2699,-1.2699,-1.2699,-1.2699,-1.2699,-1.2699,-1.2699,-1.2699,-1.2699,-1.2699,-1.2699,-1.2699,-1.2699,-1.2699,-1.2699,-1.1737,-1.1286,-1.131,-1.2264,-1.2699,-0.685,-0.722,-0.7819,-0.8224,0.0,0.0,-0.9397,-0.9606,-0.9826,0.0,0.0,0.0,0.0,0.0,0.0,0.0,0.0,0.0,0.0,0.0,0.0,0.0,0.0,0.0,-1.4794,-1.488,-1.4931,-1.5014,-1.5206,-1.5326,-1.5326,-1.5617,-1.5805,-1.5805,-1.5805,-1.5805,-1.5805,-1.5805,-1.5805,-1.5805,-1.5805,-1.5805,-1.5805,-1.5805,-1.5805,-1.5805,-1.5805,-1.5805,-1.5805,-1.5805,-1.5788,-1.5752,-1.57,-1.5869,-1.6212,-1.6672,-1.7068,-1.7452,-1.7817,-1.7468,-1.6882,-1.6882,-1.7326,-1.789,-1.7971,-1.7021,-1.5456,-1.3315,-1.3209,-1.3725,-1.3725,-1.3725,-1.3556,-1.2869,-1.2699,-1.2699,-1.2699,-1.2699,-1.2699,-1.2699,-1.2699,-1.2699,-1.2699,-1.2699,-1.2699,-1.2699,-1.2699,-1.2699,-1.2699,-1.2699,-1.2699,-1.2699,-1.2699,-1.2699,-1.2699,-1.2699,-1.2699,-1.2699,-1.2699,-1.2699,-1.2699,-1.2699,-1.2699,-1.2699,-1.2699,-1.2699,-1.2699,-1.2493,-1.2397,-1.2397,-1.2602,-1.2699,0.0,-0.7695,-0.8222,-0.8369,0.0,0.0,0.0,0.0,-0.9914,-1.0359,0.0,0.0,0.0,0.0,0.0,0.0,0.0,0.0,0.0,0.0,0.0,0.0,0.0,0.0,-1.4093,-1.4453,-1.4709,-1.4709,-1.5012,-1.5133,-1.4966,-1.5309,-1.5514,-1.5514,-1.5703,-1.5805,-1.5805,-1.5805,-1.5805,-1.5805,-1.5805,-1.5805,-1.5805,-1.5805,-1.5805,-1.5805,-1.5805,-1.5805,-1.5805,-1.5805,-1.5805,-1.5805,-1.5805,-1.589,-1.6096,-1.6453,-1.6867,-1.7244,-1.762,-1.7299,-1.6698,-1.6698,-1.6494,-1.637,-1.698,-1.5711,-1.3865,-1.2954,-1.2699,-1.2699,-1.2699,-1.2699,-1.2699,-1.2699,-1.2699,-1.2699,-1.2699,-1.2699,-1.2699,-1.2699,-1.2699,-1.2699,-1.2699,-1.2699,-1.2699,-1.2699,-1.2699,-1.2699,-1.2699,-1.2699,-1.2699,-1.2699,-1.2699,-1.2699,-1.2699,-1.2699,-1.2699,-1.2699,-1.2699,-1.2699,-1.2699,-1.2699,-1.2699,-1.2699,-1.2699,-1.2699,-1.2699,-1.2699,-1.2699,-1.2699,-1.2699,-1.2699,0.0,0.0,0.0,0.0,0.0,-0.9368,0.0,0.0,0.0,-1.0764,0.0,0.0,0.0,0.0,0.0,0.0,0.0,0.0,0.0,0.0,0.0,0.0,0.0,0.0,-1.3391,-1.3968,-1.4362,-1.4469,-1.4705,-1.4786,-1.4685,-1.5084,-1.5359,-1.541,-1.5809,-1.6,-1.6,-1.5929,-1.5911,-1.5911,-1.5841,-1.5805,-1.5805,-1.5805,-1.5788,-1.5752,-1.5752,-1.5735,-1.5682,-1.5682,-1.5682,-1.5682,-1.577,-1.57,-1.5644,-1.6127,-1.6483,-1.678,-1.731,-1.705,-1.6453,-1.6453,-1.5566,-1.4713,-1.5794,-1.4775,-1.3145,-1.2805,-1.2699,-1.2699,-1.2699,-1.2699,-1.2699,-1.2699,-1.2699,-1.2699,-1.2699,-1.2699,-1.2699,-1.2699,-1.2699,-1.2699,-1.2699,-1.2699,-1.2699,-1.2699,-1.2699,-1.2699,-1.2699,-1.2699,-1.2699,-1.2699,-1.2699,-1.2699,-1.2699,-1.2699,-1.2699,-1.2699,-1.2699,-1.2699,-1.2699,-1.2699,-1.2699,-1.2699,-1.2699,-1.2699,-1.2699,-1.2699,-1.2699,-1.2699,-1.2699,-1.2699,0.0,0.0,0.0,0.0,-0.9553,0.0,0.0,0.0,-0.9625,-0.9546,0.0,0.0,0.0,0.0,0.0,0.0,0.0,0.0,0.0,0.0,0.0,0.0,0.0,0.0,-1.3029,-1.298,-1.3133,-1.3596,-1.3563,-1.3832,-1.4566,-1.5325,-1.5867,-1.6171,-1.6569,-1.6787,-1.6787,-1.6421,-1.6246,-1.6246,-1.5929,-1.5805,-1.5805,-1.5805,-1.57,-1.5541,-1.5541,-1.5417,-1.5275,-1.5275,-1.5275,-1.5293,-1.5647,-1.5346,-1.4864,-1.5981,-1.6186,-1.6078,-1.7135,-1.6633,-1.556,-1.556,-1.5067,-1.4629,-1.5311,-1.5311,-1.4768,-1.3145,-1.2699,-1.2699,-1.2699,-1.2699,-1.2699,-1.2699,-1.2699,-1.2699,-1.2699,-1.2699,-1.2699,-1.2699,-1.2699,-1.2699,-1.2699,-1.2699,-1.2699,-1.2699,-1.2699,-1.2699,-1.2699,-1.2699,-1.2699,-1.2699,-1.2699,-1.2699,-1.2699,-1.2699,-1.2699,-1.2699,-1.2699,-1.2699,-1.2699,-1.2699,-1.2699,-1.2699,-1.2699,-1.2699,-1.2699,-1.2699,-1.2699,-1.2699,-1.2699,-1.2699,0.0,0.0,0.0,0.0,0.0,0.0,-0.9113,0.0,-0.9205,0.0,0.0,0.0,0.0,0.0,0.0,0.0,0.0,0.0,0.0,0.0,0.0,0.0,0.0,0.0,-1.2487,-1.2391,-1.2446,-1.284,-1.3035,-1.3347,-1.3883,-1.5067,-1.5805,-1.5955,-1.6578,-1.6908,-1.6908,-1.6735,-1.6648,-1.6648,-1.6508,-1.6438,-1.6438,-1.6438,-1.6333,-1.614,-1.614,-1.6017,-1.5824,-1.5629,-1.5558,-1.5541,-1.5487,-1.5026,-1.4489,-1.5135,-1.5208,-1.5064,-1.5533,-1.5217,-1.4503,-1.4013,-1.3675,-1.3493,-1.376,-1.3844,-1.3675,-1.2912,-1.2699,-1.2699,-1.2699,-1.2699,-1.2699,-1.2699,-1.2699,-1.2699,-1.2699,-1.2699,-1.2699,-1.2699,-1.2699,-1.2699,-1.2699,-1.2699,-1.2699,-1.2699,-1.2699,-1.2699,-1.2699,-1.2699,-1.2699,-1.2699,-1.2699,-1.2699,-1.2699,-1.2699,-1.2699,-1.2699,-1.2699,-1.2699,-1.2699,-1.2699,-1.2699,-1.2699,-1.2699,-1.2699,-1.2699,-1.2699,-1.2699,-1.2699,-1.2699,-1.2699,-0.9092,0.0,0.0,0.0,0.0,0.0,0.0,0.0,0.0,0.0,0.0,0.0,0.0,0.0,0.0,0.0,0.0,0.0,0.0,0.0,0.0,0.0,0.0,0.0,0.0,-1.1881,-1.1948,-1.2374,-1.2538,-1.2892,-1.35,-1.4742,-1.557,-1.5888,-1.6544,-1.697,-1.7115,-1.703,-1.7012,-1.7064,-1.696,-1.6874,-1.6821,-1.6821,-1.6629,-1.6298,-1.6175,-1.5982,-1.5665,-1.5328,-1.5167,-1.5148,-1.498,-1.4506,-1.3979,-1.4416,-1.4328,-1.4053,-1.425,-1.4123,-1.3704,-1.2954,-1.2699,-1.2699,-1.2699,-1.2699,-1.2699,-1.2699,-1.2699,-1.2699,-1.2699,-1.2699,-1.2699,-1.2699,-1.2699,-1.2699,-1.2699,-1.2699,-1.2699,-1.2699,-1.2699,-1.2699,-1.2699,-1.2699,-1.2699,-1.2699,-1.2699,-1.2699,-1.2699,-1.2699,-1.2699,-1.2699,-1.2699,-1.2699,-1.2699,-1.2699,-1.2699,-1.2699,-1.2699,-1.2699,-1.2699,-1.2699,-1.2699,-1.2699,-1.2699,-1.2699,-1.2699,-1.2699,-1.2699,-1.2699,-1.2699,-1.2699,0.0,0.0,0.0,-0.8963,0.0,0.0,0.0,0.0,-0.8731,0.0,0.0,0.0,0.0,0.0,0.0,-0.9275,0.0,0.0,0.0,0.0,0.0,0.0,0.0,0.0,0.0,-1.1382,-1.1548,0.0,-1.1926,-1.2301,-1.3791,-1.4418,-1.5238,-1.6348,-1.6728,-1.7147,-1.7662,-1.7356,-1.7287,-1.7478,-1.7081,-1.6786,-1.6612,-1.6612,-1.6228,-1.5523,-1.5117,-1.4653,-1.4147,-1.3746,-1.3564,-1.3612,-1.4056,-1.3742,-1.3156,-1.4066,-1.3841,-1.3159,-1.3858,-1.3816,-1.3345,-1.2869,-1.2699,-1.2699,-1.2699,-1.2699,-1.2699,-1.2699,-1.2699,-1.2699,-1.2699,-1.2699,-1.2699,-1.2699,-1.2699,-1.2699,-1.2699,-1.2699,-1.2699,-1.2699,-1.2699,-1.2699,-1.2699,-1.2699,-1.2699,-1.2699,-1.2699,-1.2699,-1.2699,-1.2699,-1.2699,-1.2699,-1.2699,-1.2699,-1.2699,-1.2699,-1.2699,-1.2699,-1.2699,-1.2699,-1.2699,-1.2699,-1.2699,-1.2699,-1.2699,-1.2699,-1.2699,-1.2699,-1.2699,-1.2699,-1.2699,-1.2699,0.0,0.0,-1.0224,-0.9595,0.0,0.0,0.0,0.0,0.0,0.0,0.0,0.0,0.0,0.0,0.0,-0.9031,0.0,0.0,0.0,0.0,0.0,0.0,0.0,0.0,0.0,0.0,0.0,0.0,-1.1785,0.0,-1.3199,-1.4288,-1.5211,-1.5853,-1.6525,-1.7094,-1.7564,-1.7545,-1.7579,-1.763,-1.7632,-1.7409,-1.7011,-1.7011,-1.6437,-1.5471,-1.5065,-1.4583,-1.3991,-1.3371,-1.3175,-1.3318,-1.3525,-1.3322,-1.2987,-1.3387,-1.3107,-1.2564,-1.2673,-1.269,-1.2625,-1.2326,-1.2454,-1.2571,-1.1962,-1.1768,-1.1768,-1.1768,-1.1768,-1.1768,-1.1768,-1.1768,-1.1768,-1.1768,-1.1768,-1.1768,-1.1768,-1.1768,-1.1768,-1.1768,-1.1768,-1.1768,-1.1768,-1.2283,-1.2699,-1.2699,-1.2699,-1.2699,-1.2699,-1.2699,-1.2699,-1.2699,-1.2699,-1.2699,-1.2699,-1.2699,-1.2699,-1.2699,-1.2699,-1.2699,-1.2699,-1.2699,-1.2699,-1.2699,-1.2699,-1.2699,-1.2699,-1.2699,-1.2699,-1.2699,-1.2699,-1.2699,-1.0491,-1.0474,0.0,-0.9945,-0.9648,0.0,-0.8856,0.0,0.0,0.0,0.0,0.0,0.0,0.0,0.0,0.0,-0.8336,0.0,0.0,0.0,0.0,0.0,0.0,0.0,0.0,0.0,-1.0562,-1.1189,-1.141,0.0,0.0,-1.3912,-1.4837,-1.5475,-1.6139,-1.6793,-1.7495,-1.7598,-1.7681,-1.7801,-1.7596,-1.7425,-1.7287,-1.6646,-1.6018,-1.5365,-1.4691,-1.4101,-1.3571,-1.3065,-1.284,-1.2841,-1.3089,-1.2994,-1.2721,-1.3099,-1.289,-1.2398,-1.2097,-1.2123,-1.2231,-1.1866,-1.1973,-1.209,-1.1478,-1.1305,-1.1305,-1.1305,-1.1305,-1.1305,-1.1305,-1.1305,-1.1305,-1.1305,-1.1305,-1.1305,-1.1305,-1.1305,-1.1305,-1.1305,-1.1305,-1.1305,-1.1305,-1.179,-1.2326,-1.2647,-1.2699,-1.2699,-1.2699,-1.2699,-1.2699,-1.2699,-1.2699,-1.2561,-1.224,-1.2519,-1.2699,-1.2699,-1.239,-1.2198,-1.2198,-1.2198,-1.2369,-1.2677,-1.2699,-1.2699,-1.2699,-1.2699,-1.2699,-1.2699,-1.2699,-1.2699]},{"header":{"parameterUnit":"m.s-1","parameterCategory":1,"la1":30.6,"la2":29.2853,"lo1":-89.7004,"lo2":-87.6739,"dy":0.0162,"dx":0.0183,"nx":112,"ny":82,"refTime":"2024-06-19T12:00:00:Z","depth":0,"parameterNumber":3,"parameterNumberName":"V-component_of_WINDS"},"data":[0.0,0.0,0.0,0.0,0.0,0.0,0.0,0.0,0.0,0.0,0.0,0.0,0.0,0.0,0.0,0.0,0.0,0.0,0.0,0.0,0.0,0.0,0.0,0.0,0.0,0.0,0.0,0.0,0.0,0.0,0.0,0.0,0.0,0.0,0.0,0.0,0.0,0.0,0.0,0.0,0.0,0.0,0.0,0.0,0.0,0.0,0.0,0.0,0.0,0.0,0.0,0.0,0.0,0.0,0.0,0.0,0.0,0.0,0.0,0.0,0.0,0.0,0.0,0.0,0.0,0.0,0.0,0.0,0.0,0.0,0.0,0.0,0.0,0.0,0.0,0.0,0.0,0.0,0.0,0.0,0.0,0.0,0.0,0.0,0.0,0.0,0.0,0.0,0.0,0.0,0.0,1.2526,1.4615,1.6352,1.7576,1.6342,1.4269,1.144,0.0,0.0,0.0,0.0,0.0,0.0,0.0,0.0,0.0,0.0,0.0,0.0,0.0,0.0,0.0,0.0,0.0,0.0,0.0,0.0,0.0,0.0,0.0,0.0,0.0,0.0,0.0,0.0,0.0,0.0,0.0,0.0,0.0,0.0,0.0,0.0,0.0,0.0,0.0,0.0,0.0,0.0,0.0,0.0,0.0,0.0,0.0,0.0,0.0,0.0,0.0,0.0,0.0,0.0,0.0,0.0,0.0,0.0,0.0,0.0,0.0,0.0,0.0,0.0,0.0,0.0,0.0,0.0,0.0,0.0,0.0,0.0,0.0,0.0,0.0,0.0,0.0,0.0,0.0,0.0,0.0,0.0,0.0,0.0,0.0,0.0,0.0,0.0,0.0,0.0,0.0,0.0,0.0,0.0,0.0,0.0,0.0,0.0,0.0,0.0,0.0,0.0,0.0,0.0,1.2165,1.6133,1.631,1.6518,1.7443,1.6793,1.5075,1.2131,0.0,0.0,0.0,0.0,0.0,0.0,0.0,0.0,0.0,0.0,0.0,0.0,0.0,0.0,0.0,0.0,0.0,0.0,0.0,0.0,0.0,0.0,0.0,0.0,0.0,0.0,0.0,0.0,0.0,0.0,0.0,0.0,0.0,0.0,0.0,0.0,0.0,0.0,0.0,0.0,0.0,0.0,0.0,0.0,0.0,0.0,0.0,0.0,0.0,0.0,0.0,0.0,0.0,0.0,0.0,0.0,0.0,0.0,0.0,0.0,0.0,0.0,0.0,0.0,0.0,0.0,0.0,0.0,0.0,0.0,0.0,0.0,0.0,0.0,0.0,0.0,0.0,0.0,0.0,0.0,0.0,0.0,0.0,0.0,0.0,0.0,0.0,0.0,0.0,0.0,0.0,0.0,0.0,0.0,0.0,0.0,0.0,0.0,0.0,0.0,0.0,0.0,0.0,1.1668,1.3793,1.7787,1.7413,1.7217,1.7983,1.7266,1.5441,1.236,1.0923,0.0,0.0,0.0,0.0,0.0,0.0,0.0,0.0,0.0,0.0,0.0,0.0,0.0,0.0,0.0,0.0,0.0,0.0,0.0,0.0,0.0,0.0,0.0,0.0,0.0,0.0,0.0,0.0,0.0,0.0,0.0,0.0,0.0,0.0,0.0,0.0,0.0,0.0,0.0,0.0,0.0,0.0,0.0,0.0,0.0,0.0,0.0,0.0,0.0,0.0,0.0,0.0,0.0,0.0,0.0,0.0,0.0,0.0,0.0,0.0,0.0,0.0,0.0,0.0,0.0,0.0,0.0,0.0,0.0,0.0,0.0,0.0,0.0,0.0,0.0,0.0,0.0,0.0,0.0,0.0,0.0,0.0,0.0,0.0,0.0,0.0,0.0,0.0,0.0,0.0,0.0,0.0,0.0,0.0,0.0,0.0,0.0,0.0,0.0,0.0,0.0,0.0,1.3906,1.5318,1.8506,1.8092,1.7776,1.8301,1.7334,1.5451,1.2435,1.106,0.0,0.0,0.0,0.0,0.0,0.0,0.0,0.0,0.0,0.0,0.0,0.0,0.0,0.0,0.0,0.0,0.0,0.0,0.0,0.0,0.0,0.0,0.0,0.0,0.0,0.0,0.0,0.0,0.0,0.0,0.0,0.0,0.0,0.0,0.0,0.0,0.0,0.0,0.0,0.0,0.0,0.0,0.0,0.0,0.0,0.0,0.0,0.0,0.0,0.0,0.0,0.0,0.0,0.0,0.0,0.0,0.0,0.0,0.0,0.0,0.0,0.0,0.0,0.0,0.0,0.0,0.0,0.0,0.0,0.0,0.0,0.0,0.0,0.0,0.0,0.0,0.0,0.0,0.0,0.0,0.0,0.0,0.0,0.0,0.0,0.0,0.0,0.0,0.0,0.0,0.0,0.0,0.0,0.0,0.0,0.0,0.0,0.0,0.0,0.0,0.0,0.0,1.4614,1.6647,1.8493,1.8147,1.7804,1.7842,1.6655,1.4883,1.2526,1.0501,0.0,0.0,0.0,0.0,0.0,0.0,0.0,0.0,0.0,0.0,0.0,0.0,0.0,0.0,0.0,0.0,0.0,0.0,0.0,0.0,0.0,0.0,0.0,0.0,0.0,0.0,0.0,0.0,0.0,0.0,0.0,0.0,0.0,0.0,0.0,0.0,0.0,0.0,0.0,0.0,0.0,0.0,0.0,0.0,0.0,0.0,0.0,0.0,0.0,0.0,0.0,0.0,0.0,0.0,0.0,0.0,0.0,0.0,0.0,0.0,0.0,0.0,0.0,0.0,0.0,0.0,0.0,0.0,0.0,0.0,0.0,0.0,0.0,0.0,0.0,0.0,0.0,0.0,0.0,0.0,0.0,0.0,0.0,0.0,0.0,0.0,0.0,0.0,0.0,0.0,0.0,0.0,0.0,0.0,0.0,0.0,0.0,0.0,0.0,0.0,0.0,0.0,1.497,1.6782,0.0,1.9128,1.8779,1.8557,1.7707,1.5918,1.3016,0.0,0.0,0.0,0.0,0.0,0.0,0.0,0.0,0.0,0.0,0.0,0.0,0.0,0.0,0.0,0.0,0.0,0.0,0.0,0.0,0.0,0.0,0.0,0.0,0.0,0.0,0.0,0.0,0.0,0.0,0.0,0.0,0.0,0.0,0.0,0.0,0.0,0.0,0.0,0.0,0.0,0.0,0.0,0.0,0.0,0.0,0.0,0.0,0.0,0.0,0.0,0.0,0.0,0.0,0.0,0.0,0.0,0.0,0.0,0.0,0.0,0.0,0.0,0.0,0.0,0.0,0.0,0.0,0.0,0.0,0.0,0.0,0.0,0.0,0.0,0.0,0.0,0.0,0.0,0.0,0.0,0.0,0.0,0.0,0.0,0.0,0.0,0.0,0.0,0.0,0.0,0.0,0.0,0.0,0.0,0.0,0.0,0.0,0.0,0.0,0.0,0.0,1.3745,1.5529,1.7448,0.0,1.9851,1.9563,1.9335,1.8109,1.6124,1.3279,0.0,0.0,0.0,0.0,0.0,0.0,0.0,0.0,0.0,0.0,0.0,0.0,0.0,0.0,0.0,0.0,0.0,0.0,0.0,0.0,0.0,0.0,0.0,0.0,0.0,0.0,0.0,0.0,0.0,0.0,0.0,0.0,0.0,0.0,0.0,0.0,0.0,0.0,0.0,0.0,0.0,0.0,0.0,0.0,0.0,0.0,0.0,0.0,0.0,0.0,0.0,0.0,0.0,0.0,0.0,0.0,0.0,0.0,0.0,0.0,0.0,0.0,0.0,0.0,0.0,0.0,0.0,0.0,0.0,0.0,0.0,0.0,0.0,0.0,0.0,0.0,0.0,0.0,0.0,0.0,0.0,0.0,0.0,0.0,0.0,0.0,0.0,0.0,0.0,0.0,0.0,0.0,0.0,0.0,0.0,0.0,0.0,0.0,0.0,0.0,0.0,0.0,1.3543,1.6393,1.8834,2.0262,2.0159,2.0005,2.0005,1.7508,1.5123,0.0,0.0,0.0,0.0,0.0,0.0,0.0,0.0,0.0,0.0,0.0,0.0,0.0,0.0,0.0,0.0,0.0,0.0,0.0,0.0,0.0,0.0,0.0,0.0,0.0,0.0,0.0,0.0,0.0,0.0,0.0,0.0,0.0,0.0,0.0,0.0,0.0,0.0,0.0,0.0,0.0,0.0,0.0,0.0,0.0,0.0,0.0,0.0,0.0,0.0,0.0,0.0,0.0,0.0,0.0,0.0,0.0,0.0,0.0,0.0,0.0,0.0,0.0,0.0,0.0,0.0,0.0,0.0,0.0,0.0,0.0,0.0,0.0,0.0,0.0,0.0,0.0,0.0,0.0,0.0,0.0,0.0,0.0,0.0,0.0,0.0,0.0,0.0,0.0,0.0,0.0,0.0,0.0,0.0,0.0,0.0,0.0,0.0,0.0,0.0,0.0,0.0,0.0,1.3984,1.6421,1.8625,2.0225,1.9993,1.9776,1.9861,1.8219,1.6077,1.3555,0.0,0.0,0.0,0.0,0.0,0.0,0.0,0.0,0.0,0.0,0.0,0.0,0.0,0.0,0.0,0.0,0.0,0.0,0.0,0.0,0.0,0.0,0.0,0.0,0.0,0.0,0.0,0.0,0.0,0.0,0.0,0.0,0.0,0.0,0.0,0.0,0.0,0.0,0.0,0.0,0.0,0.0,0.0,0.0,0.0,0.0,0.0,0.0,0.0,0.0,0.0,0.0,0.0,0.0,0.0,0.0,0.0,0.0,0.0,0.0,0.0,0.0,0.0,0.0,0.0,0.0,0.0,0.0,0.0,0.0,0.0,0.0,0.0,0.0,0.0,0.0,0.0,0.0,0.0,0.0,0.0,0.0,0.0,0.0,0.0,0.0,0.0,0.0,0.0,0.0,0.0,0.0,0.0,0.0,0.0,0.0,0.0,0.0,0.0,0.0,0.0,0.0,1.4206,1.6553,1.8644,2.0218,2.0113,1.9956,2.0022,1.8641,1.6657,1.4055,0.0,0.0,0.0,0.0,0.0,0.0,0.0,0.0,0.0,0.0,0.0,0.0,0.0,0.0,0.0,0.0,0.0,0.0,0.0,0.0,0.0,0.0,0.0,0.0,0.0,0.0,0.0,0.0,0.0,0.0,0.0,0.0,0.0,0.0,0.0,0.0,0.0,0.0,0.0,0.0,0.0,0.0,0.0,0.0,0.0,0.0,0.0,0.0,0.0,0.0,0.0,0.0,0.0,0.0,0.0,0.0,0.0,0.0,0.0,0.0,0.0,0.0,0.0,0.0,0.0,0.0,0.0,0.0,0.0,0.0,0.0,0.0,0.0,0.0,0.0,0.0,0.0,0.0,0.0,0.0,0.0,0.0,0.0,0.0,0.0,0.0,0.0,0.0,0.0,0.0,0.0,0.0,0.0,0.0,0.0,0.0,0.0,0.0,0.0,0.0,0.0,0.0,1.4198,1.6749,1.8962,2.0279,2.0391,2.0399,2.0508,1.8989,1.7035,1.4785,0.0,0.0,0.0,0.0,0.0,0.0,0.0,0.0,0.0,0.0,0.0,0.0,0.0,0.0,0.0,0.0,0.0,0.0,0.0,0.0,0.0,0.0,0.0,0.0,0.0,0.0,0.0,0.0,0.0,0.0,0.0,0.0,0.0,0.0,0.0,0.0,0.0,0.0,0.0,0.0,0.0,0.0,0.0,0.0,0.0,0.0,0.0,0.0,0.0,0.0,0.0,0.0,0.0,0.0,0.0,0.0,0.0,0.0,0.0,0.0,1.0568,0.0,0.0,0.0,0.0,0.0,0.0,0.0,0.0,0.0,0.0,0.0,0.0,0.0,0.0,0.0,0.0,0.0,0.0,0.0,0.0,0.0,0.0,0.0,0.0,0.0,0.0,0.0,0.0,0.0,0.0,0.0,0.0,0.0,0.0,0.0,0.0,0.0,0.0,0.0,0.0,0.0,1.3549,1.7056,1.9817,2.0494,2.023,2.0411,2.1404,1.9801,1.7872,1.5736,1.3779,0.0,0.0,0.0,0.0,0.0,0.0,0.0,0.0,0.0,0.0,0.0,0.0,0.0,0.0,0.0,0.0,0.0,0.0,0.0,0.0,0.0,0.0,0.0,0.0,0.0,0.0,0.0,0.0,0.0,0.0,0.0,0.0,0.0,0.0,0.0,0.0,0.0,0.0,0.0,0.0,0.0,0.0,0.0,0.0,0.0,0.0,0.0,0.0,0.0,0.0,0.0,0.0,0.0,0.0,0.0,0.0,0.0,0.0,0.0,0.0,1.1662,0.0,0.0,0.0,0.0,0.0,0.0,0.0,0.0,0.0,0.0,0.0,0.0,0.0,0.0,0.0,0.0,0.0,0.0,0.0,0.0,0.0,0.0,0.0,0.0,0.0,0.0,0.0,0.0,0.0,0.0,0.0,0.0,0.0,0.0,0.0,0.0,0.0,0.0,0.0,0.0,1.5149,1.8103,2.035,2.1022,2.0492,2.0378,2.1029,1.965,1.8006,1.6312,1.4464,0.0,0.0,0.0,0.0,0.0,0.0,0.0,0.0,0.0,0.0,0.0,0.0,0.0,0.0,0.0,0.0,0.0,0.0,0.0,0.0,0.0,0.0,0.0,0.0,0.0,0.0,0.0,0.0,0.0,0.0,0.0,0.0,0.0,0.0,0.0,0.0,0.0,0.0,0.0,0.0,0.0,0.0,0.0,0.0,0.0,0.0,0.0,0.0,0.0,0.0,0.0,0.0,0.0,1.5491,1.5763,1.5837,1.5868,1.6374,1.7281,1.6154,1.5194,1.4289,1.2879,0.0,0.0,0.0,0.0,0.0,0.0,0.0,0.0,0.0,0.0,0.0,0.0,0.0,0.0,0.0,0.0,0.0,0.0,0.0,0.0,0.0,0.0,0.0,0.0,1.6901,1.6178,0.0,0.0,0.0,0.0,0.0,0.0,0.0,0.0,0.0,0.0,0.0,0.0,1.7018,1.9183,2.0822,2.1549,2.0852,2.0389,2.0526,1.9294,1.8049,1.6959,1.5283,1.338,0.0,0.0,0.0,0.0,0.0,0.0,0.0,0.0,0.0,0.0,0.0,0.0,0.0,0.0,0.0,0.0,0.0,0.0,0.0,0.0,0.0,0.0,0.0,0.0,0.0,0.0,0.0,0.0,0.0,0.0,0.0,0.0,0.9594,1.0529,0.0,0.0,0.0,0.0,0.0,0.0,0.0,0.0,0.0,0.0,0.0,0.0,0.0,1.4384,1.4485,1.6124,1.7379,1.8212,1.9762,2.0889,2.1629,2.1611,2.1701,2.1827,2.1705,0.0,1.5683,1.6145,0.0,0.0,0.0,0.0,0.0,0.0,0.0,0.0,0.0,0.0,0.0,0.0,0.0,0.0,0.0,0.0,0.0,0.0,0.0,0.0,0.0,0.0,2.0439,1.9535,1.9839,2.0058,0.0,1.6111,1.3707,1.35,1.2443,0.0,0.0,0.0,0.0,0.0,0.0,0.0,1.6628,1.9463,2.1515,2.1753,2.0997,2.0741,2.1362,1.9741,1.8595,1.8422,1.7473,1.5817,1.3316,1.2516,0.0,0.0,0.0,0.0,0.0,0.0,0.0,0.0,0.0,0.0,0.0,0.0,0.0,0.0,0.0,0.0,0.0,0.0,0.0,0.0,0.0,0.0,0.0,0.0,0.0,0.0,0.0,0.0,0.0,0.8782,0.9963,1.037,1.1159,1.1519,0.0,0.0,0.0,0.0,0.0,0.0,0.0,0.0,0.0,1.5013,1.634,1.7294,1.7839,1.9126,2.0232,2.1153,2.1924,2.251,2.2866,2.2875,2.2873,2.2902,2.336,2.2161,1.9758,1.8978,1.7534,1.5704,0.0,0.0,0.0,0.0,1.5966,1.6124,1.7493,1.7684,0.0,1.7329,0.0,0.0,0.0,0.0,0.0,0.0,0.0,0.0,0.0,0.0,2.1204,2.1148,2.1775,2.2317,2.2014,2.024,1.8196,0.0,1.6141,1.559,1.3578,0.0,0.0,0.0,0.0,0.0,1.8668,2.1016,2.2576,2.255,2.1335,2.0656,2.0883,1.9669,1.8854,1.8775,1.8361,1.7626,1.6515,1.4394,1.2631,0.0,0.0,0.0,0.0,0.0,0.0,0.0,0.0,0.0,0.0,0.0,0.0,0.0,0.0,0.0,0.0,0.0,0.0,0.0,0.0,0.0,0.0,0.0,0.0,0.0,0.0,0.0,0.0,0.9886,1.0857,1.0843,1.209,1.2638,0.0,0.0,0.0,0.0,0.0,0.0,1.4401,1.5402,1.6305,1.7004,1.8514,1.9655,2.0349,2.1265,2.2135,2.2998,2.3242,2.348,2.3673,2.3678,2.3672,2.3695,2.4302,2.417,2.3445,2.1688,2.0193,1.8941,1.8214,1.7865,1.7848,1.894,1.9168,1.9207,2.1042,2.1336,2.0862,2.0592,2.0279,1.9706,1.8184,0.0,0.0,0.0,0.0,1.9038,2.0359,2.1255,2.2006,2.2694,2.3376,2.3847,2.3837,2.3407,2.2191,0.0,1.9466,1.8999,1.6065,0.0,0.0,0.0,0.0,1.9577,2.0867,2.2295,2.3188,2.3236,2.1896,2.0865,2.0494,1.9624,1.904,1.8904,1.8869,1.8725,1.8503,1.594,1.4258,1.3697,0.0,0.0,0.0,0.0,0.0,0.0,0.0,0.0,0.0,0.0,0.0,0.0,0.0,0.0,0.0,0.0,0.0,0.0,0.0,0.0,0.0,0.0,0.0,0.0,0.0,0.0,0.0,0.0,0.0,1.3591,1.439,0.0,0.0,0.0,0.0,1.3909,1.541,1.6327,1.6468,1.8006,1.894,1.9041,1.9937,2.045,2.0503,2.1351,2.2203,2.3018,2.3909,2.4724,2.5465,2.5482,2.5481,2.5464,2.552,2.5464,2.5299,2.4298,2.2848,2.1205,2.0911,2.076,2.071,2.0767,2.1337,2.2089,2.2283,2.2342,2.2403,2.3095,2.2533,2.1466,2.0706,2.0174,0.0,0.0,2.1663,2.2805,2.3209,2.3965,2.4597,2.464,2.4708,2.4764,2.4832,2.4591,2.4,0.0,2.1328,2.0469,2.0757,0.0,1.9874,2.0469,2.0698,2.1181,2.2356,2.2577,2.2885,2.3511,2.2772,2.1808,2.0782,1.9863,1.9319,1.9184,1.9173,1.8791,1.7985,1.6995,1.5374,1.3078,1.1154,0.0,0.0,0.0,0.0,0.0,0.0,0.0,0.0,0.0,0.0,0.0,0.0,0.0,0.0,0.0,0.0,0.0,0.0,0.0,0.0,0.0,0.0,0.0,0.0,0.0,0.0,0.0,0.0,1.4645,1.5935,0.0,1.562,1.605,1.6375,1.6445,1.6994,1.7596,1.8253,1.8784,1.9656,2.0833,2.1163,2.1865,2.2982,2.329,2.3822,2.4689,2.5007,2.5313,2.5569,2.5013,2.4756,2.4766,2.4748,2.4748,2.4732,2.5015,2.4678,2.3951,2.3859,2.3828,2.3815,2.3803,2.401,2.429,2.4262,2.4251,2.4325,2.4613,2.4387,2.3934,2.3769,2.3483,2.3277,2.3539,2.3945,2.4289,2.4327,2.4554,2.4721,2.4689,2.467,2.4678,2.4704,2.4718,2.4599,2.4033,2.3409,2.272,2.1965,2.2013,2.1858,2.0978,2.1843,2.265,2.2938,2.3453,2.3773,2.3795,2.3055,2.2108,2.1044,2.0195,1.9802,2.0027,1.9045,1.8739,1.9277,1.702,1.5395,1.4637,1.2456,1.0776,0.0,0.0,0.0,0.0,0.0,0.0,0.0,0.0,0.0,0.0,0.0,0.0,0.0,0.0,0.0,0.0,0.0,0.0,0.0,0.0,0.0,0.0,0.0,0.0,0.0,0.0,1.545,1.6029,1.7335,1.786,1.7014,1.7733,1.8285,1.8272,1.8555,1.9111,2.0015,2.0045,2.0681,2.2158,2.2215,2.2765,2.3924,2.4161,2.4592,2.5141,2.5461,2.558,2.5578,2.5006,2.4741,2.4746,2.5059,2.5176,2.5213,2.5867,2.6029,2.5885,2.5549,2.5446,2.545,2.5439,2.5418,2.5433,2.5367,2.5357,2.531,2.5334,2.5283,2.522,2.5295,2.5225,2.5086,2.5171,2.5121,2.5034,2.5,2.494,2.4907,2.4854,2.484,2.4836,2.4826,2.4917,2.4949,2.4804,2.4655,2.423,2.3145,2.3431,2.3412,2.2215,2.3111,2.384,2.3679,2.4178,2.4371,2.4108,2.3575,2.2868,2.1794,2.1128,2.0647,2.0396,1.9523,1.9048,1.9138,1.7004,1.5636,1.516,1.3017,1.145,1.0503,0.0,0.0,0.0,0.0,0.0,0.0,0.0,0.0,0.0,0.0,0.0,0.0,0.0,0.0,0.0,0.0,0.0,0.0,0.0,0.0,0.0,0.0,0.0,1.4392,1.6285,1.7849,1.7867,1.8642,1.8852,1.7983,1.8739,1.9261,1.9229,2.0036,2.0897,2.176,2.1797,2.2182,2.3028,2.3027,2.3041,2.3067,2.3922,2.4331,2.4336,2.5188,2.5612,2.5616,2.5576,2.5579,2.5622,2.6445,2.6832,2.6832,2.6832,2.6871,2.6828,2.5881,2.5555,2.5603,2.5531,2.5518,2.5518,2.5491,2.5408,2.531,2.531,2.5247,2.5203,2.5197,2.5193,2.5195,2.519,2.519,2.5198,2.5262,2.5309,2.5309,2.5309,2.5309,2.5262,2.5198,2.5192,2.5165,2.5106,2.5009,2.4822,2.4551,2.4568,2.4568,2.453,2.4621,0.0,2.46,2.4657,2.4641,2.4442,2.4425,2.4013,2.2992,2.264,2.1815,2.0299,2.0494,1.9691,1.7458,1.7038,1.6106,1.4506,1.2864,1.1555,1.0607,0.0,0.0,0.0,0.0,0.0,0.0,0.0,0.0,0.0,0.0,0.0,0.0,0.0,0.0,0.0,0.0,0.0,0.0,0.0,0.0,0.0,0.0,1.825,1.7789,1.8333,1.9039,1.9676,2.053,2.0725,1.9835,2.057,2.0801,2.0186,2.0343,2.085,2.167,2.1748,2.2414,2.3902,2.3941,2.4255,2.4882,2.5117,2.5234,2.5233,2.5505,2.5582,2.5581,2.4948,2.4667,2.4662,2.4902,2.5022,2.5064,2.5701,2.6328,2.6827,2.5908,2.5588,2.559,2.5583,2.5533,2.5484,2.5422,2.5417,2.5352,2.5352,2.5387,2.5405,2.529,2.5275,2.5232,2.5157,2.5149,2.5204,2.5212,2.5228,2.5241,2.5241,2.5241,2.52,2.5192,2.5192,2.516,2.5037,2.4976,2.4861,2.4798,2.4708,2.4716,2.484,2.4797,0.0,2.4734,2.4727,2.4694,2.4637,2.4637,2.426,2.3334,2.2372,2.1875,2.1899,1.9671,1.8543,1.8938,1.7185,1.5592,1.4387,1.436,1.3883,0.0,0.0,0.0,0.0,0.0,0.0,0.0,0.0,0.0,0.0,0.0,0.0,0.0,0.0,0.0,0.0,0.0,0.0,0.0,0.0,0.0,0.0,1.8477,1.9804,2.0195,2.027,2.0496,2.0973,2.117,2.1054,2.0546,2.1289,2.1601,2.1094,2.1367,2.1914,2.2734,2.2773,2.3437,2.4805,2.4844,2.5077,2.5581,2.5617,2.5611,2.5599,2.5596,2.5593,2.5588,2.5066,2.4857,2.4847,2.5217,2.5381,2.5425,2.5953,2.6436,0.0,0.0,0.0,0.0,0.0,2.6687,2.6663,2.6623,2.6591,2.653,2.653,2.6309,2.5992,2.5901,2.5634,2.5332,2.5237,2.5232,2.5283,2.5293,2.5273,2.5247,2.5247,2.5209,2.5173,2.5173,2.5173,2.5144,2.5003,2.4976,0.0,2.4854,2.4734,2.4635,2.4731,2.4704,2.4674,2.4681,2.468,2.4694,2.4718,2.4692,2.45,2.397,2.3202,0.0,0.0,0.0,1.9361,1.9066,1.7012,0.0,0.0,0.0,0.0,0.0,0.0,0.0,0.0,1.4967,1.5289,0.0,0.0,0.0,0.0,0.0,0.0,0.0,0.0,0.0,0.0,0.0,0.0,0.0,0.0,0.0,0.0,1.9971,2.0896,2.1675,2.1875,2.186,2.1673,2.1133,2.0736,2.0657,2.1507,2.2053,2.1947,2.2611,2.3394,2.4256,0.0,0.0,0.0,0.0,2.5582,2.5607,2.5597,2.5572,2.5599,2.5688,2.5751,2.5751,2.5827,2.5866,2.5909,2.671,2.6965,2.6887,2.6887,2.689,2.6906,2.6914,2.7359,2.8072,2.8162,2.8249,2.8292,2.8291,0.0,0.0,2.8112,2.7556,2.6854,2.6844,2.6308,2.5685,2.5674,2.5674,2.5681,2.5699,2.5562,2.5452,2.5452,2.5291,2.5121,2.5106,2.5106,2.5091,2.5025,2.5003,2.4966,2.484,2.466,2.45,2.4443,2.4467,2.4505,2.4512,2.4605,2.4674,2.4686,0.0,0.0,2.4704,2.4364,2.354,2.1993,2.2235,2.1257,1.8732,1.7234,1.6367,1.615,1.6306,1.6673,1.7209,1.8515,1.8784,1.8043,1.6248,1.6275,0.0,0.0,0.0,0.0,0.0,0.0,0.0,0.0,0.0,0.0,0.0,0.0,0.0,0.0,0.0,1.897,2.0424,2.1563,2.1761,2.236,2.2285,2.09,2.1803,2.2271,2.1593,2.293,2.3557,2.2881,2.3003,2.3426,2.4261,2.4301,2.4679,2.5507,2.5507,2.5502,2.5528,2.5523,2.5513,2.5536,0.0,0.0,2.6606,2.7302,2.7611,2.7612,2.7784,2.7483,2.6825,2.6825,2.6823,2.6802,2.6864,2.6991,2.7247,2.793,2.8195,2.8235,2.8228,2.8181,2.8173,2.8173,2.8048,2.7912,2.7867,2.7691,0.0,2.7458,2.7454,2.7511,2.7514,2.6982,2.6444,2.6444,2.5854,2.5315,2.5187,2.5223,2.5253,2.5177,2.5054,2.4996,2.4961,2.4757,2.4567,2.4555,2.4526,2.4484,2.4505,2.453,2.4572,2.4678,2.4694,2.471,2.47,2.3901,2.3503,2.3743,2.2948,2.1913,2.0625,2.0224,1.9643,1.8862,2.0011,2.0304,1.9705,2.1081,2.1568,2.1231,2.0666,1.9921,0.0,0.0,0.0,0.0,0.0,0.0,0.0,0.0,0.0,0.0,0.0,1.6968,1.8213,0.0,2.0014,2.0869,2.1736,2.2295,2.2303,2.2699,2.2636,2.1845,2.2892,2.3306,2.2423,2.3883,2.4551,2.3757,2.4073,2.4495,2.486,2.4944,2.5133,2.5539,2.5539,2.5535,2.5488,2.5488,2.5484,2.5515,2.594,2.6134,2.6172,2.6597,2.6789,2.6828,2.7253,2.7216,2.6789,2.6789,2.6545,2.6203,2.6662,2.7132,2.7616,2.8047,2.8474,2.886,2.8858,2.9166,2.9549,2.9542,2.9226,2.8828,2.8798,2.8506,2.8139,2.8072,2.807,2.8118,2.8118,2.7738,2.7392,2.7392,2.7,2.6588,2.651,2.6174,2.5871,2.586,2.5485,2.5156,2.5103,2.4961,2.4811,2.4719,2.4653,2.4584,2.4543,2.451,2.4539,2.458,2.4662,2.4694,2.4714,2.3785,2.3343,2.3738,2.2601,2.1667,2.1156,2.1048,2.0765,2.0276,2.1016,2.1152,2.0688,2.1688,2.2093,2.1951,2.2167,2.1625,0.0,0.0,0.0,0.0,0.0,0.0,0.0,1.6515,1.6589,1.7633,1.8399,1.9231,2.0417,2.1342,2.214,2.2799,2.2902,2.2869,2.2842,2.3002,2.3163,2.3179,2.3852,2.3973,2.3216,2.4586,2.5218,2.4564,2.5151,2.5502,2.5496,2.5546,2.5589,2.5581,2.5581,2.5536,2.5484,2.5484,2.5517,2.5503,2.5658,2.5735,2.5735,2.589,2.6008,2.6007,2.6741,2.6933,2.6778,2.6778,2.6276,2.5587,2.6272,2.7022,2.7721,2.8051,2.8735,2.9489,2.9489,3.0,3.0663,3.0854,3.0381,2.9753,2.9744,2.9264,2.8706,2.8709,2.8704,2.8698,2.8703,2.8522,2.8371,2.8364,2.8118,2.7855,2.7855,2.7309,2.6751,2.6551,2.5992,2.5502,2.5265,2.5204,2.5106,2.4895,2.4786,2.4704,2.465,2.4595,2.4543,2.4539,2.4654,2.471,2.471,2.3962,2.3471,2.3442,2.2479,2.1863,2.1742,2.1652,2.1543,2.1483,2.1532,2.1558,2.1553,2.1987,2.216,2.2107,2.2597,2.2542,1.3944,1.4398,1.5281,1.6177,1.6368,1.7381,0.0,0.0,2.0303,2.1958,2.2342,2.2239,2.1568,2.2188,2.2817,2.2877,2.2919,2.2891,2.2909,2.3526,2.3955,2.3876,2.4086,2.4168,2.407,2.4932,2.5446,2.5381,2.5513,2.5547,2.5481,2.552,2.5505,2.5505,2.5503,2.5503,2.5499,2.5499,2.5499,2.5497,2.6229,2.6577,2.6577,2.7357,2.7709,2.7748,2.7823,2.7434,2.6693,2.6693,2.6229,2.5497,2.5625,2.5714,2.6017,2.7597,2.8735,2.9489,2.9489,2.9568,2.9804,3.0624,3.0817,3.0738,3.0663,3.0623,3.0583,3.0546,3.05,3.0527,3.0499,2.9948,2.935,2.9334,2.8724,2.8144,2.8095,2.7986,2.7671,2.676,2.6501,2.6222,2.5505,2.5371,2.5296,2.5109,2.4952,2.485,2.4793,2.4759,2.4708,2.46,2.4722,2.4787,2.4787,2.4628,2.4479,2.4369,2.4207,2.3996,2.3707,2.3722,2.3653,2.3495,2.3495,2.35,2.35,2.3551,2.3469,2.3221,2.3275,2.3263,1.6758,1.7187,1.7788,1.9183,1.9152,1.9389,2.1692,2.1304,2.0592,2.1323,2.1475,2.1508,2.1654,2.2344,2.307,0.0,2.3979,2.4276,2.422,2.4553,2.4767,2.4702,2.4762,2.48,2.4851,2.6105,2.6702,2.6221,2.6627,2.6871,2.6834,2.6832,2.6817,2.678,2.6777,2.6785,2.6836,2.6838,2.6838,2.6836,2.7185,2.7331,2.7277,2.767,2.8096,2.8563,2.8114,2.7747,2.7359,2.69,2.6223,2.549,2.549,2.5795,2.6309,2.6538,2.7542,2.8683,2.8118,2.8601,2.9557,2.9909,3.0033,3.0155,3.0663,3.0859,3.0897,3.0859,3.0819,3.0817,3.0819,3.0545,3.027,3.0304,2.9977,2.9642,2.9618,2.9208,2.8582,2.7613,2.7034,2.6451,2.555,2.5402,2.5367,2.5326,2.5173,2.5065,2.505,2.4894,2.4763,2.4704,2.4772,2.481,2.4791,2.4805,2.4798,2.4749,2.4609,2.4513,2.4342,2.4183,2.4068,2.3984,2.3863,2.38,2.38,2.38,2.3753,2.3621,2.3629,2.3738,1.8425,1.9036,1.9669,2.0685,2.0661,2.0588,2.1485,2.1182,2.0749,2.0742,2.0935,2.1212,2.1632,2.2353,2.3174,2.3964,2.4779,2.5283,2.5228,2.5466,2.5502,2.5198,2.5187,2.5321,2.5575,2.6754,2.7354,2.7033,2.7492,2.7764,2.7782,2.7773,2.7762,2.7702,2.7702,2.7711,2.777,2.777,2.777,2.777,2.777,2.7759,2.7702,2.7702,2.805,2.8634,2.8321,2.8082,2.7816,2.7504,2.6764,2.5805,2.5822,2.6068,2.6353,2.5747,2.6477,2.7733,2.7029,2.7849,2.9186,2.9375,2.962,2.9985,3.0614,3.0816,3.0859,3.0858,3.0858,3.082,3.0781,3.0781,3.082,3.0859,3.0814,3.0763,3.0757,3.0236,2.9503,2.8571,2.7921,2.7176,2.5977,2.5786,2.5767,2.5573,2.5382,2.5296,2.5237,2.499,2.4854,2.4863,2.4839,2.4821,2.4831,2.486,2.4877,2.4891,2.4786,2.4693,2.4663,2.4443,2.4376,2.4523,2.4383,2.4387,2.4585,2.4585,2.4434,2.42,2.4205,2.4246,1.8031,1.9019,2.0067,1.9264,1.969,2.0521,2.1413,2.1576,2.1587,2.1662,2.2286,2.2594,2.1823,2.2348,2.3167,2.3961,2.4772,2.5268,2.5204,2.5917,2.6121,2.5214,2.5168,2.5506,0.0,2.6412,2.6815,2.7705,2.772,2.7714,2.7817,2.7756,2.7702,2.7702,2.7702,2.7702,2.7702,2.7702,2.7702,2.7702,2.7702,2.7702,2.7702,2.7702,2.7702,2.7779,2.8593,2.8478,2.7788,2.8664,2.8047,2.6569,2.6633,2.6208,2.5532,2.5528,2.6054,2.6859,2.6817,2.7443,2.8385,2.9227,3.0056,3.0759,3.0785,3.0788,3.0792,3.0812,3.0831,3.089,3.0816,3.0816,3.0818,3.0781,3.0859,3.0897,3.0897,3.0811,3.0484,2.9614,2.9414,2.885,2.7062,2.681,2.6584,2.5704,2.5573,2.5535,2.5333,2.5053,2.4938,2.5069,2.4933,2.4836,2.4884,2.4845,2.4838,2.4891,2.4953,2.4943,2.48,2.4854,2.5107,2.5537,2.556,2.5873,2.6523,2.6523,2.6067,2.5256,2.5256,2.4818,2.0061,2.0611,2.1095,2.0814,2.0504,2.0557,2.1448,2.122,2.0788,2.0781,2.0973,2.108,2.0821,2.1861,2.2862,2.3112,2.4827,2.6074,2.6073,2.6812,2.6995,2.6088,2.6438,0.0,0.0,0.0,0.0,2.8484,2.8482,2.8699,2.9279,2.924,2.9204,2.9174,2.9171,2.9186,2.9218,2.9218,2.9538,3.0097,3.0669,3.0654,3.0095,3.0095,3.0095,3.0098,2.9827,2.9552,2.9326,2.9748,2.9208,2.8203,2.8266,2.814,2.7803,2.7284,2.7268,2.7372,2.6296,2.6521,2.7312,2.7553,2.7889,2.8358,2.9508,2.9881,3.0055,3.0689,3.089,3.0893,3.0855,3.0853,3.0853,3.0857,3.0896,3.0896,3.0898,3.0898,3.0584,2.9668,2.9509,2.8953,2.7184,2.6856,2.6566,2.5703,2.5569,2.5492,2.5393,2.5259,2.516,2.5097,2.5025,2.5008,2.4971,2.4933,2.4943,2.496,2.5041,2.505,2.5018,2.4874,2.4895,2.5083,2.4966,2.5059,2.5253,2.5253,2.5032,2.4629,2.4596,2.4424,2.1653,2.192,2.2039,2.1985,2.1606,2.1282,2.1596,2.1204,2.0762,2.0746,2.0507,2.0491,2.1056,2.1755,2.2456,2.3041,2.5001,2.6447,2.6428,2.7462,2.7947,2.7242,2.7632,2.8172,0.0,0.0,0.0,2.9281,2.926,2.9464,3.0015,3.0007,2.9929,2.9897,3.0216,3.043,3.0462,3.0764,3.121,3.1771,3.2326,3.2306,3.1745,3.1745,3.1745,3.1749,3.1207,3.1009,3.1016,3.1096,3.0676,2.9906,2.9971,2.9808,2.9437,2.8623,2.8312,2.8145,2.6821,2.6941,2.7658,2.7597,2.7631,2.789,2.9018,2.9407,2.9598,3.0174,3.0612,3.0889,3.0892,3.089,3.0889,3.0892,3.0891,3.0892,3.0895,3.0897,3.0703,3.0113,2.9994,2.9521,2.8086,2.7267,2.6568,2.5732,2.5546,2.5505,2.5447,2.5352,2.5279,2.5165,2.513,2.5063,2.5041,2.5024,2.5014,2.5014,2.5047,2.5063,2.5063,2.4956,2.4998,2.5239,2.5132,2.5232,2.5464,2.5464,2.523,2.4827,2.476,2.4607,2.274,2.2794,2.2821,2.2736,2.2762,2.2577,2.1772,2.1563,2.1541,2.1433,2.0846,2.0783,2.2226,2.1965,2.1989,2.3517,2.525,2.6416,2.6405,2.7923,2.8927,0.0,0.0,0.0,0.0,0.0,0.0,3.0198,0.0,3.0014,3.0109,3.006,3.0036,3.004,3.0886,3.1366,3.1366,3.222,3.2645,3.2645,3.2727,3.2707,3.2661,3.2665,3.2661,3.2657,3.2661,3.2661,3.2665,3.2779,3.2332,3.1638,3.1708,3.1213,3.0399,2.9585,2.9269,2.9131,2.8368,2.8553,2.9121,2.9121,2.9188,2.9224,2.9268,2.934,2.9384,2.9434,3.0101,3.0793,3.0884,3.0887,3.0888,3.0889,3.0892,3.0894,3.0894,3.0897,3.0898,3.0897,3.0859,3.0546,2.9638,2.8041,2.6636,2.5782,2.5622,2.5577,2.5518,2.5394,2.5323,2.5319,2.5174,2.5097,2.5088,2.5044,2.4991,2.4984,2.5014,2.499,2.499,2.506,2.5346,2.5936,2.5936,2.6271,2.6915,2.6883,2.6498,2.5756,2.5662,2.5281,2.3345,2.3566,2.3477,2.2863,2.2721,2.2505,2.1718,2.1978,2.2028,2.0709,2.0757,2.0773,1.9943,2.0652,2.1467,2.1829,2.4325,0.0,2.779,2.9435,0.0,3.0302,0.0,3.1167,3.0913,3.1275,0.0,0.0,3.1054,3.0955,3.1698,3.1652,3.1638,3.168,3.1925,3.2043,3.2043,3.3019,3.3502,3.3502,3.4233,3.4203,3.3498,3.3531,3.3494,3.3432,3.3464,3.3477,3.3532,3.4259,3.4066,3.3291,3.336,3.324,3.2945,3.2146,3.1463,3.0916,3.0737,2.9557,2.8153,2.8153,2.8163,2.8306,2.9007,2.9233,2.9379,3.0035,3.0431,3.0664,3.0742,3.0794,3.0842,3.0894,3.0895,3.0895,3.0896,3.0897,3.0898,3.0898,3.0391,2.9842,2.9559,2.8104,2.6881,2.6628,2.601,2.5579,2.5578,2.5487,2.5433,2.5387,2.5291,2.5203,2.51,2.5066,2.506,2.4991,2.4994,2.4998,2.4998,2.5004,2.5105,2.5249,2.5298,2.5391,2.5525,2.5576,2.5385,2.4986,2.4962,2.4881,2.4213,2.4413,2.4309,2.3872,2.349,2.2954,2.218,2.2043,2.1703,2.0375,2.0447,2.0456,1.9508,2.0638,2.1735,0.0,0.0,0.0,2.8273,2.9682,3.0875,0.0,3.2378,0.0,3.2398,3.2873,3.3167,0.0,3.211,3.1703,3.2284,3.2255,3.2255,3.2284,3.2652,3.3067,3.3493,3.4012,3.4319,3.4341,3.4882,3.4839,3.427,3.4334,3.4303,3.423,0.0,3.4294,3.4314,3.4846,3.4814,3.4412,3.4454,3.4482,3.443,3.359,3.297,3.2523,3.2156,3.1096,2.978,2.9122,2.8655,2.845,2.8985,2.9165,2.9274,2.976,3.0228,3.057,3.0592,3.0653,3.0671,3.0789,3.0794,3.0835,3.0848,3.0852,3.0853,3.0855,3.0466,2.9998,2.957,2.871,2.7966,2.7533,2.6737,2.6164,2.6172,2.5794,2.5494,2.5464,2.5396,2.5307,2.5257,2.5214,2.5157,2.5103,2.5097,2.5082,2.5041,2.5038,2.5038,2.5038,2.5072,2.5072,2.5038,2.5092,2.5028,2.4925,2.4874,2.4902,2.5028,2.5073,2.5076,2.511,2.4451,2.3607,2.2784,2.1902,2.1016,2.0096,1.9863,1.9793,1.9683,2.0855,2.1932,2.2306,0.0,2.6529,2.8509,2.9531,3.0885,3.308,3.3382,3.3655,3.4254,3.437,3.441,3.4422,3.3237,3.2545,3.2594,3.2594,3.2599,3.2604,3.3336,3.4122,3.4931,3.4903,3.4913,3.4955,3.4931,3.4913,3.4898,3.4903,3.4898,3.4879,3.4894,3.4894,3.4889,3.4903,3.4959,3.5075,3.5075,3.5106,3.5081,3.4335,3.3933,3.3701,3.3002,3.2685,3.2376,3.0918,2.9989,2.94,2.9288,2.9267,2.9266,2.9332,2.9866,3.047,3.0515,3.05,3.0522,3.067,3.069,3.0706,3.0779,3.0792,3.0798,3.0798,3.0799,3.0565,2.9784,2.9599,2.9253,2.8508,2.7656,2.7026,2.6936,2.6093,2.5516,2.551,2.5442,2.542,2.5415,2.5362,2.5294,2.5213,2.5196,2.5159,2.5126,2.5115,2.5106,2.5097,2.5112,2.5115,2.5103,2.5118,2.5136,2.5184,2.5141,2.5124,2.4847,2.5021,2.5018,2.5076,2.4458,2.3565,2.2714,2.1901,2.0839,1.9217,1.8887,1.8719,1.8044,1.869,1.996,2.1928,0.0,0.0,0.0,0.0,3.2141,0.0,0.0,0.0,0.0,0.0,0.0,0.0,0.0,3.4116,3.4127,3.4127,3.4148,3.4196,3.4363,3.4491,3.4663,3.4783,3.4824,3.4839,3.4955,3.4927,3.4807,3.4889,3.484,3.472,3.4806,0.0,3.4829,3.4874,3.4917,3.4936,3.4936,3.503,3.5101,3.4876,3.4425,3.3847,3.3704,3.3259,3.2527,3.1526,3.112,3.0863,3.0202,3.0023,3.0027,3.003,3.0187,3.0352,3.0452,3.0556,3.0598,3.0616,3.0704,3.0764,3.0653,3.0719,3.0783,3.0783,3.0789,3.0755,3.0599,2.9979,2.948,2.9372,2.8555,2.7728,2.7087,2.6165,2.5589,2.5563,2.5569,2.5501,2.5395,2.5371,2.5368,2.5296,2.5228,2.5175,2.5179,2.5135,2.5083,2.5101,2.5167,2.5179,2.5097,2.5173,2.519,2.5197,2.5203,2.5179,2.4765,2.494,2.4936,2.5014,2.4354,2.3417,2.2587,2.1393,1.9992,1.8297,1.7915,1.7567,1.6398,1.7821,1.9551,2.0743,2.2289,0.0,0.0,0.0,0.0,0.0,0.0,0.0,0.0,0.0,0.0,0.0,0.0,3.4484,3.4545,3.4545,3.4561,3.4588,3.4588,3.4588,3.4588,3.4642,3.4711,3.4711,3.4751,3.4761,3.471,3.4735,3.4704,3.4631,3.4684,3.4694,3.4711,3.4725,3.4781,3.4868,3.4868,3.4879,3.4941,3.4913,3.4661,3.4352,3.4367,3.4111,3.3615,3.2396,3.1726,3.1258,3.0476,3.0236,3.0206,3.0192,3.0213,3.0266,3.034,3.0386,3.046,3.0541,3.0643,3.0737,3.067,3.0686,3.0744,3.0744,3.0749,3.0755,3.0802,3.0454,3.0188,3.0239,2.9471,2.8743,2.8359,2.7496,2.6624,2.5757,2.5669,2.5624,2.5574,2.5559,2.5532,2.5444,2.5441,2.5398,2.5359,2.5298,2.5249,2.526,2.5268,2.5249,2.5206,2.5236,2.5239,2.5253,2.5215,2.5464,2.4801,2.4891,2.4849,2.4957,2.422,2.3291,2.2492,2.0828,1.9042,1.7591,1.6977,1.6401,1.5434,1.7206,1.9114,1.9923,2.1216,2.3486,0.0,0.0,0.0,0.0,0.0,0.0,0.0,0.0,0.0,0.0,0.0,0.0,3.4545,3.455,3.4561,3.4588,3.4588,3.4588,3.4588,3.4588,3.4588,3.4588,3.4588,3.4588,3.4588,3.4588,3.4588,3.4588,3.4588,3.4588,3.4588,3.4588,3.4642,3.4758,3.4758,3.4761,3.4816,3.4763,3.4786,3.4809,3.4798,3.4793,3.4564,3.3244,3.2282,3.1469,3.057,3.0246,3.0195,3.0192,3.0188,3.0195,3.0219,3.0248,3.0343,3.0505,3.0582,3.066,3.0686,3.0692,3.0692,3.0692,3.0694,3.07,3.0753,3.08,3.0808,3.0817,3.0203,2.9722,2.9523,2.8904,2.7929,2.6418,2.61,2.5904,2.5709,2.5702,2.5688,2.5626,2.5602,2.5574,2.5501,2.5444,2.5406,2.5402,2.5367,2.5346,2.5339,2.5339,2.5335,2.533,2.548,2.5959,2.4805,2.4834,2.4888,2.4898,2.4182,2.3293,2.257,2.0439,1.837,1.7465,1.6149,1.5289,1.589,1.622,1.7398,2.0405,2.1573,2.3294,2.6665,0.0,0.0,0.0,0.0,0.0,0.0,0.0,0.0,0.0,0.0,0.0,3.4416,3.4427,3.4478,3.4583,3.4588,3.4588,3.4588,3.4588,3.4588,3.4588,3.4588,3.4588,3.4588,3.4588,3.4588,3.4588,3.4588,0.0,0.0,3.4588,3.4594,3.4604,3.4604,3.4711,3.4793,3.4747,3.4746,3.4816,3.4809,3.4793,3.4658,3.3809,3.299,3.2148,3.0741,3.026,3.0181,3.0195,3.0188,3.0213,3.027,3.0301,3.0355,3.0557,3.0494,3.0482,3.067,3.0697,3.0697,3.0697,3.0707,3.0716,3.0719,3.0746,3.0817,3.081,3.0744,3.0406,2.9602,2.9414,2.9023,2.8162,2.7366,2.6567,2.5787,2.5708,2.5707,2.5705,2.5631,2.5605,2.5602,2.5517,2.5444,2.539,2.5446,2.5464,2.5485,2.5485,2.5497,2.5487,2.6286,2.6715,2.5145,2.5498,2.5498,2.5517,2.516,2.4368,2.2621,2.0617,1.8786,1.7441,1.5895,1.489,1.5257,1.5698,1.6809,1.9113,1.9723,2.1246,2.504,0.0,0.0,0.0,0.0,0.0,0.0,0.0,0.0,0.0,0.0,0.0,3.4136,3.4258,3.4317,3.437,3.437,3.437,3.437,3.437,3.437,3.437,3.437,3.441,3.4484,3.4484,3.4523,3.4588,3.4588,0.0,0.0,3.4588,3.4588,3.4588,3.4588,3.4615,3.469,3.4631,3.4652,3.4684,3.4663,3.4695,3.4566,3.3851,3.337,3.2914,3.1897,3.1206,3.078,3.0788,3.0476,3.0146,3.0233,3.026,3.034,3.0467,3.0504,3.0536,3.0601,3.0681,3.0706,3.0706,3.0702,3.0704,3.0712,3.0725,3.0745,3.0733,3.0789,3.0652,3.0325,3.0299,2.9956,2.9101,2.8274,2.7437,2.6541,2.6497,2.6263,2.5724,2.5673,2.5669,2.5679,2.5616,2.5559,2.5516,2.5512,2.5778,2.6275,2.6299,2.6539,2.7075,2.7402,2.7879,2.4689,2.5221,2.5205,2.518,2.5086,2.4522,2.2581,2.082,1.9159,1.7479,1.5848,1.4733,1.4827,1.5481,1.6477,1.7908,1.8745,2.0311,2.341,2.4608,0.0,0.0,0.0,0.0,0.0,0.0,0.0,0.0,0.0,0.0,3.3952,3.4011,3.4136,3.4216,3.4185,3.4185,3.4185,3.4185,3.4185,3.4185,3.4185,3.427,3.4352,3.4352,3.4404,3.4484,3.4484,3.4501,0.0,3.4534,3.4556,3.4588,3.4588,3.4588,3.4588,3.4588,3.4588,3.4588,3.4588,3.4588,3.4529,3.4064,3.3853,3.3725,3.3166,3.233,3.1564,3.1547,3.1024,3.0392,3.0178,3.014,3.0196,3.0337,3.0397,3.0489,3.057,3.0612,3.0641,3.0702,3.0707,3.0707,3.0707,3.0711,3.0714,3.0719,3.0736,3.0757,3.0786,3.0767,3.0551,2.9904,2.9335,2.8553,2.7494,2.737,2.7136,2.6519,2.6475,2.6476,2.6483,2.6437,2.6393,2.6396,2.6348,2.6615,2.7236,2.7246,2.7561,2.8181,2.842,2.9009,2.3214,2.3461,2.3519,2.3524,2.3469,2.3206,2.2374,2.0886,1.9201,1.7545,1.5927,1.4813,1.4889,1.5499,1.6296,1.7173,1.9307,2.1179,2.2014,2.4827,0.0,0.0,0.0,0.0,0.0,0.0,0.0,0.0,0.0,0.0,3.3844,3.3814,3.3946,3.4172,3.4185,3.4185,3.4185,3.4185,3.4185,3.4185,3.4185,3.4185,3.4185,3.4185,3.4185,3.4185,0.0,3.4294,0.0,3.441,3.4484,3.4588,3.4588,3.4588,3.4588,3.4588,3.4588,3.4588,3.4588,3.4588,3.4588,3.4588,3.4588,3.4577,3.4485,3.3511,3.238,3.238,3.182,3.1,3.0124,2.9897,2.9977,3.0251,3.0202,3.0202,3.053,3.0552,3.055,3.0678,3.068,3.0692,3.0699,3.0704,3.0702,3.0705,3.0718,3.0694,3.0695,3.07,3.0689,3.0689,3.0684,3.0016,2.8437,2.828,2.828,2.8281,2.8278,2.8277,2.8281,2.828,2.828,2.8281,2.8279,2.8277,2.8277,2.827,2.8304,2.8304,2.9168,3.0031,2.2156,2.2574,2.2587,2.2536,2.2537,2.2144,2.0794,1.9585,1.8279,1.6721,1.5545,1.4825,1.4837,1.5525,1.6512,1.7971,1.9713,2.1387,2.2715,0.0,0.0,0.0,0.0,0.0,0.0,0.0,0.0,0.0,0.0,0.0,3.3917,3.388,3.39,3.3946,3.3946,3.3946,3.3946,3.3946,3.3946,3.3946,3.3946,3.3954,3.4049,3.4049,3.4099,0.0,0.0,3.4203,3.4245,3.4245,3.4305,3.4352,3.4433,3.4467,3.4478,3.4561,3.4588,3.4588,3.4588,3.4588,3.4588,3.4588,3.4588,3.4583,3.4567,3.3858,3.2984,3.2416,3.1749,3.1143,3.0801,3.0326,2.9921,3.0015,3.0129,3.0272,3.0378,3.0525,3.0639,3.0705,3.0668,3.0622,3.0649,3.0612,3.0611,3.0637,3.0657,3.0709,3.0709,3.0699,3.0719,3.0719,3.0712,3.0244,2.9153,2.9095,2.8864,2.8271,2.8281,2.8281,2.8319,2.828,2.828,2.8319,2.8318,2.8591,2.9178,2.9175,2.9481,3.002,3.0295,3.0573,2.0308,2.0981,2.1243,2.1205,2.1188,2.0916,1.9904,1.8758,1.7556,1.6287,1.5371,1.4897,1.5204,1.5918,1.6926,1.8225,1.9995,2.1677,2.2992,0.0,0.0,0.0,0.0,0.0,0.0,0.0,0.0,0.0,0.0,0.0,3.4422,3.4086,3.3933,3.3893,3.3834,3.3807,3.3807,3.3807,3.3807,3.3807,3.3807,3.3854,3.3902,3.3902,3.3991,0.0,3.403,3.4099,0.0,3.4105,3.4136,3.4228,3.4274,3.4335,3.4347,3.4427,3.4484,3.4523,3.4523,3.455,3.4588,3.4588,3.4588,3.4588,3.4588,3.4245,3.3687,3.2886,3.2344,3.1836,3.1186,3.062,3.0198,2.9948,2.9977,3.0133,3.0251,3.04,3.0527,3.0635,3.0649,3.0645,3.0588,3.0584,3.0619,3.0602,3.0653,3.0664,3.0664,3.0676,3.0647,3.0647,3.0668,3.0425,2.9916,2.991,2.9741,2.9191,2.9209,2.9255,2.9294,2.9294,2.9294,2.9294,2.9294,2.9527,3.0034,3.0068,3.0296,3.0798,3.0798,3.0801,0.0,1.8818,1.9442,1.9439,1.9439,1.9423,1.9365,1.8233,0.0,1.6089,1.5321,1.5059,1.5911,1.6684,1.7476,1.8336,2.0372,2.2193,2.3055,2.5284,0.0,0.0,0.0,0.0,0.0,0.0,0.0,0.0,0.0,0.0,3.5328,3.4518,3.4084,3.4084,3.393,3.382,3.3814,3.3814,3.3807,3.3807,3.3807,3.3814,3.3814,3.3814,3.3814,0.0,3.3814,3.388,3.4004,3.4004,3.4043,3.4154,3.4166,3.4204,3.4204,3.4216,3.4294,3.4399,3.4399,3.4473,3.4561,3.4561,3.4572,3.4577,3.4577,3.4583,3.4438,3.3671,3.3404,3.2959,3.1474,3.0994,3.0747,3.0195,2.9908,2.9905,3.0283,3.025,3.029,3.0539,3.0653,3.0672,3.0627,3.058,3.0606,3.0605,3.0598,3.0598,3.0598,3.0598,3.0598,3.0598,3.0598,3.0598,3.0598,3.0673,3.0713,3.0772,3.0792,3.0845,3.0893,3.0896,3.0896,3.0894,3.0894,3.0851,3.08,3.0786,3.0782,3.0791,3.0791,3.0794,1.5407,0.0,1.6785,1.6778,1.6778,1.6784,0.0,1.6504,1.6003,1.5259,1.4877,1.5143,1.6587,1.7485,1.8677,2.071,2.2474,2.3892,2.472,0.0,0.0,0.0,0.0,0.0,0.0,0.0,0.0,0.0,0.0,3.6765,3.6024,3.5248,3.4847,3.4927,3.4284,3.3946,3.3893,3.3834,3.3807,3.3807,3.3807,3.3834,3.3887,3.3834,3.3834,3.3887,3.3834,3.3827,3.386,3.386,3.388,3.3919,3.4023,3.4067,3.4043,3.4148,3.4203,3.4264,3.4264,3.4282,3.4274,3.4274,3.4376,3.445,3.445,3.4517,3.454,3.4309,3.3789,3.3216,3.2815,3.2216,3.1714,3.1597,3.1139,3.072,3.0806,3.055,3.0314,3.037,3.0496,3.063,3.0616,3.0614,3.0609,3.06,3.0598,3.0598,3.0598,3.0598,3.0598,3.0598,3.0598,3.0598,3.0598,3.0624,3.0643,3.0651,3.0732,3.0802,3.0805,3.0814,3.0817,3.0816,3.081,3.0804,3.08,3.0818,3.0807,3.0809,3.0809,3.0805,1.4614,1.5769,1.699,1.6994,1.7018,1.7045,1.7036,1.6186,1.5381,1.5325,1.5272,1.5815,1.7735,1.8411,1.9383,2.1404,2.3019,2.4803,0.0,0.0,0.0,0.0,0.0,0.0,0.0,0.0,0.0,0.0,0.0,3.7145,3.6714,3.567,3.5108,3.5151,3.4421,3.3967,3.3965,3.3893,3.386,3.386,3.382,3.3847,3.3913,3.3873,3.3893,3.3922,3.3919,3.3906,3.3906,3.3906,3.3906,3.3913,3.3952,3.3935,3.3978,3.3979,3.408,3.4087,3.4055,3.4087,3.4136,3.4136,3.4185,3.4282,3.4317,3.4352,3.4404,3.4512,3.4217,3.3783,3.3436,3.2986,3.251,3.2199,3.1786,3.1563,3.1691,3.145,3.1248,3.1408,3.1171,3.0926,3.0984,3.0706,3.0505,3.0591,3.0598,3.0593,3.054,3.0591,3.0593,3.0579,3.054,3.0535,3.0564,3.0527,3.0533,3.0543,3.0613,3.0655,3.0672,3.0642,3.0695,3.075,3.0791,3.0789,3.0786,3.08,3.0785,3.0785,3.0779,3.0733,1.4879,1.6642,1.8374,1.802,1.8149,1.8339,1.8236,1.6592,1.534,1.5932,1.6163,1.6876,1.9026,1.9563,0.0,2.1807,2.3474,0.0,0.0,0.0,0.0,0.0,0.0,0.0,0.0,0.0,0.0,0.0,0.0,3.7434,3.745,3.6157,3.5427,3.5441,3.4713,3.4347,3.4347,3.405,3.3906,3.3893,3.3834,3.3847,3.3913,3.3906,3.3933,3.3967,0.0,0.0,3.3991,3.3997,3.3997,3.3941,3.3933,3.3913,3.3906,3.3847,3.3906,3.401,3.3926,3.3935,3.4055,3.4048,3.4055,3.4049,3.4105,3.4099,3.4167,3.4444,3.4489,3.4323,3.372,3.3495,3.3264,3.2627,3.2343,3.235,3.2615,3.2462,3.2355,3.2693,3.2105,3.1551,3.1565,3.097,3.0535,3.0586,3.0598,3.0583,3.0508,3.0525,3.0528,3.0495,3.0487,3.0479,3.0466,3.0433,3.0384,3.0448,3.0466,3.0498,3.0476,3.0498,3.0521,3.066,3.0695,3.0745,3.0734,3.0746,3.0731,3.073,3.0675,3.0626,1.6186,1.781,1.8687,1.6672,1.7266,1.8113,1.7385,1.6963,1.6765,1.6802,1.7313,1.8269,1.9994,2.1329,2.2674,0.0,0.0,0.0,0.0,0.0,0.0,0.0,0.0,0.0,0.0,0.0,0.0,0.0,0.0,3.8092,3.815,3.7335,3.6902,3.697,3.623,3.5862,3.5862,3.4579,3.388,3.3827,3.3814,3.3847,3.3913,3.3854,3.3867,3.3926,0.0,3.384,3.3847,3.3906,3.3893,3.3847,3.3893,3.3913,3.3913,3.3906,3.3915,3.3967,3.3867,3.38,3.376,3.3698,3.376,3.386,3.3867,3.3915,3.4055,3.4167,3.4191,3.4268,3.4317,3.4201,3.407,3.4031,3.3525,3.3044,3.3088,3.2822,3.2537,3.2554,3.2714,3.2596,3.1867,3.1648,3.1352,3.0711,3.0598,3.0571,3.0419,3.0414,3.0395,3.034,3.0346,3.0339,3.0328,3.0336,3.0302,3.0235,3.0332,3.0434,3.0423,3.042,3.0418,3.0457,3.0445,3.0448,3.0468,3.0412,3.0382,3.0382,3.0377,3.0366,1.5377,1.7081,1.8405,1.7322,1.8584,2.0017,1.9615,1.8901,1.8395,1.8765,1.9115,1.9827,2.1407,0.0,0.0,0.0,0.0,0.0,0.0,0.0,0.0,0.0,0.0,0.0,0.0,0.0,0.0,0.0,0.0,0.0,3.8232,3.756,3.7142,3.7182,3.6515,3.6113,3.6105,3.5424,3.488,3.4461,3.4419,3.4204,3.3913,3.388,3.3906,3.3935,0.0,3.3919,3.3926,3.3959,3.3952,3.3919,3.3919,3.3913,3.3913,3.3873,3.3854,3.384,3.3773,3.3726,3.3691,3.3657,3.3698,3.376,3.3793,3.3827,3.388,3.4023,3.4074,3.4197,3.4317,3.4227,3.4154,3.4288,3.3978,3.3735,3.3863,3.3596,3.3359,3.3443,3.3284,3.2999,3.2683,3.238,3.1943,3.1213,3.1109,3.0899,3.0346,3.031,3.0304,3.026,3.0653,3.0761,3.0292,3.0639,3.0668,3.0195,3.0215,3.0225,3.0177,3.026,3.0295,3.0272,3.0373,3.0364,3.0361,3.0332,3.0543,3.1003,3.0982,3.1237,1.4895,1.6455,1.8141,1.8505,2.003,2.1519,2.1896,2.0886,2.0071,2.0813,2.1106,2.1512,0.0,0.0,0.0,0.0,0.0,0.0,0.0,0.0,0.0,0.0,0.0,0.0,0.0,0.0,0.0,0.0,0.0,0.0,3.7589,3.7031,3.681,3.6983,3.6331,3.6027,3.6147,3.6027,3.563,3.4976,3.4913,3.4522,3.3893,3.3893,3.3919,3.3935,3.3935,3.3935,3.3935,3.3991,3.3984,3.3965,3.3926,3.3913,3.3913,3.3873,3.3814,3.3746,3.3732,3.3712,3.3698,3.3678,3.3671,3.3684,3.3739,3.3719,3.3712,3.3893,3.3984,3.4018,3.4167,3.4148,3.4074,3.4142,3.4155,3.4154,3.4353,3.4225,3.4154,3.4275,3.3867,3.3435,3.3378,3.3046,3.2553,3.1826,3.1761,3.1537,3.0835,3.0811,3.0807,3.0731,3.1317,3.1424,3.0786,3.1291,3.1333,3.0689,3.0487,3.027,2.9991,3.0097,3.0129,3.0157,3.0241,3.0364,3.0535,3.0525,3.0938,3.1776,3.1784,3.2112,1.6221,1.7271,1.8278,1.9756,2.0424,2.1029,2.2397,2.2113,2.1751,2.2469,2.3171,2.3473,0.0,0.0,0.0,0.0,0.0,0.0,0.0,0.0,0.0,0.0,0.0,0.0,0.0,0.0,0.0,0.0,0.0,0.0,3.5675,3.5647,3.5963,3.6702,3.5971,3.5899,3.6638,3.5907,3.5341,3.4898,3.4891,3.4538,3.3814,3.3814,3.382,3.382,3.382,3.382,3.3827,3.3893,3.388,3.3827,3.3893,3.3913,3.3919,3.3941,3.3922,3.3893,3.382,3.376,3.3684,3.3615,3.3594,3.3594,3.3601,3.3601,3.3615,3.3698,3.3726,3.3793,3.4024,3.408,3.4005,3.4074,3.4087,3.413,3.4111,3.4249,3.4392,3.4409,3.4502,3.4352,3.3597,3.3621,3.3428,3.2549,3.2602,3.2652,3.247,3.2412,3.2426,3.2349,3.234,3.231,3.2234,3.231,3.2306,3.2226,3.1585,3.0826,2.9939,2.9913,2.9945,3.0026,2.9957,3.0345,3.1221,3.1176,3.1535,3.2327,3.2327,3.2361,1.508,1.6548,1.8181,1.9319,2.0375,2.1562,2.3089,2.3992,2.4714,2.5511,2.6287,2.6565,2.5796,0.0,0.0,0.0,0.0,0.0,0.0,0.0,0.0,0.0,0.0,0.0,0.0,0.0,0.0,0.0,0.0,0.0,3.5514,3.5514,3.5658,3.5938,3.565,3.5658,3.5965,3.565,3.5171,3.4598,3.4598,3.4207,3.353,3.3629,3.3671,3.3678,3.3766,3.3807,3.3814,3.3834,3.3834,3.3814,3.3834,3.3847,3.3854,3.388,3.3873,3.384,3.382,3.3787,3.376,3.3732,3.3726,3.3726,3.3726,3.3726,3.3732,3.376,3.3766,3.3793,3.39,3.3873,3.384,3.3913,3.3926,3.3926,3.3926,3.4105,3.4274,3.4239,3.4481,3.4552,3.4084,3.4354,3.4289,3.3269,3.3299,3.3203,3.2685,3.2601,3.2593,3.2564,3.2255,3.2294,3.3016,3.3058,3.3032,3.3032,3.237,3.1813,3.1454,3.145,3.1463,3.148,3.1463,3.1615,3.1973,3.1956,3.2364,3.3202,3.3202,3.3468,1.5086,1.6864,1.8843,1.9445,2.0762,2.24,2.4221,2.5453,2.6433,2.7224,2.7852,2.8189,2.8039,0.0,0.0,0.0,0.0,0.0,0.0,0.0,0.0,0.0,0.0,0.0,0.0,0.0,0.0,0.0,0.0,0.0,0.0,3.4678,3.4786,3.5065,3.4822,3.4786,3.5065,3.4822,3.4415,3.3915,3.3915,3.3741,3.3393,3.3502,3.3553,3.356,3.3622,3.3671,3.3671,3.3671,3.3698,3.3739,3.3739,3.3766,3.3807,3.3807,3.3807,3.3807,3.3807,3.3807,3.3807,3.3807,3.3807,3.3807,3.3807,3.3807,3.3807,3.3807,3.3807,3.3807,3.3807,3.3773,3.3746,3.3793,3.3807,3.3807,3.3807,3.3922,3.4043,3.3992,3.4309,3.4464,3.4301,3.4698,3.477,3.4003,3.4115,3.4044,3.346,3.3384,3.338,3.3371,3.3054,3.315,3.3946,3.3946,3.3907,3.3876,3.347,3.2955,3.2402,3.2402,3.2402,3.2402,3.2402,3.2553,3.2819,3.2819,3.3245,3.4097,3.4097,3.441,1.6793,1.8574,2.0394,2.0431,2.1639,2.3464,2.5867,2.6313,2.647,2.7302,2.7483,2.7881,2.9098,2.9467,0.0,0.0,0.0,0.0,0.0,0.0,0.0,0.0,0.0,0.0,0.0,0.0,0.0,0.0,0.0,0.0,0.0,3.2882,3.3275,3.4071,3.3302,3.3267,3.4071,3.3302,3.2882,3.2882,3.2882,3.3083,3.3386,3.3386,3.3386,3.3386,3.3393,3.3393,3.3393,3.3393,3.3481,3.358,3.358,3.3678,3.3807,3.3807,3.3807,3.3807,3.3807,3.3807,3.3807,3.3807,3.3807,3.3807,3.3807,3.3807,3.3807,3.3807,3.3807,3.3807,3.3807,3.3807,3.3807,3.3807,3.3807,3.3807,3.3807,3.3814,3.3814,3.3814,3.4005,3.4185,3.4185,3.4588,3.4889,3.4803,3.5043,3.5187,3.5101,3.5092,3.5084,3.501,3.5075,3.5092,3.5092,3.5092,3.5052,3.4917,3.4973,3.4218,3.2482,3.2402,3.2402,3.2402,3.2402,3.2857,3.3695,3.3695,3.4177,3.4982,3.4982,3.5043,1.6982,1.8539,2.0607,2.1743,2.3537,2.5412,2.6724,2.7544,2.8718,3.1125,3.0674,3.0102,3.1038,3.0779,0.0,0.0,0.0,0.0,0.0,0.0,0.0,0.0,0.0,0.0,0.0,0.0,0.0,0.0,0.0,0.0,0.0,3.2882,3.3025,3.3239,3.3025,3.3025,3.3267,3.3025,3.2882,3.2882,3.2882,3.293,3.3067,3.3168,3.3178,3.3221,3.3341,3.3393,3.3393,3.3393,3.3415,3.3459,3.3459,3.3488,3.3531,3.3531,3.3566,3.3657,3.3657,3.3719,3.3807,3.3807,3.3807,3.3807,3.3807,3.3807,3.3807,3.3807,3.3807,3.3807,3.3807,3.3807,3.3807,3.3807,3.3807,3.3807,3.3807,3.3965,3.4062,3.4062,3.4274,3.4403,3.4403,3.4687,3.4903,3.4889,3.5054,3.52,3.5187,3.5187,3.5145,3.5136,3.5145,3.5187,3.5187,3.5187,3.5136,3.5111,3.5106,3.4833,3.4256,3.4247,3.4238,3.4238,3.4168,3.4301,3.4529,3.4534,3.4675,3.4917,3.4883,3.4873,1.8585,2.0433,2.2461,2.3391,2.511,2.6958,2.8445,2.9196,3.0265,3.2696,3.2168,3.149,3.2115,3.1637,0.0,0.0,0.0,0.0,0.0,0.0,0.0,0.0,0.0,0.0,0.0,0.0,0.0,0.0,0.0,0.0,0.0,3.2882,3.2882,3.2882,3.2882,3.2882,3.2882,3.2882,3.2882,3.2882,3.2882,3.2882,3.289,3.2977,3.3016,3.3016,3.316,3.3206,3.3206,3.3206,3.3236,3.3289,3.3289,3.3334,3.3393,3.3393,3.3452,3.3531,3.3531,3.3559,3.3643,3.3698,3.3719,3.3732,3.3787,3.3807,3.3807,3.3807,3.3807,3.3807,3.3807,3.3807,3.3807,3.3807,3.3807,3.3807,3.3807,3.3992,3.4185,3.4185,3.4347,3.4508,3.4508,3.4728,3.4898,3.4874,3.5054,3.5186,3.5186,3.5186,3.5186,3.5186,3.5186,3.5186,3.5186,3.5186,3.5186,3.5186,3.5175,3.5136,3.5081,3.5037,3.4982,3.4917,3.4884,3.486,3.485,3.4859,3.4854,3.4873,3.4801,3.4796,2.0791,2.3164,2.5057,2.5077,2.6411,2.8313,3.0645,3.1095,3.1361,3.2644,0.0,3.2204,3.2546,3.2176,0.0,0.0,0.0,0.0,0.0,0.0,0.0,0.0,0.0,0.0,0.0,0.0,0.0,0.0,0.0,0.0,3.2882,3.2882,3.2882,3.2882,3.2882,3.2882,3.2882,3.2882,3.2882,3.2882,3.2882,3.2882,3.2882,3.2882,3.2882,3.2882,3.2882,3.2882,3.2882,3.2882,3.2961,3.3078,3.3078,3.3178,3.3349,3.3349,3.3356,3.3371,3.3371,3.3378,3.3415,3.356,3.3566,3.3587,3.3726,3.3766,3.3773,3.3787,3.3787,3.3787,3.3807,3.3807,3.3807,3.3807,3.3807,3.3807,3.3807,3.401,3.4166,3.4227,3.4381,3.4529,3.4535,3.4738,3.4889,3.485,3.5046,3.5186,3.5186,3.5186,3.5186,3.5186,3.5186,3.5186,3.5186,3.5186,3.5186,3.5186,3.5186,3.5174,3.5141,3.5132,3.5039,3.4845,3.4811,3.4781,3.4788,3.4788,3.4771,3.4778,3.4773,3.4798,1.9677,2.1765,2.4244,2.5475,2.7838,3.0306,3.2082,3.2488,3.256,3.296,3.2885,3.2727,3.2834,0.0,0.0,0.0,0.0,0.0,0.0,0.0,0.0,0.0,0.0,0.0,0.0,0.0,0.0,0.0,0.0,0.0,3.2882,3.2882,3.2882,3.2882,3.2882,3.2882,3.2882,3.2882,3.2882,3.2882,3.2882,3.2882,3.2882,3.2882,3.2882,3.2882,3.2882,3.2882,3.2882,3.2882,3.2942,3.293,3.293,3.2953,3.3028,3.3028,3.3055,3.3155,3.3155,3.3282,3.3393,3.343,3.3444,3.3452,3.3481,3.3495,3.3517,3.3601,3.3636,3.3664,3.378,3.3807,3.3807,3.3807,3.3807,3.3807,3.3807,3.386,3.4037,3.4561,3.473,3.4738,3.4793,3.4835,3.4898,3.5085,3.5153,3.5186,3.5186,3.5186,3.5186,3.5186,3.5186,3.5186,3.5186,3.5186,3.5186,3.5186,3.5186,3.5059,3.4746,3.5019,3.5145,3.5111,3.4865,3.472,3.471,3.4737,3.4737,3.471,3.4663,3.4647,1.9798,2.2175,2.4877,2.7512,2.934,3.0932,3.2525,3.2882,3.2906,3.2977,3.2938,3.2882,0.0,0.0,0.0,0.0,0.0,0.0,0.0,0.0,0.0,0.0,0.0,0.0,0.0,0.0,0.0,0.0,0.0,3.2882,3.2882,3.2882,3.2882,3.2882,3.2882,3.2882,3.2882,3.2882,3.2882,3.2882,3.2882,3.2882,3.2882,3.2882,3.2882,3.2882,3.2882,3.2882,3.2882,3.2882,3.2882,3.2882,3.2882,3.2882,3.2882,3.2882,3.293,3.2993,3.2993,3.3055,3.3183,3.3251,3.3266,3.3282,3.3364,3.3393,3.3408,3.3488,3.3516,3.3566,3.3643,3.3739,3.3807,3.3807,3.3807,3.3807,3.3807,3.3807,3.3889,3.4262,3.4687,3.501,3.5041,3.4651,3.4502,3.5115,3.5186,3.5186,3.5186,3.5186,3.5186,3.5186,3.5186,3.5186,3.5186,3.5186,3.5115,3.4931,3.4922,3.4826,3.4599,3.4806,3.4922,3.4922,3.4746,3.4647,3.4647,3.4636,3.4631,3.4631,3.4604,3.4588,1.9619,2.2566,2.5536,2.9176,3.0289,3.0903,3.2347,3.2811,3.2882,3.2882,3.2882,0.0,0.0,0.0,0.0,0.0,0.0,0.0,0.0,0.0,0.0,0.0,0.0,0.0,0.0,0.0,0.0,0.0,0.0,3.2882,3.2882,3.2882,3.2882,3.2882,3.2882,3.2882,3.2882,3.2882,3.2882,3.2882,3.2882,3.2882,3.2882,3.2882,3.2882,3.2882,3.2882,3.2882,3.2882,3.2882,3.2882,3.2882,3.2882,3.2882,3.2882,3.2882,3.2882,3.2882,3.2882,3.2882,3.2906,3.3024,3.3063,3.3093,3.3266,3.3311,3.3319,3.3356,3.3422,3.3466,3.3537,3.3684,3.378,3.3684,3.3739,3.3807,3.3807,3.3807,3.3807,3.3807,3.4561,3.5186,3.5186,3.4561,3.4307,3.5098,3.5186,3.5186,3.5186,3.5186,3.5186,3.5186,3.5186,3.5161,3.5102,3.5094,3.4959,3.461,3.4588,3.4588,3.4588,3.4588,3.4588,3.4588,3.4588,3.4588,3.4588,3.4588,3.4588,3.4588,3.4588,3.4588,1.6745,2.0254,2.4385,2.7678,2.9497,3.0753,0.0,0.0,3.2882,0.0,0.0,0.0,0.0,0.0,0.0,0.0,0.0,0.0,0.0,0.0,0.0,0.0,0.0,0.0,0.0,0.0,0.0,0.0,3.2882,3.2882,3.2882,3.2882,3.2882,3.2882,3.2882,3.2882,3.2882,3.2882,3.2882,3.2882,3.2882,3.2882,3.2882,3.2882,3.2882,3.2882,3.2882,3.2882,3.2882,3.2882,3.2882,3.2882,3.2882,3.2882,3.2882,3.2882,3.2882,3.2882,3.2882,3.2882,3.289,3.2906,3.2914,3.2922,3.2981,3.2989,3.2985,3.3198,3.3215,3.3313,3.3678,3.3787,3.3684,3.3147,3.3437,3.3807,3.3807,3.3807,3.3807,3.3807,3.4561,3.5186,3.5186,3.5107,3.5076,3.5174,3.5186,3.5186,3.5186,3.5186,3.5186,3.5186,3.5186,3.5063,3.471,3.4678,3.4652,3.4594,3.4588,3.4588,3.4588,3.4588,3.4588,3.4588,3.4588,3.4588,3.4588,3.4588,3.4588,3.4588,3.4588,3.4588,1.8151,2.0835,2.3602,2.7226,2.8664,2.9497,3.0746,3.1622,3.2177,0.0,0.0,0.0,0.0,0.0,0.0,0.0,0.0,0.0,0.0,0.0,0.0,0.0,0.0,0.0,0.0,0.0,0.0,0.0,3.2882,3.2882,3.2882,3.2882,3.2882,3.2882,3.2882,3.2882,3.2882,3.2882,3.2882,3.2882,3.2882,3.2882,3.2882,3.2882,3.2882,3.2882,3.2882,3.2882,3.2882,3.2882,3.2882,3.2882,3.2882,3.2882,3.2882,3.2882,3.2882,3.2953,3.341,3.358,3.3651,3.4044,3.3901,3.3588,3.3739,3.3382,3.2942,3.2993,3.3016,3.3063,3.326,3.3313,3.3238,3.2953,3.3776,3.4331,3.3486,3.358,3.3712,3.3379,3.4312,3.5186,3.5186,3.5186,3.5186,3.5186,3.5186,3.5186,3.5186,3.501,3.487,3.487,3.487,3.4796,3.4604,3.4588,3.4588,3.4588,3.4588,3.4588,3.4588,3.4588,3.4588,3.4588,3.4588,3.4588,3.4588,3.4588,3.4588,3.4588,3.4588,3.4588,1.8409,2.0398,2.213,2.5709,2.7059,2.7882,0.0,0.0,3.1087,0.0,0.0,0.0,0.0,0.0,0.0,0.0,0.0,0.0,0.0,0.0,0.0,0.0,0.0,0.0,0.0,0.0,0.0,0.0,3.2882,3.2882,3.2882,3.2882,3.2882,3.2882,3.2882,3.2882,3.2882,3.2882,3.2882,3.2882,3.2882,3.2882,3.2882,3.2882,3.2882,3.2882,3.2882,3.2882,3.2882,3.2882,3.2882,3.2882,3.2882,3.2882,3.2882,3.2882,3.3025,3.3267,3.3651,3.3972,3.4329,3.4999,3.482,3.4329,3.4167,3.3525,3.2882,3.2882,3.2882,3.2882,3.2882,3.3489,3.4096,3.4096,3.498,3.5351,3.3703,3.3451,3.3459,3.2977,3.3843,3.4697,3.5019,3.505,3.505,3.505,3.505,3.535,3.6216,3.607,3.5865,3.5865,3.5114,3.4588,3.4588,3.4588,3.4588,3.4588,3.4588,3.4588,3.4588,3.4528,3.4528,3.4588,3.4588,3.4588,3.4588,3.4588,3.4588,3.4588,3.4588,3.4588,1.4956,1.7051,1.9406,2.189,2.4132,2.6158,0.0,0.0,0.0,0.0,0.0,0.0,0.0,0.0,0.0,0.0,0.0,0.0,0.0,0.0,0.0,0.0,0.0,0.0,0.0,0.0,0.0,0.0,3.2882,3.2882,3.2882,3.2882,3.2882,3.2882,3.2882,3.2882,3.2882,3.2882,3.2882,3.2882,3.2882,3.2882,3.2882,3.2882,3.2882,3.2882,3.2882,3.2882,3.2882,3.2882,3.2882,3.2882,3.2882,3.2882,3.2882,3.2882,3.3374,3.3928,3.3195,3.3632,3.456,3.5043,3.5177,3.4856,3.341,3.2953,3.2882,3.2882,3.2882,3.2882,3.2882,3.5131,3.7345,3.7345,3.7416,3.6941,3.4921,3.368,3.293,3.289,3.2969,3.335,3.4435,3.4626,3.4626,3.4626,3.4626,3.5791,3.8949,3.9339,3.9326,3.9326,3.6509,3.4588,3.4588,3.4588,3.4588,3.4588,3.4588,3.4588,3.4588,3.437,3.4352,3.4583,3.4588,3.4588,3.4588,3.4588,3.4588,3.4588,3.4588,3.4588,1.475,1.6438,1.8335,2.0769,2.2341,2.3705,2.5377,0.0,0.0,0.0,0.0,0.0,0.0,0.0,0.0,0.0,0.0,0.0,0.0,0.0,0.0,0.0,0.0,0.0,0.0,0.0,0.0,0.0,0.0,3.2705,3.2705,3.2705,3.2705,3.2705,3.2705,3.2705,3.2705,3.2805,3.2838,3.2838,3.2894,3.2882,3.2882,3.2882,3.2894,3.2838,3.2838,3.287,3.2882,3.2882,3.2882,3.2882,3.2882,3.2882,3.2953,3.3481,3.3865,3.4214,3.49,3.5301,3.5595,3.6444,3.6729,3.6658,3.6087,3.4489,3.3311,3.5346,3.5917,3.5917,3.5917,3.7402,3.8405,3.6526,3.6836,3.7399,3.6689,3.6883,3.7185,3.7185,3.7185,3.7336,3.7727,3.7824,3.7824,3.7824,3.7824,3.8237,3.9439,3.9589,3.9589,3.9589,3.8538,3.7824,3.7824,3.7623,3.7592,3.7812,3.7824,3.6778,3.4439,3.427,3.4264,3.4352,3.4358,3.4433,3.4588,3.4433,3.4358,3.4358,3.4358,3.4358,1.425,0.0,0.0,0.0,0.0,2.1398,2.3859,0.0,0.0,0.0,0.0,0.0,0.0,0.0,0.0,0.0,0.0,0.0,0.0,0.0,0.0,0.0,0.0,0.0,0.0,0.0,0.0,0.0,3.2606,0.0,3.2606,3.2606,3.2606,3.2606,3.2606,3.2606,3.2606,3.2707,3.274,3.274,3.2762,3.2794,3.2794,3.2794,3.2762,3.274,3.274,3.2773,3.2794,3.2862,3.2878,3.2878,3.291,3.2902,3.2949,3.3745,3.4191,3.4566,3.5846,3.6372,3.6658,3.7381,3.7595,3.7595,3.7595,3.6131,3.4917,3.7024,3.7494,3.7392,3.7392,3.8509,3.9037,3.6853,3.6985,3.7595,3.7595,3.8647,3.9589,3.9589,3.9589,3.9589,3.9589,3.9589,3.9589,3.9589,3.9589,3.9589,3.9589,3.9589,3.9589,3.9589,3.9589,3.9552,3.9426,3.9236,3.9209,3.94,3.9413,3.8364,3.5937,3.585,3.533,3.4216,3.4185,3.4305,3.4473,3.4305,3.4185,3.4185,3.4185,3.4185,0.0,0.0,0.0,0.0,0.0,0.0,0.0,0.0,0.0,0.0,0.0,0.0,0.0,0.0,0.0,0.0,0.0,0.0,0.0,0.0,0.0,0.0,0.0,0.0,0.0,0.0,0.0,3.2597,3.2597,3.2597,3.2597,3.2597,3.2597,3.2597,3.2597,3.2597,3.2597,3.2606,3.2606,3.2606,3.2606,3.2606,3.2606,3.2606,3.2606,3.2606,3.2606,3.2606,3.2606,3.2748,3.2789,3.2797,3.2878,3.2862,3.2923,3.3645,3.441,3.512,3.5802,3.672,3.7586,3.7586,3.7577,3.7577,3.7577,3.7577,3.7577,3.7577,3.7298,3.6989,3.6989,3.8267,3.9368,3.8752,3.8135,3.764,3.764,3.8662,3.9583,3.9583,3.9583,3.9589,3.9583,3.9583,3.9583,3.9583,3.9583,3.9583,3.9583,3.9583,3.9583,3.9583,3.9583,3.9432,3.9147,3.9082,3.9082,3.9082,3.9082,3.9082,3.9082,3.9082,3.7596,3.4408,3.4327,3.4296,3.4185,3.4185,3.4185,3.4185,3.4185,3.4185,1.445,0.0,0.0,0.0,0.0,0.0,0.0,0.0,0.0,0.0,0.0,0.0,0.0,0.0,0.0,0.0,0.0,0.0,0.0,0.0,0.0,0.0,0.0,0.0,0.0,0.0,0.0,0.0,3.2448,3.2448,3.2448,3.2448,3.2448,3.2448,3.2448,3.2448,3.2448,3.2516,3.2541,3.2541,3.2573,3.2606,3.2606,3.2606,3.2573,3.2541,3.2541,3.2507,3.2456,3.2581,3.2647,3.2655,3.2672,3.3018,3.3631,3.4411,3.5173,3.5889,3.6662,3.7179,3.7465,3.7465,3.7307,3.7164,3.7164,3.7164,3.7164,3.7164,3.7077,3.6989,3.6989,3.7375,3.7928,3.8752,3.8833,3.8699,3.8699,3.8977,3.9249,3.9249,3.942,3.9527,3.9283,3.9249,3.9249,3.9249,3.9249,3.9249,3.9249,3.9249,3.9249,3.9249,3.9249,3.9209,3.9126,3.9082,3.9082,3.9082,3.9082,3.9082,3.9082,3.9082,3.8674,3.7745,3.7745,3.6556,3.4185,3.4185,3.4185,3.4185,3.4185,3.4185,0.0,0.0,0.0,0.0,0.0,0.0,0.0,2.0331,0.0,0.0,0.0,0.0,0.0,0.0,0.0,0.0,0.0,0.0,0.0,0.0,0.0,0.0,0.0,0.0,0.0,3.2272,3.2405,3.2275,3.2362,3.2406,3.2406,3.2406,3.2406,3.2406,3.2406,3.2406,3.2406,3.2422,3.2448,3.2456,3.2507,3.2532,3.2532,3.2532,3.2507,3.2448,3.2448,3.2422,3.2414,3.2482,3.2514,3.2556,3.2589,3.2864,3.3387,3.45,3.5171,3.5664,3.6805,3.7241,3.7269,3.7324,3.7248,3.7097,3.7009,3.6989,3.7135,3.7721,3.7432,3.6989,3.6989,3.6989,3.7366,3.8759,3.9082,3.9082,3.9082,3.9082,3.9082,3.9082,3.9263,3.9322,3.911,3.9082,3.9082,3.9082,3.9082,3.9082,3.9082,3.9082,3.9082,3.9082,3.9082,3.9082,3.9082,3.9082,3.9082,3.9082,3.9082,3.9082,3.9082,3.9082,3.9082,3.9082,3.9082,3.8154,3.6222,3.4884,3.4185,3.4222,3.559,3.6222,1.8897,1.9352,0.0,0.0,0.0,0.0,2.1176,2.1106,2.1252,0.0,0.0,0.0,0.0,0.0,0.0,0.0,0.0,0.0,0.0,0.0,0.0,0.0,0.0,0.0,3.108,3.1703,3.2065,3.1908,3.2109,3.2265,3.2265,3.2335,3.2406,3.2406,3.2406,3.2406,3.2406,3.2406,3.2406,3.2406,3.2406,3.2406,3.2406,3.2406,3.2406,3.2406,3.2406,3.2406,3.2406,3.2406,3.2422,3.2499,3.2547,3.2601,3.2781,3.4252,3.4806,3.5022,3.6549,3.71,3.7148,3.7212,3.7241,3.7212,3.7038,3.7058,3.7403,3.8722,3.8186,3.7225,3.7225,3.7225,3.7542,3.8789,3.9082,3.9082,3.9082,3.9082,3.9082,3.9082,3.9082,3.9082,3.9082,3.9082,3.9082,3.9082,3.9082,3.9082,3.9082,3.9082,3.9082,3.9082,3.9082,3.9082,3.9082,3.9082,3.9082,3.9082,3.9082,3.9082,3.9082,3.9082,3.9082,3.9082,3.9082,3.9082,3.9082,3.6191,3.4736,3.481,3.7745,3.9082,2.0734,2.0856,2.1264,2.0355,0.0,0.0,1.932,1.9479,1.998,0.0,0.0,0.0,0.0,0.0,0.0,0.0,0.0,0.0,0.0,0.0,0.0,0.0,0.0,0.0,3.0291,3.0467,3.0529,3.0488,3.109,3.1423,3.1423,3.2063,3.2406,3.2406,3.2406,3.2406,3.2406,3.2406,3.2406,3.2406,3.2406,3.2406,3.2406,3.2406,3.2406,3.2406,3.2406,3.2406,3.2406,3.2406,3.2414,3.2431,3.2413,3.2809,3.3424,3.4373,3.5093,3.5732,3.6683,3.7196,3.7423,3.7423,3.7262,3.7038,3.6999,3.7403,3.8076,3.8877,3.8913,3.8692,3.8692,3.8692,3.8752,3.9027,3.9082,3.9082,3.9082,3.9082,3.9082,3.9082,3.9082,3.9082,3.9082,3.9082,3.9082,3.9082,3.9082,3.9082,3.9082,3.9082,3.9082,3.9082,3.9082,3.9082,3.9082,3.9082,3.9082,3.9082,3.9082,3.9082,3.9082,3.9082,3.9082,3.9082,3.9082,3.9082,3.9082,3.8451,3.8154,3.8154,3.8785,3.9082,0.0,2.2469,2.2822,2.231,0.0,0.0,0.0,0.0,2.1021,2.1328,0.0,0.0,0.0,0.0,0.0,0.0,0.0,0.0,0.0,0.0,0.0,0.0,0.0,0.0,2.8895,2.9632,3.0116,3.0116,3.0358,3.056,3.0642,3.1388,3.1809,3.1809,3.2195,3.2406,3.2406,3.2406,3.2406,3.2406,3.2406,3.2406,3.2406,3.2406,3.2406,3.2406,3.2406,3.2406,3.2406,3.2406,3.2406,3.2406,3.2406,3.2625,3.3046,3.3828,3.4582,3.5355,3.6127,3.6887,3.7505,3.7505,3.7596,3.765,3.7421,3.7929,3.8684,3.8998,3.9082,3.9082,3.9082,3.9082,3.9082,3.9082,3.9082,3.9082,3.9082,3.9082,3.9082,3.9082,3.9082,3.9082,3.9082,3.9082,3.9082,3.9082,3.9082,3.9082,3.9082,3.9082,3.9082,3.9082,3.9082,3.9082,3.9082,3.9082,3.9082,3.9082,3.9082,3.9082,3.9082,3.9082,3.9082,3.9082,3.9082,3.9082,3.9082,3.9082,3.9082,3.9082,3.9082,3.9082,0.0,0.0,0.0,0.0,0.0,2.3557,0.0,0.0,0.0,2.2694,0.0,0.0,0.0,0.0,0.0,0.0,0.0,0.0,0.0,0.0,0.0,0.0,0.0,0.0,2.7455,2.8521,2.9285,2.9624,2.9333,2.9336,2.9779,3.0671,3.1145,3.112,3.1882,3.2267,3.2267,3.2301,3.2354,3.2354,3.2388,3.2406,3.2406,3.2406,3.2414,3.2431,3.2431,3.244,3.2422,3.2422,3.2422,3.2422,3.2423,3.2413,3.257,3.3248,3.4031,3.4885,3.554,3.6616,3.7614,3.7614,3.7989,3.8328,3.7895,3.8304,3.8934,3.9048,3.9082,3.9082,3.9082,3.9082,3.9082,3.9082,3.9082,3.9082,3.9082,3.9082,3.9082,3.9082,3.9082,3.9082,3.9082,3.9082,3.9082,3.9082,3.9082,3.9082,3.9082,3.9082,3.9082,3.9082,3.9082,3.9082,3.9082,3.9082,3.9082,3.9082,3.9082,3.9082,3.9082,3.9082,3.9082,3.9082,3.9082,3.9082,3.9082,3.9082,3.9082,3.9082,3.9082,3.9082,0.0,0.0,0.0,0.0,2.6203,0.0,0.0,0.0,2.32,2.1662,0.0,0.0,0.0,0.0,0.0,0.0,0.0,0.0,0.0,0.0,0.0,0.0,0.0,0.0,2.6676,2.6177,2.645,2.7877,2.724,2.7367,2.8703,3.0158,3.089,3.0776,3.1493,3.1864,3.1864,3.2054,3.2143,3.2143,3.2301,3.2406,3.2406,3.2406,3.2413,3.249,3.249,3.2506,3.2573,3.2573,3.2573,3.2564,3.2439,3.2539,3.2805,3.3318,3.4173,3.5128,3.5624,3.6764,3.8034,3.8034,3.819,3.836,3.8135,3.8135,3.8348,3.8934,3.9082,3.9082,3.9082,3.9082,3.9082,3.9082,3.9082,3.9082,3.9082,3.9082,3.9082,3.9082,3.9082,3.9082,3.9082,3.9082,3.9082,3.9082,3.9082,3.9082,3.9082,3.9082,3.9082,3.9082,3.9082,3.9082,3.9082,3.9082,3.9082,3.9082,3.9082,3.9082,3.9082,3.9082,3.9082,3.9082,3.9082,3.9082,3.9082,3.9082,3.9082,3.9082,3.9082,3.9082,0.0,0.0,0.0,0.0,0.0,0.0,2.4701,0.0,2.3747,0.0,0.0,0.0,0.0,0.0,0.0,0.0,0.0,0.0,0.0,0.0,0.0,0.0,0.0,0.0,2.5853,2.5161,2.5134,2.629,2.5931,2.6124,2.721,2.906,3.0041,3.0006,3.1179,3.18,3.18,3.1892,3.1937,3.1937,3.2009,3.2045,3.2045,3.2045,3.2099,3.2153,3.2153,3.2214,3.231,3.2448,3.2482,3.249,3.2516,3.2688,3.293,3.3068,3.4107,3.549,3.5671,3.6908,3.8407,3.8631,3.8752,3.8774,3.8722,3.8691,3.8752,3.9013,3.9082,3.9082,3.9082,3.9082,3.9082,3.9082,3.9082,3.9082,3.9082,3.9082,3.9082,3.9082,3.9082,3.9082,3.9082,3.9082,3.9082,3.9082,3.9082,3.9082,3.9082,3.9082,3.9082,3.9082,3.9082,3.9082,3.9082,3.9082,3.9082,3.9082,3.9082,3.9082,3.9082,3.9082,3.9082,3.9082,3.9082,3.9082,3.9082,3.9082,3.9082,3.9082,3.9082,3.9082,2.8138,0.0,0.0,0.0,0.0,0.0,0.0,0.0,0.0,0.0,0.0,0.0,0.0,0.0,0.0,0.0,0.0,0.0,0.0,0.0,0.0,0.0,0.0,0.0,0.0,2.4193,2.4029,2.53,2.4607,2.4732,2.6177,2.7908,2.9016,2.9377,3.071,3.1501,3.1645,3.1735,3.1744,3.1716,3.1772,3.1818,3.1846,3.1846,3.1902,3.2073,3.2091,3.2232,3.2387,3.2591,3.2666,3.2718,3.2967,3.3263,3.3489,3.3303,3.4485,3.6196,3.6119,3.7215,3.87,3.8998,3.9082,3.9082,3.9082,3.9082,3.9082,3.9082,3.9082,3.9082,3.9082,3.9082,3.9082,3.9082,3.9082,3.9082,3.9082,3.9082,3.9082,3.9082,3.9082,3.9082,3.9082,3.9082,3.9082,3.9082,3.9082,3.9082,3.9082,3.9082,3.9082,3.9082,3.9082,3.9082,3.9082,3.9082,3.9082,3.9082,3.9082,3.9082,3.9082,3.9082,3.9082,3.9082,3.9082,3.9082,3.9082,3.9082,3.9082,3.9082,3.9082,3.9082,0.0,0.0,0.0,2.7687,0.0,0.0,0.0,0.0,2.6283,0.0,0.0,0.0,0.0,0.0,0.0,2.1269,0.0,0.0,0.0,0.0,0.0,0.0,0.0,0.0,0.0,2.2828,2.2788,0.0,2.3033,2.2924,2.5937,2.6797,2.7774,2.9079,2.9985,3.0736,3.1298,3.1513,3.1551,3.149,3.1707,3.182,3.1912,3.1912,3.2109,3.2499,3.2603,3.2814,3.3078,3.3289,3.3364,3.3428,3.4091,3.4555,3.4782,3.4382,3.5649,3.7484,3.7189,3.783,3.8825,3.9027,3.9082,3.9082,3.9082,3.9082,3.9082,3.9082,3.9082,3.9082,3.9082,3.9082,3.9082,3.9082,3.9082,3.9082,3.9082,3.9082,3.9082,3.9082,3.9082,3.9082,3.9082,3.9082,3.9082,3.9082,3.9082,3.9082,3.9082,3.9082,3.9082,3.9082,3.9082,3.9082,3.9082,3.9082,3.9082,3.9082,3.9082,3.9082,3.9082,3.9082,3.9082,3.9082,3.9082,3.9082,3.9082,3.9082,3.9082,3.9082,3.9082,3.9082,0.0,0.0,3.2,2.9206,0.0,0.0,0.0,0.0,0.0,0.0,0.0,0.0,0.0,0.0,0.0,2.2177,0.0,0.0,0.0,0.0,0.0,0.0,0.0,0.0,0.0,0.0,0.0,0.0,2.2578,0.0,2.4437,2.6112,2.7477,2.8416,2.9696,3.072,3.1443,3.1408,3.1389,3.1361,3.1404,3.1528,3.1701,3.1701,3.1958,3.2437,3.2584,3.2803,3.306,3.3357,3.3771,3.4302,3.4557,3.5513,3.6675,3.5864,3.6507,3.7893,3.8433,3.8839,3.9147,3.9242,3.9202,3.9124,3.9355,3.9413,3.9413,3.9413,3.9413,3.9413,3.9413,3.9413,3.9413,3.9413,3.9413,3.9413,3.9413,3.9413,3.9413,3.9413,3.9413,3.9413,3.9413,3.9256,3.9082,3.9082,3.9082,3.9082,3.9082,3.9082,3.9082,3.9082,3.9082,3.9082,3.9082,3.9082,3.9082,3.9082,3.9082,3.9082,3.9082,3.9082,3.9082,3.9082,3.9082,3.9082,3.9082,3.9082,3.9082,3.9082,3.9082,3.9082,3.2407,3.2658,0.0,3.0325,2.9805,0.0,2.6612,0.0,0.0,0.0,0.0,0.0,0.0,0.0,0.0,0.0,2.1821,0.0,0.0,0.0,0.0,0.0,0.0,0.0,0.0,0.0,2.1098,2.2138,2.1716,0.0,0.0,2.5293,2.6836,2.8134,2.9418,3.053,3.1481,3.1423,3.1332,3.1264,3.138,3.1475,3.1551,3.185,3.217,3.2487,3.2755,3.297,3.3276,3.3814,3.44,3.4983,3.56,3.6631,3.7676,3.6925,3.737,3.8441,3.9109,3.9346,3.9313,3.9425,3.9392,3.9316,3.954,3.9589,3.9589,3.9589,3.9589,3.9589,3.9589,3.9589,3.9589,3.9589,3.9589,3.9589,3.9589,3.9589,3.9589,3.9589,3.9589,3.9589,3.9589,3.9407,3.9242,3.914,3.9082,3.9082,3.9082,3.9082,3.9082,3.9082,3.9082,3.9168,3.9269,3.9181,3.9082,3.9082,3.9222,3.9283,3.9283,3.9283,3.9229,3.9089,3.9082,3.9082,3.9082,3.9082,3.9082,3.9082,3.9082,3.9082]}]]